<?xml version="1.0" encoding="UTF-8" standalone="no" ?>
<gpx xmlns="http://www.topografix.com/GPX/1/1" xmlns:xsi="http://www.w3.org/2001/XMLSchema-instance" xsi:schemaLocation="http://www.topografix.com/GPX/1/1 http://www.topografix.com/GPX/1/1/gpx.xsd" version="1.1" creator="VisuGPX - https://www.visugpx.com">
  <metadata>
    <name>2019-06-09 12:56:34 randonnée grandvallière</name>
    <desc><![CDATA[très belle randonnée dans le grandvaux]]></desc>
  </metadata>
  <trk>
    <name><![CDATA[2019-06-09 12:56:34 randonnée grandvallière]]></name>
    <trkseg>
      <trkpt lat="46.57266" lon="5.95487">
        <ele>900.02</ele>
        <time>2019-06-09T06:55:26Z</time>
      </trkpt>
      <trkpt lat="46.57267" lon="5.95487">
        <ele>899.96</ele>
        <time>2019-06-09T06:55:27Z</time>
      </trkpt>
      <trkpt lat="46.57268" lon="5.95489">
        <ele>900.5</ele>
        <time>2019-06-09T06:55:33Z</time>
      </trkpt>
      <trkpt lat="46.57253" lon="5.95504">
        <ele>900.54</ele>
        <time>2019-06-09T06:55:49Z</time>
      </trkpt>
      <trkpt lat="46.57252" lon="5.95504">
        <ele>900.52</ele>
        <time>2019-06-09T06:55:50Z</time>
      </trkpt>
      <trkpt lat="46.57239" lon="5.95519">
        <ele>899.73</ele>
        <time>2019-06-09T06:56:03Z</time>
      </trkpt>
      <trkpt lat="46.5723" lon="5.95537">
        <ele>902.08</ele>
        <time>2019-06-09T06:56:11Z</time>
      </trkpt>
      <trkpt lat="46.57221" lon="5.95542">
        <ele>902.11</ele>
        <time>2019-06-09T06:56:17Z</time>
      </trkpt>
      <trkpt lat="46.57219" lon="5.95545">
        <ele>899.73</ele>
        <time>2019-06-09T06:56:19Z</time>
      </trkpt>
      <trkpt lat="46.57218" lon="5.95548">
        <ele>899.76</ele>
        <time>2019-06-09T06:56:21Z</time>
      </trkpt>
      <trkpt lat="46.572" lon="5.95564">
        <ele>899.92</ele>
        <time>2019-06-09T06:56:36Z</time>
      </trkpt>
      <trkpt lat="46.57196" lon="5.9557">
        <ele>902.63</ele>
        <time>2019-06-09T06:56:40Z</time>
      </trkpt>
      <trkpt lat="46.57186" lon="5.95599">
        <ele>902.6</ele>
        <time>2019-06-09T06:56:55Z</time>
      </trkpt>
      <trkpt lat="46.57186" lon="5.95603">
        <ele>902.61</ele>
        <time>2019-06-09T06:56:57Z</time>
      </trkpt>
      <trkpt lat="46.57185" lon="5.95611">
        <ele>902.64</ele>
        <time>2019-06-09T06:57:01Z</time>
      </trkpt>
      <trkpt lat="46.57189" lon="5.95619">
        <ele>902.68</ele>
        <time>2019-06-09T06:57:06Z</time>
      </trkpt>
      <trkpt lat="46.57211" lon="5.95656">
        <ele>902.81</ele>
        <time>2019-06-09T06:57:26Z</time>
      </trkpt>
      <trkpt lat="46.57233" lon="5.95679">
        <ele>902.92</ele>
        <time>2019-06-09T06:57:46Z</time>
      </trkpt>
      <trkpt lat="46.57254" lon="5.95693">
        <ele>903.01</ele>
        <time>2019-06-09T06:58:02Z</time>
      </trkpt>
      <trkpt lat="46.57269" lon="5.95703">
        <ele>906.29</ele>
        <time>2019-06-09T06:58:15Z</time>
      </trkpt>
      <trkpt lat="46.5727" lon="5.95704">
        <ele>906.27</ele>
        <time>2019-06-09T06:58:16Z</time>
      </trkpt>
      <trkpt lat="46.57275" lon="5.95731">
        <ele>906.27</ele>
        <time>2019-06-09T06:58:31Z</time>
      </trkpt>
      <trkpt lat="46.57271" lon="5.95751">
        <ele>906.37</ele>
        <time>2019-06-09T06:58:48Z</time>
      </trkpt>
      <trkpt lat="46.57269" lon="5.95778">
        <ele>907.25</ele>
        <time>2019-06-09T06:59:02Z</time>
      </trkpt>
      <trkpt lat="46.57277" lon="5.95793">
        <ele>908.08</ele>
        <time>2019-06-09T06:59:10Z</time>
      </trkpt>
      <trkpt lat="46.57298" lon="5.95808">
        <ele>909.83</ele>
        <time>2019-06-09T06:59:26Z</time>
      </trkpt>
      <trkpt lat="46.57321" lon="5.95816">
        <ele>910.66</ele>
        <time>2019-06-09T06:59:43Z</time>
      </trkpt>
      <trkpt lat="46.57344" lon="5.95821">
        <ele>913.69</ele>
        <time>2019-06-09T07:00:01Z</time>
      </trkpt>
      <trkpt lat="46.57345" lon="5.95821">
        <ele>913.69</ele>
        <time>2019-06-09T07:00:02Z</time>
      </trkpt>
      <trkpt lat="46.57362" lon="5.95812">
        <ele>915.4</ele>
        <time>2019-06-09T07:00:17Z</time>
      </trkpt>
      <trkpt lat="46.5739" lon="5.95807">
        <ele>918.04</ele>
        <time>2019-06-09T07:00:36Z</time>
      </trkpt>
      <trkpt lat="46.57411" lon="5.95825">
        <ele>918.86</ele>
        <time>2019-06-09T07:00:54Z</time>
      </trkpt>
      <trkpt lat="46.57422" lon="5.95841">
        <ele>920.12</ele>
        <time>2019-06-09T07:01:07Z</time>
      </trkpt>
      <trkpt lat="46.5744" lon="5.95855">
        <ele>920.83</ele>
        <time>2019-06-09T07:01:21Z</time>
      </trkpt>
      <trkpt lat="46.57457" lon="5.95869">
        <ele>920.87</ele>
        <time>2019-06-09T07:01:35Z</time>
      </trkpt>
      <trkpt lat="46.57469" lon="5.95888">
        <ele>920.88</ele>
        <time>2019-06-09T07:01:49Z</time>
      </trkpt>
      <trkpt lat="46.57491" lon="5.95919">
        <ele>920.79</ele>
        <time>2019-06-09T07:02:10Z</time>
      </trkpt>
      <trkpt lat="46.57517" lon="5.95938">
        <ele>921.6</ele>
        <time>2019-06-09T07:02:28Z</time>
      </trkpt>
      <trkpt lat="46.57536" lon="5.95922">
        <ele>921.57</ele>
        <time>2019-06-09T07:02:44Z</time>
      </trkpt>
      <trkpt lat="46.57546" lon="5.95922">
        <ele>921.62</ele>
        <time>2019-06-09T07:02:58Z</time>
      </trkpt>
      <trkpt lat="46.57552" lon="5.95926">
        <ele>921.65</ele>
        <time>2019-06-09T07:03:03Z</time>
      </trkpt>
      <trkpt lat="46.57574" lon="5.95948">
        <ele>921.64</ele>
        <time>2019-06-09T07:03:22Z</time>
      </trkpt>
      <trkpt lat="46.57591" lon="5.95969">
        <ele>921.6</ele>
        <time>2019-06-09T07:03:35Z</time>
      </trkpt>
      <trkpt lat="46.57609" lon="5.95987">
        <ele>921.6</ele>
        <time>2019-06-09T07:03:49Z</time>
      </trkpt>
      <trkpt lat="46.57615" lon="5.95993">
        <ele>919.08</ele>
        <time>2019-06-09T07:03:54Z</time>
      </trkpt>
      <trkpt lat="46.57619" lon="5.96005">
        <ele>917.27</ele>
        <time>2019-06-09T07:04:01Z</time>
      </trkpt>
      <trkpt lat="46.57623" lon="5.96015">
        <ele>917.27</ele>
        <time>2019-06-09T07:04:06Z</time>
      </trkpt>
      <trkpt lat="46.57639" lon="5.96033">
        <ele>913.59</ele>
        <time>2019-06-09T07:04:20Z</time>
      </trkpt>
      <trkpt lat="46.57654" lon="5.96051">
        <ele>910.9</ele>
        <time>2019-06-09T07:04:34Z</time>
      </trkpt>
      <trkpt lat="46.57667" lon="5.96068">
        <ele>910</ele>
        <time>2019-06-09T07:04:47Z</time>
      </trkpt>
      <trkpt lat="46.5768" lon="5.96086">
        <ele>910.05</ele>
        <time>2019-06-09T07:04:58Z</time>
      </trkpt>
      <trkpt lat="46.57689" lon="5.96126">
        <ele>910.08</ele>
        <time>2019-06-09T07:05:16Z</time>
      </trkpt>
      <trkpt lat="46.57699" lon="5.96159">
        <ele>910.17</ele>
        <time>2019-06-09T07:05:34Z</time>
      </trkpt>
      <trkpt lat="46.57703" lon="5.96199">
        <ele>910.16</ele>
        <time>2019-06-09T07:05:51Z</time>
      </trkpt>
      <trkpt lat="46.57702" lon="5.96245">
        <ele>909.48</ele>
        <time>2019-06-09T07:06:10Z</time>
      </trkpt>
      <trkpt lat="46.57704" lon="5.96291">
        <ele>908.83</ele>
        <time>2019-06-09T07:06:31Z</time>
      </trkpt>
      <trkpt lat="46.57714" lon="5.96332">
        <ele>908.22</ele>
        <time>2019-06-09T07:06:50Z</time>
      </trkpt>
      <trkpt lat="46.57725" lon="5.96377">
        <ele>907.6</ele>
        <time>2019-06-09T07:07:12Z</time>
      </trkpt>
      <trkpt lat="46.57734" lon="5.96412">
        <ele>907.74</ele>
        <time>2019-06-09T07:07:30Z</time>
      </trkpt>
      <trkpt lat="46.57742" lon="5.96445">
        <ele>906.28</ele>
        <time>2019-06-09T07:07:46Z</time>
      </trkpt>
      <trkpt lat="46.57757" lon="5.96484">
        <ele>905.61</ele>
        <time>2019-06-09T07:08:06Z</time>
      </trkpt>
      <trkpt lat="46.57773" lon="5.96507">
        <ele>904.95</ele>
        <time>2019-06-09T07:08:21Z</time>
      </trkpt>
      <trkpt lat="46.57783" lon="5.96507">
        <ele>905.01</ele>
        <time>2019-06-09T07:08:30Z</time>
      </trkpt>
      <trkpt lat="46.57799" lon="5.96533">
        <ele>903.47</ele>
        <time>2019-06-09T07:08:47Z</time>
      </trkpt>
      <trkpt lat="46.57819" lon="5.9656">
        <ele>902.72</ele>
        <time>2019-06-09T07:09:05Z</time>
      </trkpt>
      <trkpt lat="46.57845" lon="5.96588">
        <ele>901.25</ele>
        <time>2019-06-09T07:09:26Z</time>
      </trkpt>
      <trkpt lat="46.57859" lon="5.96615">
        <ele>901.38</ele>
        <time>2019-06-09T07:09:42Z</time>
      </trkpt>
      <trkpt lat="46.57864" lon="5.96619">
        <ele>900.56</ele>
        <time>2019-06-09T07:09:46Z</time>
      </trkpt>
      <trkpt lat="46.57889" lon="5.96619">
        <ele>899.93</ele>
        <time>2019-06-09T07:10:03Z</time>
      </trkpt>
      <trkpt lat="46.57917" lon="5.96623">
        <ele>900.05</ele>
        <time>2019-06-09T07:10:22Z</time>
      </trkpt>
      <trkpt lat="46.57945" lon="5.96646">
        <ele>900.14</ele>
        <time>2019-06-09T07:10:43Z</time>
      </trkpt>
      <trkpt lat="46.57957" lon="5.96663">
        <ele>902.57</ele>
        <time>2019-06-09T07:10:55Z</time>
      </trkpt>
      <trkpt lat="46.57978" lon="5.96685">
        <ele>902.61</ele>
        <time>2019-06-09T07:11:14Z</time>
      </trkpt>
      <trkpt lat="46.57996" lon="5.96702">
        <ele>903.55</ele>
        <time>2019-06-09T07:11:31Z</time>
      </trkpt>
      <trkpt lat="46.58014" lon="5.96727">
        <ele>904.35</ele>
        <time>2019-06-09T07:11:49Z</time>
      </trkpt>
      <trkpt lat="46.58029" lon="5.96751">
        <ele>904.33</ele>
        <time>2019-06-09T07:12:04Z</time>
      </trkpt>
      <trkpt lat="46.58043" lon="5.96775">
        <ele>904.28</ele>
        <time>2019-06-09T07:12:18Z</time>
      </trkpt>
      <trkpt lat="46.58057" lon="5.96794">
        <ele>905.02</ele>
        <time>2019-06-09T07:12:33Z</time>
      </trkpt>
      <trkpt lat="46.58063" lon="5.96803">
        <ele>904.99</ele>
        <time>2019-06-09T07:12:39Z</time>
      </trkpt>
      <trkpt lat="46.58081" lon="5.96841">
        <ele>904.93</ele>
        <time>2019-06-09T07:12:59Z</time>
      </trkpt>
      <trkpt lat="46.58084" lon="5.96843">
        <ele>904.92</ele>
        <time>2019-06-09T07:13:01Z</time>
      </trkpt>
      <trkpt lat="46.58098" lon="5.96866">
        <ele>905.61</ele>
        <time>2019-06-09T07:13:17Z</time>
      </trkpt>
      <trkpt lat="46.5811" lon="5.96887">
        <ele>906.31</ele>
        <time>2019-06-09T07:13:34Z</time>
      </trkpt>
      <trkpt lat="46.58114" lon="5.96917">
        <ele>903.78</ele>
        <time>2019-06-09T07:13:51Z</time>
      </trkpt>
      <trkpt lat="46.58111" lon="5.96945">
        <ele>901.04</ele>
        <time>2019-06-09T07:14:07Z</time>
      </trkpt>
      <trkpt lat="46.58118" lon="5.96986">
        <ele>899.69</ele>
        <time>2019-06-09T07:14:26Z</time>
      </trkpt>
      <trkpt lat="46.58119" lon="5.97026">
        <ele>899.38</ele>
        <time>2019-06-09T07:14:40Z</time>
      </trkpt>
      <trkpt lat="46.58125" lon="5.97045">
        <ele>899.14</ele>
        <time>2019-06-09T07:14:51Z</time>
      </trkpt>
      <trkpt lat="46.58137" lon="5.97069">
        <ele>898.75</ele>
        <time>2019-06-09T07:15:06Z</time>
      </trkpt>
      <trkpt lat="46.58148" lon="5.97094">
        <ele>898.3</ele>
        <time>2019-06-09T07:15:22Z</time>
      </trkpt>
      <trkpt lat="46.58164" lon="5.9713">
        <ele>897.59</ele>
        <time>2019-06-09T07:15:44Z</time>
      </trkpt>
      <trkpt lat="46.58179" lon="5.97168">
        <ele>896.81</ele>
        <time>2019-06-09T07:16:06Z</time>
      </trkpt>
      <trkpt lat="46.58206" lon="5.972">
        <ele>896</ele>
        <time>2019-06-09T07:16:27Z</time>
      </trkpt>
      <trkpt lat="46.58241" lon="5.97227">
        <ele>895.51</ele>
        <time>2019-06-09T07:16:42Z</time>
      </trkpt>
      <trkpt lat="46.58267" lon="5.97239">
        <ele>895.23</ele>
        <time>2019-06-09T07:16:56Z</time>
      </trkpt>
      <trkpt lat="46.58293" lon="5.9725">
        <ele>895.01</ele>
        <time>2019-06-09T07:17:12Z</time>
      </trkpt>
      <trkpt lat="46.58324" lon="5.97262">
        <ele>894.95</ele>
        <time>2019-06-09T07:17:27Z</time>
      </trkpt>
      <trkpt lat="46.58357" lon="5.97272">
        <ele>897.39</ele>
        <time>2019-06-09T07:17:42Z</time>
      </trkpt>
      <trkpt lat="46.58391" lon="5.97286">
        <ele>898.55</ele>
        <time>2019-06-09T07:17:59Z</time>
      </trkpt>
      <trkpt lat="46.58412" lon="5.97308">
        <ele>900.6</ele>
        <time>2019-06-09T07:18:19Z</time>
      </trkpt>
      <trkpt lat="46.58428" lon="5.97333">
        <ele>900.89</ele>
        <time>2019-06-09T07:18:37Z</time>
      </trkpt>
      <trkpt lat="46.58447" lon="5.97361">
        <ele>898.69</ele>
        <time>2019-06-09T07:18:57Z</time>
      </trkpt>
      <trkpt lat="46.58447" lon="5.97362">
        <ele>898.65</ele>
        <time>2019-06-09T07:18:58Z</time>
      </trkpt>
      <trkpt lat="46.58448" lon="5.97364">
        <ele>898.67</ele>
        <time>2019-06-09T07:18:59Z</time>
      </trkpt>
      <trkpt lat="46.5846" lon="5.97381">
        <ele>896.05</ele>
        <time>2019-06-09T07:19:15Z</time>
      </trkpt>
      <trkpt lat="46.58472" lon="5.9739">
        <ele>892.9</ele>
        <time>2019-06-09T07:19:29Z</time>
      </trkpt>
      <trkpt lat="46.58481" lon="5.97388">
        <ele>891.53</ele>
        <time>2019-06-09T07:19:36Z</time>
      </trkpt>
      <trkpt lat="46.58483" lon="5.97388">
        <ele>891.67</ele>
        <time>2019-06-09T07:19:37Z</time>
      </trkpt>
      <trkpt lat="46.58516" lon="5.97377">
        <ele>888.32</ele>
        <time>2019-06-09T07:19:56Z</time>
      </trkpt>
      <trkpt lat="46.58539" lon="5.9736">
        <ele>886.65</ele>
        <time>2019-06-09T07:20:11Z</time>
      </trkpt>
      <trkpt lat="46.58564" lon="5.97341">
        <ele>885.82</ele>
        <time>2019-06-09T07:20:27Z</time>
      </trkpt>
      <trkpt lat="46.58584" lon="5.97321">
        <ele>883.96</ele>
        <time>2019-06-09T07:20:43Z</time>
      </trkpt>
      <trkpt lat="46.58602" lon="5.97305">
        <ele>884.08</ele>
        <time>2019-06-09T07:20:58Z</time>
      </trkpt>
      <trkpt lat="46.5861" lon="5.97298">
        <ele>883.31</ele>
        <time>2019-06-09T07:21:09Z</time>
      </trkpt>
      <trkpt lat="46.58626" lon="5.97303">
        <ele>879.65</ele>
        <time>2019-06-09T07:21:24Z</time>
      </trkpt>
      <trkpt lat="46.58641" lon="5.97303">
        <ele>878.67</ele>
        <time>2019-06-09T07:21:31Z</time>
      </trkpt>
      <trkpt lat="46.58654" lon="5.97307">
        <ele>877.71</ele>
        <time>2019-06-09T07:21:39Z</time>
      </trkpt>
      <trkpt lat="46.58672" lon="5.97308">
        <ele>875.27</ele>
        <time>2019-06-09T07:21:56Z</time>
      </trkpt>
      <trkpt lat="46.58695" lon="5.97319">
        <ele>871.57</ele>
        <time>2019-06-09T07:22:17Z</time>
      </trkpt>
      <trkpt lat="46.58716" lon="5.9731">
        <ele>869.96</ele>
        <time>2019-06-09T07:22:36Z</time>
      </trkpt>
      <trkpt lat="46.58736" lon="5.97288">
        <ele>867.95</ele>
        <time>2019-06-09T07:22:58Z</time>
      </trkpt>
      <trkpt lat="46.58755" lon="5.97282">
        <ele>864.39</ele>
        <time>2019-06-09T07:23:13Z</time>
      </trkpt>
      <trkpt lat="46.58771" lon="5.97281">
        <ele>862.46</ele>
        <time>2019-06-09T07:23:31Z</time>
      </trkpt>
      <trkpt lat="46.58786" lon="5.9727">
        <ele>861.37</ele>
        <time>2019-06-09T07:23:51Z</time>
      </trkpt>
      <trkpt lat="46.58816" lon="5.97269">
        <ele>860.33</ele>
        <time>2019-06-09T07:24:09Z</time>
      </trkpt>
      <trkpt lat="46.58849" lon="5.97277">
        <ele>858.13</ele>
        <time>2019-06-09T07:24:32Z</time>
      </trkpt>
      <trkpt lat="46.58884" lon="5.9729">
        <ele>857.01</ele>
        <time>2019-06-09T07:24:53Z</time>
      </trkpt>
      <trkpt lat="46.58914" lon="5.97306">
        <ele>855.54</ele>
        <time>2019-06-09T07:25:20Z</time>
      </trkpt>
      <trkpt lat="46.5894" lon="5.97326">
        <ele>854.34</ele>
        <time>2019-06-09T07:25:44Z</time>
      </trkpt>
      <trkpt lat="46.58964" lon="5.97335">
        <ele>853.09</ele>
        <time>2019-06-09T07:26:05Z</time>
      </trkpt>
      <trkpt lat="46.5898" lon="5.97338">
        <ele>852.9</ele>
        <time>2019-06-09T07:26:27Z</time>
      </trkpt>
      <trkpt lat="46.59001" lon="5.97352">
        <ele>852.7</ele>
        <time>2019-06-09T07:26:38Z</time>
      </trkpt>
      <trkpt lat="46.59005" lon="5.97358">
        <ele>852.64</ele>
        <time>2019-06-09T07:26:41Z</time>
      </trkpt>
      <trkpt lat="46.59009" lon="5.97362">
        <ele>852.61</ele>
        <time>2019-06-09T07:26:43Z</time>
      </trkpt>
      <trkpt lat="46.59025" lon="5.97374">
        <ele>850.89</ele>
        <time>2019-06-09T07:26:54Z</time>
      </trkpt>
      <trkpt lat="46.59026" lon="5.97375">
        <ele>855.22</ele>
        <time>2019-06-09T07:26:55Z</time>
      </trkpt>
      <trkpt lat="46.59028" lon="5.97376">
        <ele>855.22</ele>
        <time>2019-06-09T07:26:56Z</time>
      </trkpt>
      <trkpt lat="46.59032" lon="5.97377">
        <ele>852.7</ele>
        <time>2019-06-09T07:26:58Z</time>
      </trkpt>
      <trkpt lat="46.59047" lon="5.97399">
        <ele>851.39</ele>
        <time>2019-06-09T07:27:10Z</time>
      </trkpt>
      <trkpt lat="46.59054" lon="5.97411">
        <ele>851.4</ele>
        <time>2019-06-09T07:27:15Z</time>
      </trkpt>
      <trkpt lat="46.59057" lon="5.97418">
        <ele>851.38</ele>
        <time>2019-06-09T07:27:19Z</time>
      </trkpt>
      <trkpt lat="46.59059" lon="5.97427">
        <ele>851.38</ele>
        <time>2019-06-09T07:27:23Z</time>
      </trkpt>
      <trkpt lat="46.59064" lon="5.97444">
        <ele>849.47</ele>
        <time>2019-06-09T07:27:30Z</time>
      </trkpt>
      <trkpt lat="46.59074" lon="5.97454">
        <ele>848.72</ele>
        <time>2019-06-09T07:27:38Z</time>
      </trkpt>
      <trkpt lat="46.5908" lon="5.97469">
        <ele>847.08</ele>
        <time>2019-06-09T07:27:47Z</time>
      </trkpt>
      <trkpt lat="46.59085" lon="5.97499">
        <ele>846.4</ele>
        <time>2019-06-09T07:28:00Z</time>
      </trkpt>
      <trkpt lat="46.5909" lon="5.97533">
        <ele>844.61</ele>
        <time>2019-06-09T07:28:17Z</time>
      </trkpt>
      <trkpt lat="46.59095" lon="5.9755">
        <ele>843.79</ele>
        <time>2019-06-09T07:28:29Z</time>
      </trkpt>
      <trkpt lat="46.591" lon="5.97562">
        <ele>842.78</ele>
        <time>2019-06-09T07:28:37Z</time>
      </trkpt>
      <trkpt lat="46.59103" lon="5.97567">
        <ele>842.04</ele>
        <time>2019-06-09T07:28:40Z</time>
      </trkpt>
      <trkpt lat="46.59111" lon="5.97577">
        <ele>841.25</ele>
        <time>2019-06-09T07:28:49Z</time>
      </trkpt>
      <trkpt lat="46.59114" lon="5.97582">
        <ele>840.5</ele>
        <time>2019-06-09T07:28:52Z</time>
      </trkpt>
      <trkpt lat="46.59119" lon="5.97603">
        <ele>838.85</ele>
        <time>2019-06-09T07:29:03Z</time>
      </trkpt>
      <trkpt lat="46.59129" lon="5.97633">
        <ele>839.01</ele>
        <time>2019-06-09T07:29:17Z</time>
      </trkpt>
      <trkpt lat="46.5913" lon="5.97638">
        <ele>839.04</ele>
        <time>2019-06-09T07:29:19Z</time>
      </trkpt>
      <trkpt lat="46.59131" lon="5.97649">
        <ele>838.08</ele>
        <time>2019-06-09T07:29:23Z</time>
      </trkpt>
      <trkpt lat="46.59138" lon="5.97678">
        <ele>837.35</ele>
        <time>2019-06-09T07:29:37Z</time>
      </trkpt>
      <trkpt lat="46.59139" lon="5.97687">
        <ele>837.42</ele>
        <time>2019-06-09T07:29:43Z</time>
      </trkpt>
      <trkpt lat="46.59147" lon="5.97711">
        <ele>836.51</ele>
        <time>2019-06-09T07:29:56Z</time>
      </trkpt>
      <trkpt lat="46.59144" lon="5.97738">
        <ele>835.86</ele>
        <time>2019-06-09T07:30:10Z</time>
      </trkpt>
      <trkpt lat="46.59143" lon="5.97746">
        <ele>835.9</ele>
        <time>2019-06-09T07:30:15Z</time>
      </trkpt>
      <trkpt lat="46.59146" lon="5.97756">
        <ele>834.53</ele>
        <time>2019-06-09T07:30:20Z</time>
      </trkpt>
      <trkpt lat="46.59151" lon="5.97762">
        <ele>834.59</ele>
        <time>2019-06-09T07:30:26Z</time>
      </trkpt>
      <trkpt lat="46.59159" lon="5.97767">
        <ele>834.69</ele>
        <time>2019-06-09T07:30:35Z</time>
      </trkpt>
      <trkpt lat="46.59175" lon="5.97768">
        <ele>834.8</ele>
        <time>2019-06-09T07:30:46Z</time>
      </trkpt>
      <trkpt lat="46.59199" lon="5.97772">
        <ele>834.98</ele>
        <time>2019-06-09T07:31:02Z</time>
      </trkpt>
      <trkpt lat="46.59207" lon="5.97777">
        <ele>837.36</ele>
        <time>2019-06-09T07:31:09Z</time>
      </trkpt>
      <trkpt lat="46.59218" lon="5.97783">
        <ele>837.39</ele>
        <time>2019-06-09T07:31:16Z</time>
      </trkpt>
      <trkpt lat="46.59239" lon="5.97797">
        <ele>838.46</ele>
        <time>2019-06-09T07:31:32Z</time>
      </trkpt>
      <trkpt lat="46.59262" lon="5.97816">
        <ele>839.48</ele>
        <time>2019-06-09T07:31:52Z</time>
      </trkpt>
      <trkpt lat="46.59265" lon="5.97834">
        <ele>841.99</ele>
        <time>2019-06-09T07:32:06Z</time>
      </trkpt>
      <trkpt lat="46.59247" lon="5.97861">
        <ele>845.66</ele>
        <time>2019-06-09T07:32:27Z</time>
      </trkpt>
      <trkpt lat="46.59227" lon="5.97888">
        <ele>848.28</ele>
        <time>2019-06-09T07:32:47Z</time>
      </trkpt>
      <trkpt lat="46.59195" lon="5.97918">
        <ele>850.01</ele>
        <time>2019-06-09T07:33:14Z</time>
      </trkpt>
      <trkpt lat="46.59174" lon="5.97943">
        <ele>850.88</ele>
        <time>2019-06-09T07:33:34Z</time>
      </trkpt>
      <trkpt lat="46.5917" lon="5.97949">
        <ele>850.91</ele>
        <time>2019-06-09T07:33:38Z</time>
      </trkpt>
      <trkpt lat="46.59157" lon="5.97965">
        <ele>851.86</ele>
        <time>2019-06-09T07:33:51Z</time>
      </trkpt>
      <trkpt lat="46.59143" lon="5.97983">
        <ele>853.58</ele>
        <time>2019-06-09T07:34:04Z</time>
      </trkpt>
      <trkpt lat="46.59123" lon="5.97998">
        <ele>854.46</ele>
        <time>2019-06-09T07:34:19Z</time>
      </trkpt>
      <trkpt lat="46.59095" lon="5.98017">
        <ele>856.27</ele>
        <time>2019-06-09T07:34:39Z</time>
      </trkpt>
      <trkpt lat="46.59071" lon="5.98024">
        <ele>856.31</ele>
        <time>2019-06-09T07:34:54Z</time>
      </trkpt>
      <trkpt lat="46.59049" lon="5.9803">
        <ele>856.44</ele>
        <time>2019-06-09T07:35:09Z</time>
      </trkpt>
      <trkpt lat="46.59021" lon="5.98044">
        <ele>856.57</ele>
        <time>2019-06-09T07:35:28Z</time>
      </trkpt>
      <trkpt lat="46.58987" lon="5.98058">
        <ele>857.63</ele>
        <time>2019-06-09T07:35:52Z</time>
      </trkpt>
      <trkpt lat="46.58958" lon="5.98079">
        <ele>858.53</ele>
        <time>2019-06-09T07:36:15Z</time>
      </trkpt>
      <trkpt lat="46.5894" lon="5.98096">
        <ele>859.4</ele>
        <time>2019-06-09T07:36:31Z</time>
      </trkpt>
      <trkpt lat="46.58919" lon="5.98114">
        <ele>859.55</ele>
        <time>2019-06-09T07:36:49Z</time>
      </trkpt>
      <trkpt lat="46.58894" lon="5.98134">
        <ele>860.81</ele>
        <time>2019-06-09T07:37:09Z</time>
      </trkpt>
      <trkpt lat="46.58867" lon="5.98148">
        <ele>860.93</ele>
        <time>2019-06-09T07:37:30Z</time>
      </trkpt>
      <trkpt lat="46.58843" lon="5.98154">
        <ele>861.01</ele>
        <time>2019-06-09T07:37:48Z</time>
      </trkpt>
      <trkpt lat="46.58831" lon="5.98158">
        <ele>861.06</ele>
        <time>2019-06-09T07:37:57Z</time>
      </trkpt>
      <trkpt lat="46.5883" lon="5.98158">
        <ele>861.06</ele>
        <time>2019-06-09T07:37:58Z</time>
      </trkpt>
      <trkpt lat="46.58793" lon="5.98173">
        <ele>861.24</ele>
        <time>2019-06-09T07:38:23Z</time>
      </trkpt>
      <trkpt lat="46.58766" lon="5.98187">
        <ele>862.36</ele>
        <time>2019-06-09T07:38:42Z</time>
      </trkpt>
      <trkpt lat="46.58756" lon="5.98192">
        <ele>859.95</ele>
        <time>2019-06-09T07:38:50Z</time>
      </trkpt>
      <trkpt lat="46.58737" lon="5.98212">
        <ele>859.27</ele>
        <time>2019-06-09T07:39:07Z</time>
      </trkpt>
      <trkpt lat="46.5873" lon="5.98234">
        <ele>858.57</ele>
        <time>2019-06-09T07:39:19Z</time>
      </trkpt>
      <trkpt lat="46.5873" lon="5.98236">
        <ele>858.57</ele>
        <time>2019-06-09T07:39:20Z</time>
      </trkpt>
      <trkpt lat="46.58729" lon="5.98238">
        <ele>858.58</ele>
        <time>2019-06-09T07:39:21Z</time>
      </trkpt>
      <trkpt lat="46.58729" lon="5.9824">
        <ele>858.58</ele>
        <time>2019-06-09T07:39:22Z</time>
      </trkpt>
      <trkpt lat="46.58728" lon="5.98243">
        <ele>858.58</ele>
        <time>2019-06-09T07:39:23Z</time>
      </trkpt>
      <trkpt lat="46.58728" lon="5.98244">
        <ele>857.6</ele>
        <time>2019-06-09T07:39:24Z</time>
      </trkpt>
      <trkpt lat="46.58728" lon="5.98246">
        <ele>857.6</ele>
        <time>2019-06-09T07:39:25Z</time>
      </trkpt>
      <trkpt lat="46.58709" lon="5.98268">
        <ele>856.07</ele>
        <time>2019-06-09T07:39:42Z</time>
      </trkpt>
      <trkpt lat="46.5868" lon="5.98275">
        <ele>855.29</ele>
        <time>2019-06-09T07:40:02Z</time>
      </trkpt>
      <trkpt lat="46.58653" lon="5.98287">
        <ele>854.64</ele>
        <time>2019-06-09T07:40:22Z</time>
      </trkpt>
      <trkpt lat="46.58626" lon="5.98285">
        <ele>854.7</ele>
        <time>2019-06-09T07:40:40Z</time>
      </trkpt>
      <trkpt lat="46.58594" lon="5.98277">
        <ele>853.79</ele>
        <time>2019-06-09T07:41:03Z</time>
      </trkpt>
      <trkpt lat="46.58568" lon="5.98256">
        <ele>853.88</ele>
        <time>2019-06-09T07:41:26Z</time>
      </trkpt>
      <trkpt lat="46.58551" lon="5.98235">
        <ele>856.27</ele>
        <time>2019-06-09T07:41:42Z</time>
      </trkpt>
      <trkpt lat="46.58533" lon="5.98214">
        <ele>857.14</ele>
        <time>2019-06-09T07:41:59Z</time>
      </trkpt>
      <trkpt lat="46.58515" lon="5.9819">
        <ele>858.08</ele>
        <time>2019-06-09T07:42:19Z</time>
      </trkpt>
      <trkpt lat="46.58494" lon="5.98168">
        <ele>860.11</ele>
        <time>2019-06-09T07:42:38Z</time>
      </trkpt>
      <trkpt lat="46.58474" lon="5.98144">
        <ele>860.26</ele>
        <time>2019-06-09T07:43:00Z</time>
      </trkpt>
      <trkpt lat="46.58472" lon="5.98145">
        <ele>860.27</ele>
        <time>2019-06-09T07:43:03Z</time>
      </trkpt>
      <trkpt lat="46.58462" lon="5.98156">
        <ele>860.34</ele>
        <time>2019-06-09T07:43:13Z</time>
      </trkpt>
      <trkpt lat="46.58464" lon="5.98168">
        <ele>861.19</ele>
        <time>2019-06-09T07:43:19Z</time>
      </trkpt>
      <trkpt lat="46.58484" lon="5.9819">
        <ele>861.25</ele>
        <time>2019-06-09T07:43:36Z</time>
      </trkpt>
      <trkpt lat="46.58505" lon="5.98211">
        <ele>861.36</ele>
        <time>2019-06-09T07:43:53Z</time>
      </trkpt>
      <trkpt lat="46.5852" lon="5.98229">
        <ele>861.46</ele>
        <time>2019-06-09T07:44:05Z</time>
      </trkpt>
      <trkpt lat="46.58526" lon="5.98253">
        <ele>861.59</ele>
        <time>2019-06-09T07:44:19Z</time>
      </trkpt>
      <trkpt lat="46.58529" lon="5.98278">
        <ele>859.38</ele>
        <time>2019-06-09T07:44:31Z</time>
      </trkpt>
      <trkpt lat="46.58525" lon="5.98301">
        <ele>859.5</ele>
        <time>2019-06-09T07:44:43Z</time>
      </trkpt>
      <trkpt lat="46.5852" lon="5.98318">
        <ele>858.64</ele>
        <time>2019-06-09T07:44:53Z</time>
      </trkpt>
      <trkpt lat="46.58519" lon="5.9832">
        <ele>857.52</ele>
        <time>2019-06-09T07:44:55Z</time>
      </trkpt>
      <trkpt lat="46.58509" lon="5.9834">
        <ele>857.63</ele>
        <time>2019-06-09T07:45:09Z</time>
      </trkpt>
      <trkpt lat="46.585" lon="5.98363">
        <ele>857.68</ele>
        <time>2019-06-09T07:45:24Z</time>
      </trkpt>
      <trkpt lat="46.58494" lon="5.98389">
        <ele>857.66</ele>
        <time>2019-06-09T07:45:40Z</time>
      </trkpt>
      <trkpt lat="46.58488" lon="5.98419">
        <ele>857.6</ele>
        <time>2019-06-09T07:45:54Z</time>
      </trkpt>
      <trkpt lat="46.5849" lon="5.98452">
        <ele>857.51</ele>
        <time>2019-06-09T07:46:10Z</time>
      </trkpt>
      <trkpt lat="46.58492" lon="5.9847">
        <ele>859.92</ele>
        <time>2019-06-09T07:46:17Z</time>
      </trkpt>
      <trkpt lat="46.58503" lon="5.98516">
        <ele>857.91</ele>
        <time>2019-06-09T07:46:38Z</time>
      </trkpt>
      <trkpt lat="46.58504" lon="5.98518">
        <ele>861.07</ele>
        <time>2019-06-09T07:46:39Z</time>
      </trkpt>
      <trkpt lat="46.58514" lon="5.98538">
        <ele>861.13</ele>
        <time>2019-06-09T07:46:50Z</time>
      </trkpt>
      <trkpt lat="46.58515" lon="5.98539">
        <ele>861.15</ele>
        <time>2019-06-09T07:46:51Z</time>
      </trkpt>
      <trkpt lat="46.58516" lon="5.98541">
        <ele>861.16</ele>
        <time>2019-06-09T07:46:52Z</time>
      </trkpt>
      <trkpt lat="46.58526" lon="5.98556">
        <ele>862.02</ele>
        <time>2019-06-09T07:47:01Z</time>
      </trkpt>
      <trkpt lat="46.58527" lon="5.98557">
        <ele>862.02</ele>
        <time>2019-06-09T07:47:02Z</time>
      </trkpt>
      <trkpt lat="46.58528" lon="5.98557">
        <ele>862.03</ele>
        <time>2019-06-09T07:47:03Z</time>
      </trkpt>
      <trkpt lat="46.58529" lon="5.98558">
        <ele>862.03</ele>
        <time>2019-06-09T07:47:04Z</time>
      </trkpt>
      <trkpt lat="46.58531" lon="5.98559">
        <ele>862.04</ele>
        <time>2019-06-09T07:47:05Z</time>
      </trkpt>
      <trkpt lat="46.58536" lon="5.98563">
        <ele>862.06</ele>
        <time>2019-06-09T07:47:09Z</time>
      </trkpt>
      <trkpt lat="46.58537" lon="5.98563">
        <ele>862.07</ele>
        <time>2019-06-09T07:47:10Z</time>
      </trkpt>
      <trkpt lat="46.58538" lon="5.98564">
        <ele>862.08</ele>
        <time>2019-06-09T07:47:11Z</time>
      </trkpt>
      <trkpt lat="46.58546" lon="5.98573">
        <ele>863</ele>
        <time>2019-06-09T07:47:24Z</time>
      </trkpt>
      <trkpt lat="46.5856" lon="5.98579">
        <ele>863.03</ele>
        <time>2019-06-09T07:47:33Z</time>
      </trkpt>
      <trkpt lat="46.58562" lon="5.9858">
        <ele>863.03</ele>
        <time>2019-06-09T07:47:34Z</time>
      </trkpt>
      <trkpt lat="46.58579" lon="5.98584">
        <ele>863.96</ele>
        <time>2019-06-09T07:47:46Z</time>
      </trkpt>
      <trkpt lat="46.58598" lon="5.98587">
        <ele>865.74</ele>
        <time>2019-06-09T07:48:01Z</time>
      </trkpt>
      <trkpt lat="46.5862" lon="5.98594">
        <ele>866.64</ele>
        <time>2019-06-09T07:48:17Z</time>
      </trkpt>
      <trkpt lat="46.58626" lon="5.98597">
        <ele>867.52</ele>
        <time>2019-06-09T07:48:31Z</time>
      </trkpt>
      <trkpt lat="46.58629" lon="5.98596">
        <ele>867.7</ele>
        <time>2019-06-09T07:48:53Z</time>
      </trkpt>
      <trkpt lat="46.58629" lon="5.98593">
        <ele>867.95</ele>
        <time>2019-06-09T07:49:26Z</time>
      </trkpt>
      <trkpt lat="46.5863" lon="5.98593">
        <ele>868.22</ele>
        <time>2019-06-09T07:50:00Z</time>
      </trkpt>
      <trkpt lat="46.58629" lon="5.98593">
        <ele>868.47</ele>
        <time>2019-06-09T07:50:33Z</time>
      </trkpt>
      <trkpt lat="46.5863" lon="5.98593">
        <ele>868.68</ele>
        <time>2019-06-09T07:51:02Z</time>
      </trkpt>
      <trkpt lat="46.5863" lon="5.98592">
        <ele>868.87</ele>
        <time>2019-06-09T07:51:30Z</time>
      </trkpt>
      <trkpt lat="46.58632" lon="5.98588">
        <ele>868.99</ele>
        <time>2019-06-09T07:51:49Z</time>
      </trkpt>
      <trkpt lat="46.58634" lon="5.98593">
        <ele>869.21</ele>
        <time>2019-06-09T07:52:25Z</time>
      </trkpt>
      <trkpt lat="46.58634" lon="5.98591">
        <ele>869.33</ele>
        <time>2019-06-09T07:52:44Z</time>
      </trkpt>
      <trkpt lat="46.58651" lon="5.9859">
        <ele>869.4</ele>
        <time>2019-06-09T07:52:57Z</time>
      </trkpt>
      <trkpt lat="46.58659" lon="5.98594">
        <ele>869.43</ele>
        <time>2019-06-09T07:53:01Z</time>
      </trkpt>
      <trkpt lat="46.58651" lon="5.98605">
        <ele>871.61</ele>
        <time>2019-06-09T07:53:12Z</time>
      </trkpt>
      <trkpt lat="46.5865" lon="5.98609">
        <ele>872.31</ele>
        <time>2019-06-09T07:53:16Z</time>
      </trkpt>
      <trkpt lat="46.58644" lon="5.98629">
        <ele>875.14</ele>
        <time>2019-06-09T07:53:29Z</time>
      </trkpt>
      <trkpt lat="46.58639" lon="5.98646">
        <ele>877.04</ele>
        <time>2019-06-09T07:53:42Z</time>
      </trkpt>
      <trkpt lat="46.58635" lon="5.98663">
        <ele>880.48</ele>
        <time>2019-06-09T07:53:58Z</time>
      </trkpt>
      <trkpt lat="46.58628" lon="5.98682">
        <ele>883.66</ele>
        <time>2019-06-09T07:54:14Z</time>
      </trkpt>
      <trkpt lat="46.58619" lon="5.98693">
        <ele>886.99</ele>
        <time>2019-06-09T07:54:30Z</time>
      </trkpt>
      <trkpt lat="46.58612" lon="5.9871">
        <ele>889.79</ele>
        <time>2019-06-09T07:54:47Z</time>
      </trkpt>
      <trkpt lat="46.58601" lon="5.98722">
        <ele>893.23</ele>
        <time>2019-06-09T07:55:02Z</time>
      </trkpt>
      <trkpt lat="46.58596" lon="5.98739">
        <ele>896.59</ele>
        <time>2019-06-09T07:55:20Z</time>
      </trkpt>
      <trkpt lat="46.58593" lon="5.9875">
        <ele>899.63</ele>
        <time>2019-06-09T07:55:32Z</time>
      </trkpt>
      <trkpt lat="46.58583" lon="5.98759">
        <ele>903.25</ele>
        <time>2019-06-09T07:55:48Z</time>
      </trkpt>
      <trkpt lat="46.58577" lon="5.9876">
        <ele>905.34</ele>
        <time>2019-06-09T07:55:58Z</time>
      </trkpt>
      <trkpt lat="46.58569" lon="5.98768">
        <ele>908.57</ele>
        <time>2019-06-09T07:56:17Z</time>
      </trkpt>
      <trkpt lat="46.58566" lon="5.98777">
        <ele>911.88</ele>
        <time>2019-06-09T07:56:31Z</time>
      </trkpt>
      <trkpt lat="46.58565" lon="5.98789">
        <ele>913.96</ele>
        <time>2019-06-09T07:56:49Z</time>
      </trkpt>
      <trkpt lat="46.58567" lon="5.98792">
        <ele>916.69</ele>
        <time>2019-06-09T07:57:07Z</time>
      </trkpt>
      <trkpt lat="46.58567" lon="5.98805">
        <ele>920.03</ele>
        <time>2019-06-09T07:57:21Z</time>
      </trkpt>
      <trkpt lat="46.58566" lon="5.98828">
        <ele>922.57</ele>
        <time>2019-06-09T07:57:37Z</time>
      </trkpt>
      <trkpt lat="46.58559" lon="5.98846">
        <ele>924.11</ele>
        <time>2019-06-09T07:57:53Z</time>
      </trkpt>
      <trkpt lat="46.58555" lon="5.98859">
        <ele>927.48</ele>
        <time>2019-06-09T07:58:08Z</time>
      </trkpt>
      <trkpt lat="46.58549" lon="5.98876">
        <ele>929.81</ele>
        <time>2019-06-09T07:58:27Z</time>
      </trkpt>
      <trkpt lat="46.5854" lon="5.98885">
        <ele>931.21</ele>
        <time>2019-06-09T07:58:43Z</time>
      </trkpt>
      <trkpt lat="46.58536" lon="5.98889">
        <ele>932.1</ele>
        <time>2019-06-09T07:58:49Z</time>
      </trkpt>
      <trkpt lat="46.58521" lon="5.98905">
        <ele>934.4</ele>
        <time>2019-06-09T07:59:07Z</time>
      </trkpt>
      <trkpt lat="46.58503" lon="5.9892">
        <ele>935.94</ele>
        <time>2019-06-09T07:59:24Z</time>
      </trkpt>
      <trkpt lat="46.58489" lon="5.98939">
        <ele>936.69</ele>
        <time>2019-06-09T07:59:42Z</time>
      </trkpt>
      <trkpt lat="46.5848" lon="5.98955">
        <ele>937.38</ele>
        <time>2019-06-09T07:59:57Z</time>
      </trkpt>
      <trkpt lat="46.58478" lon="5.98957">
        <ele>937.37</ele>
        <time>2019-06-09T07:59:59Z</time>
      </trkpt>
      <trkpt lat="46.58466" lon="5.98973">
        <ele>939.04</ele>
        <time>2019-06-09T08:00:12Z</time>
      </trkpt>
      <trkpt lat="46.58456" lon="5.98989">
        <ele>940.71</ele>
        <time>2019-06-09T08:00:24Z</time>
      </trkpt>
      <trkpt lat="46.58448" lon="5.99">
        <ele>940.66</ele>
        <time>2019-06-09T08:00:36Z</time>
      </trkpt>
      <trkpt lat="46.58434" lon="5.9902">
        <ele>942.26</ele>
        <time>2019-06-09T08:00:52Z</time>
      </trkpt>
      <trkpt lat="46.58431" lon="5.99033">
        <ele>943.32</ele>
        <time>2019-06-09T08:01:04Z</time>
      </trkpt>
      <trkpt lat="46.58439" lon="5.99048">
        <ele>946.61</ele>
        <time>2019-06-09T08:01:21Z</time>
      </trkpt>
      <trkpt lat="46.58448" lon="5.99067">
        <ele>948.17</ele>
        <time>2019-06-09T08:01:36Z</time>
      </trkpt>
      <trkpt lat="46.58455" lon="5.99079">
        <ele>949.21</ele>
        <time>2019-06-09T08:01:46Z</time>
      </trkpt>
      <trkpt lat="46.5846" lon="5.99101">
        <ele>952.4</ele>
        <time>2019-06-09T08:01:58Z</time>
      </trkpt>
      <trkpt lat="46.58462" lon="5.9911">
        <ele>945.46</ele>
        <time>2019-06-09T08:02:05Z</time>
      </trkpt>
      <trkpt lat="46.58462" lon="5.99111">
        <ele>954.21</ele>
        <time>2019-06-09T08:02:06Z</time>
      </trkpt>
      <trkpt lat="46.58462" lon="5.99114">
        <ele>955.93</ele>
        <time>2019-06-09T08:02:08Z</time>
      </trkpt>
      <trkpt lat="46.58461" lon="5.99121">
        <ele>953.67</ele>
        <time>2019-06-09T08:02:13Z</time>
      </trkpt>
      <trkpt lat="46.58462" lon="5.99134">
        <ele>956.22</ele>
        <time>2019-06-09T08:02:22Z</time>
      </trkpt>
      <trkpt lat="46.58471" lon="5.99165">
        <ele>958.77</ele>
        <time>2019-06-09T08:02:44Z</time>
      </trkpt>
      <trkpt lat="46.58476" lon="5.99179">
        <ele>960.32</ele>
        <time>2019-06-09T08:02:52Z</time>
      </trkpt>
      <trkpt lat="46.58476" lon="5.99201">
        <ele>963.33</ele>
        <time>2019-06-09T08:03:07Z</time>
      </trkpt>
      <trkpt lat="46.58482" lon="5.99218">
        <ele>964.89</ele>
        <time>2019-06-09T08:03:22Z</time>
      </trkpt>
      <trkpt lat="46.58493" lon="5.99233">
        <ele>966.48</ele>
        <time>2019-06-09T08:03:34Z</time>
      </trkpt>
      <trkpt lat="46.58504" lon="5.99253">
        <ele>967.1</ele>
        <time>2019-06-09T08:03:49Z</time>
      </trkpt>
      <trkpt lat="46.5851" lon="5.99283">
        <ele>969.43</ele>
        <time>2019-06-09T08:04:07Z</time>
      </trkpt>
      <trkpt lat="46.5851" lon="5.99292">
        <ele>971.6</ele>
        <time>2019-06-09T08:04:25Z</time>
      </trkpt>
      <trkpt lat="46.58506" lon="5.99318">
        <ele>973.99</ele>
        <time>2019-06-09T08:04:43Z</time>
      </trkpt>
      <trkpt lat="46.58505" lon="5.9932">
        <ele>973.97</ele>
        <time>2019-06-09T08:04:45Z</time>
      </trkpt>
      <trkpt lat="46.58502" lon="5.99328">
        <ele>973.89</ele>
        <time>2019-06-09T08:04:49Z</time>
      </trkpt>
      <trkpt lat="46.58495" lon="5.99341">
        <ele>974.53</ele>
        <time>2019-06-09T08:04:58Z</time>
      </trkpt>
      <trkpt lat="46.58487" lon="5.99358">
        <ele>976.11</ele>
        <time>2019-06-09T08:05:13Z</time>
      </trkpt>
      <trkpt lat="46.58469" lon="5.99375">
        <ele>979.43</ele>
        <time>2019-06-09T08:05:31Z</time>
      </trkpt>
      <trkpt lat="46.58457" lon="5.99396">
        <ele>980.71</ele>
        <time>2019-06-09T08:05:46Z</time>
      </trkpt>
      <trkpt lat="46.58453" lon="5.99402">
        <ele>981.31</ele>
        <time>2019-06-09T08:06:09Z</time>
      </trkpt>
      <trkpt lat="46.58448" lon="5.9941">
        <ele>980.98</ele>
        <time>2019-06-09T08:06:39Z</time>
      </trkpt>
      <trkpt lat="46.58442" lon="5.99416">
        <ele>982.44</ele>
        <time>2019-06-09T08:07:01Z</time>
      </trkpt>
      <trkpt lat="46.5844" lon="5.99419">
        <ele>982.43</ele>
        <time>2019-06-09T08:07:04Z</time>
      </trkpt>
      <trkpt lat="46.58436" lon="5.99434">
        <ele>985.07</ele>
        <time>2019-06-09T08:07:18Z</time>
      </trkpt>
      <trkpt lat="46.58431" lon="5.99454">
        <ele>988.76</ele>
        <time>2019-06-09T08:07:33Z</time>
      </trkpt>
      <trkpt lat="46.58429" lon="5.9946">
        <ele>989.61</ele>
        <time>2019-06-09T08:07:37Z</time>
      </trkpt>
      <trkpt lat="46.58428" lon="5.99466">
        <ele>989.58</ele>
        <time>2019-06-09T08:07:41Z</time>
      </trkpt>
      <trkpt lat="46.58424" lon="5.99476">
        <ele>991.17</ele>
        <time>2019-06-09T08:07:48Z</time>
      </trkpt>
      <trkpt lat="46.58422" lon="5.99479">
        <ele>992.02</ele>
        <time>2019-06-09T08:07:51Z</time>
      </trkpt>
      <trkpt lat="46.58414" lon="5.99499">
        <ele>992.64</ele>
        <time>2019-06-09T08:08:04Z</time>
      </trkpt>
      <trkpt lat="46.58408" lon="5.99511">
        <ele>994.37</ele>
        <time>2019-06-09T08:08:13Z</time>
      </trkpt>
      <trkpt lat="46.58406" lon="5.99517">
        <ele>995.21</ele>
        <time>2019-06-09T08:08:16Z</time>
      </trkpt>
      <trkpt lat="46.58402" lon="5.99527">
        <ele>996.28</ele>
        <time>2019-06-09T08:08:25Z</time>
      </trkpt>
      <trkpt lat="46.58394" lon="5.99549">
        <ele>999.74</ele>
        <time>2019-06-09T08:08:39Z</time>
      </trkpt>
      <trkpt lat="46.58392" lon="5.99556">
        <ele>1000.51</ele>
        <time>2019-06-09T08:08:46Z</time>
      </trkpt>
      <trkpt lat="46.58393" lon="5.99564">
        <ele>1000.44</ele>
        <time>2019-06-09T08:08:52Z</time>
      </trkpt>
      <trkpt lat="46.58392" lon="5.99583">
        <ele>1002.17</ele>
        <time>2019-06-09T08:09:04Z</time>
      </trkpt>
      <trkpt lat="46.58395" lon="5.99591">
        <ele>1002.9</ele>
        <time>2019-06-09T08:09:08Z</time>
      </trkpt>
      <trkpt lat="46.58389" lon="5.99613">
        <ele>1004.48</ele>
        <time>2019-06-09T08:09:21Z</time>
      </trkpt>
      <trkpt lat="46.58386" lon="5.99622">
        <ele>1004.46</ele>
        <time>2019-06-09T08:09:25Z</time>
      </trkpt>
      <trkpt lat="46.58375" lon="5.99649">
        <ele>1006.08</ele>
        <time>2019-06-09T08:09:42Z</time>
      </trkpt>
      <trkpt lat="46.58372" lon="5.99658">
        <ele>1007.07</ele>
        <time>2019-06-09T08:09:47Z</time>
      </trkpt>
      <trkpt lat="46.5837" lon="5.99677">
        <ele>1007.84</ele>
        <time>2019-06-09T08:09:56Z</time>
      </trkpt>
      <trkpt lat="46.58371" lon="5.99689">
        <ele>1008.64</ele>
        <time>2019-06-09T08:10:01Z</time>
      </trkpt>
      <trkpt lat="46.5837" lon="5.99704">
        <ele>1010.36</ele>
        <time>2019-06-09T08:10:10Z</time>
      </trkpt>
      <trkpt lat="46.58375" lon="5.99733">
        <ele>1013</ele>
        <time>2019-06-09T08:10:24Z</time>
      </trkpt>
      <trkpt lat="46.58378" lon="5.99747">
        <ele>1015.76</ele>
        <time>2019-06-09T08:10:33Z</time>
      </trkpt>
      <trkpt lat="46.5838" lon="5.99752">
        <ele>1016.49</ele>
        <time>2019-06-09T08:10:38Z</time>
      </trkpt>
      <trkpt lat="46.58381" lon="5.9976">
        <ele>1017.23</ele>
        <time>2019-06-09T08:10:42Z</time>
      </trkpt>
      <trkpt lat="46.58383" lon="5.99764">
        <ele>1017.21</ele>
        <time>2019-06-09T08:10:44Z</time>
      </trkpt>
      <trkpt lat="46.58384" lon="5.99767">
        <ele>1017.19</ele>
        <time>2019-06-09T08:10:45Z</time>
      </trkpt>
      <trkpt lat="46.58385" lon="5.9977">
        <ele>1017.96</ele>
        <time>2019-06-09T08:10:46Z</time>
      </trkpt>
      <trkpt lat="46.58386" lon="5.99773">
        <ele>1017.94</ele>
        <time>2019-06-09T08:10:47Z</time>
      </trkpt>
      <trkpt lat="46.58386" lon="5.99777">
        <ele>1017.92</ele>
        <time>2019-06-09T08:10:48Z</time>
      </trkpt>
      <trkpt lat="46.58386" lon="5.9978">
        <ele>1017.91</ele>
        <time>2019-06-09T08:10:49Z</time>
      </trkpt>
      <trkpt lat="46.58389" lon="5.99792">
        <ele>1019.46</ele>
        <time>2019-06-09T08:10:58Z</time>
      </trkpt>
      <trkpt lat="46.58392" lon="5.99804">
        <ele>1020.23</ele>
        <time>2019-06-09T08:11:04Z</time>
      </trkpt>
      <trkpt lat="46.58393" lon="5.99806">
        <ele>1020.19</ele>
        <time>2019-06-09T08:11:05Z</time>
      </trkpt>
      <trkpt lat="46.58393" lon="5.99809">
        <ele>1020.18</ele>
        <time>2019-06-09T08:11:06Z</time>
      </trkpt>
      <trkpt lat="46.58393" lon="5.99812">
        <ele>1020.17</ele>
        <time>2019-06-09T08:11:08Z</time>
      </trkpt>
      <trkpt lat="46.58396" lon="5.99826">
        <ele>1020.95</ele>
        <time>2019-06-09T08:11:15Z</time>
      </trkpt>
      <trkpt lat="46.58396" lon="5.99832">
        <ele>1020.89</ele>
        <time>2019-06-09T08:11:18Z</time>
      </trkpt>
      <trkpt lat="46.58396" lon="5.99834">
        <ele>1020.87</ele>
        <time>2019-06-09T08:11:19Z</time>
      </trkpt>
      <trkpt lat="46.58396" lon="5.99836">
        <ele>1020.84</ele>
        <time>2019-06-09T08:11:20Z</time>
      </trkpt>
      <trkpt lat="46.58394" lon="5.99864">
        <ele>1020.6</ele>
        <time>2019-06-09T08:11:31Z</time>
      </trkpt>
      <trkpt lat="46.58392" lon="5.99872">
        <ele>1020.54</ele>
        <time>2019-06-09T08:11:35Z</time>
      </trkpt>
      <trkpt lat="46.58392" lon="5.99874">
        <ele>1020.54</ele>
        <time>2019-06-09T08:11:36Z</time>
      </trkpt>
      <trkpt lat="46.58391" lon="5.99876">
        <ele>1020.52</ele>
        <time>2019-06-09T08:11:37Z</time>
      </trkpt>
      <trkpt lat="46.58391" lon="5.99878">
        <ele>1020.51</ele>
        <time>2019-06-09T08:11:38Z</time>
      </trkpt>
      <trkpt lat="46.58391" lon="5.9988">
        <ele>1020.5</ele>
        <time>2019-06-09T08:11:39Z</time>
      </trkpt>
      <trkpt lat="46.58391" lon="5.99882">
        <ele>1020.49</ele>
        <time>2019-06-09T08:11:40Z</time>
      </trkpt>
      <trkpt lat="46.58391" lon="5.99883">
        <ele>1020.47</ele>
        <time>2019-06-09T08:11:41Z</time>
      </trkpt>
      <trkpt lat="46.5839" lon="5.99885">
        <ele>1020.46</ele>
        <time>2019-06-09T08:11:42Z</time>
      </trkpt>
      <trkpt lat="46.58387" lon="5.99896">
        <ele>1020.36</ele>
        <time>2019-06-09T08:11:49Z</time>
      </trkpt>
      <trkpt lat="46.58387" lon="5.99899">
        <ele>1020.32</ele>
        <time>2019-06-09T08:11:51Z</time>
      </trkpt>
      <trkpt lat="46.58382" lon="5.99916">
        <ele>1020.11</ele>
        <time>2019-06-09T08:12:03Z</time>
      </trkpt>
      <trkpt lat="46.58381" lon="5.99917">
        <ele>1020.08</ele>
        <time>2019-06-09T08:12:04Z</time>
      </trkpt>
      <trkpt lat="46.58381" lon="5.99923">
        <ele>1019.97</ele>
        <time>2019-06-09T08:12:07Z</time>
      </trkpt>
      <trkpt lat="46.58381" lon="5.99925">
        <ele>1019.95</ele>
        <time>2019-06-09T08:12:08Z</time>
      </trkpt>
      <trkpt lat="46.58381" lon="5.99927">
        <ele>1019.94</ele>
        <time>2019-06-09T08:12:09Z</time>
      </trkpt>
      <trkpt lat="46.5838" lon="5.99929">
        <ele>1019.91</ele>
        <time>2019-06-09T08:12:10Z</time>
      </trkpt>
      <trkpt lat="46.5838" lon="5.99931">
        <ele>1019.9</ele>
        <time>2019-06-09T08:12:11Z</time>
      </trkpt>
      <trkpt lat="46.5838" lon="5.99933">
        <ele>1019.88</ele>
        <time>2019-06-09T08:12:12Z</time>
      </trkpt>
      <trkpt lat="46.58379" lon="5.99936">
        <ele>1019.86</ele>
        <time>2019-06-09T08:12:13Z</time>
      </trkpt>
      <trkpt lat="46.58379" lon="5.99938">
        <ele>1019.84</ele>
        <time>2019-06-09T08:12:14Z</time>
      </trkpt>
      <trkpt lat="46.58379" lon="5.99941">
        <ele>1019.82</ele>
        <time>2019-06-09T08:12:15Z</time>
      </trkpt>
      <trkpt lat="46.58379" lon="5.99943">
        <ele>1019.8</ele>
        <time>2019-06-09T08:12:16Z</time>
      </trkpt>
      <trkpt lat="46.58379" lon="5.99945">
        <ele>1019.78</ele>
        <time>2019-06-09T08:12:17Z</time>
      </trkpt>
      <trkpt lat="46.5838" lon="5.99948">
        <ele>1019.76</ele>
        <time>2019-06-09T08:12:18Z</time>
      </trkpt>
      <trkpt lat="46.58381" lon="5.9995">
        <ele>1019.74</ele>
        <time>2019-06-09T08:12:19Z</time>
      </trkpt>
      <trkpt lat="46.58381" lon="5.99951">
        <ele>1019.73</ele>
        <time>2019-06-09T08:12:20Z</time>
      </trkpt>
      <trkpt lat="46.58382" lon="5.99953">
        <ele>1019.7</ele>
        <time>2019-06-09T08:12:21Z</time>
      </trkpt>
      <trkpt lat="46.5839" lon="5.99963">
        <ele>1019.48</ele>
        <time>2019-06-09T08:12:30Z</time>
      </trkpt>
      <trkpt lat="46.58403" lon="5.9998">
        <ele>1016.78</ele>
        <time>2019-06-09T08:12:41Z</time>
      </trkpt>
      <trkpt lat="46.58411" lon="5.99989">
        <ele>1016.67</ele>
        <time>2019-06-09T08:12:46Z</time>
      </trkpt>
      <trkpt lat="46.58415" lon="6.00009">
        <ele>1015.74</ele>
        <time>2019-06-09T08:12:59Z</time>
      </trkpt>
      <trkpt lat="46.58416" lon="6.00012">
        <ele>1015.73</ele>
        <time>2019-06-09T08:13:00Z</time>
      </trkpt>
      <trkpt lat="46.58417" lon="6.00016">
        <ele>1015.72</ele>
        <time>2019-06-09T08:13:01Z</time>
      </trkpt>
      <trkpt lat="46.58418" lon="6.00019">
        <ele>1015.71</ele>
        <time>2019-06-09T08:13:02Z</time>
      </trkpt>
      <trkpt lat="46.58419" lon="6.00023">
        <ele>1015.7</ele>
        <time>2019-06-09T08:13:03Z</time>
      </trkpt>
      <trkpt lat="46.58423" lon="6.00033">
        <ele>1015.66</ele>
        <time>2019-06-09T08:13:07Z</time>
      </trkpt>
      <trkpt lat="46.58423" lon="6.00035">
        <ele>1015.65</ele>
        <time>2019-06-09T08:13:08Z</time>
      </trkpt>
      <trkpt lat="46.58424" lon="6.00037">
        <ele>1015.64</ele>
        <time>2019-06-09T08:13:09Z</time>
      </trkpt>
      <trkpt lat="46.58424" lon="6.00038">
        <ele>1015.63</ele>
        <time>2019-06-09T08:13:10Z</time>
      </trkpt>
      <trkpt lat="46.58423" lon="6.00056">
        <ele>1015.42</ele>
        <time>2019-06-09T08:13:22Z</time>
      </trkpt>
      <trkpt lat="46.58423" lon="6.00071">
        <ele>1015.28</ele>
        <time>2019-06-09T08:13:30Z</time>
      </trkpt>
      <trkpt lat="46.58423" lon="6.00073">
        <ele>1017.59</ele>
        <time>2019-06-09T08:13:31Z</time>
      </trkpt>
      <trkpt lat="46.58422" lon="6.00075">
        <ele>1017.57</ele>
        <time>2019-06-09T08:13:32Z</time>
      </trkpt>
      <trkpt lat="46.58418" lon="6.00074">
        <ele>1017.51</ele>
        <time>2019-06-09T08:13:34Z</time>
      </trkpt>
      <trkpt lat="46.58418" lon="6.00076">
        <ele>1017.49</ele>
        <time>2019-06-09T08:13:35Z</time>
      </trkpt>
      <trkpt lat="46.58418" lon="6.00078">
        <ele>1017.47</ele>
        <time>2019-06-09T08:13:36Z</time>
      </trkpt>
      <trkpt lat="46.58418" lon="6.00083">
        <ele>1017.42</ele>
        <time>2019-06-09T08:13:39Z</time>
      </trkpt>
      <trkpt lat="46.58418" lon="6.00091">
        <ele>1018.32</ele>
        <time>2019-06-09T08:13:42Z</time>
      </trkpt>
      <trkpt lat="46.58422" lon="6.00105">
        <ele>1019.03</ele>
        <time>2019-06-09T08:13:53Z</time>
      </trkpt>
      <trkpt lat="46.58428" lon="6.0013">
        <ele>1018.7</ele>
        <time>2019-06-09T08:14:07Z</time>
      </trkpt>
      <trkpt lat="46.58427" lon="6.00133">
        <ele>1018.68</ele>
        <time>2019-06-09T08:14:08Z</time>
      </trkpt>
      <trkpt lat="46.58429" lon="6.00136">
        <ele>1018.64</ele>
        <time>2019-06-09T08:14:10Z</time>
      </trkpt>
      <trkpt lat="46.58429" lon="6.00138">
        <ele>1018.62</ele>
        <time>2019-06-09T08:14:11Z</time>
      </trkpt>
      <trkpt lat="46.5843" lon="6.0014">
        <ele>1018.6</ele>
        <time>2019-06-09T08:14:12Z</time>
      </trkpt>
      <trkpt lat="46.58431" lon="6.00145">
        <ele>1018.55</ele>
        <time>2019-06-09T08:14:14Z</time>
      </trkpt>
      <trkpt lat="46.58431" lon="6.00148">
        <ele>1018.53</ele>
        <time>2019-06-09T08:14:15Z</time>
      </trkpt>
      <trkpt lat="46.58437" lon="6.00176">
        <ele>1018.34</ele>
        <time>2019-06-09T08:14:27Z</time>
      </trkpt>
      <trkpt lat="46.58438" lon="6.00188">
        <ele>1018.28</ele>
        <time>2019-06-09T08:14:32Z</time>
      </trkpt>
      <trkpt lat="46.58437" lon="6.00191">
        <ele>1019.05</ele>
        <time>2019-06-09T08:14:33Z</time>
      </trkpt>
      <trkpt lat="46.58437" lon="6.00193">
        <ele>1019.03</ele>
        <time>2019-06-09T08:14:34Z</time>
      </trkpt>
      <trkpt lat="46.58438" lon="6.00194">
        <ele>1019</ele>
        <time>2019-06-09T08:14:35Z</time>
      </trkpt>
      <trkpt lat="46.58438" lon="6.00197">
        <ele>1018.98</ele>
        <time>2019-06-09T08:14:36Z</time>
      </trkpt>
      <trkpt lat="46.58438" lon="6.00199">
        <ele>1018.97</ele>
        <time>2019-06-09T08:14:37Z</time>
      </trkpt>
      <trkpt lat="46.58437" lon="6.002">
        <ele>1018.94</ele>
        <time>2019-06-09T08:14:38Z</time>
      </trkpt>
      <trkpt lat="46.58437" lon="6.00202">
        <ele>1018.91</ele>
        <time>2019-06-09T08:14:39Z</time>
      </trkpt>
      <trkpt lat="46.58433" lon="6.00217">
        <ele>1020.35</ele>
        <time>2019-06-09T08:14:50Z</time>
      </trkpt>
      <trkpt lat="46.5843" lon="6.00222">
        <ele>1020.28</ele>
        <time>2019-06-09T08:14:53Z</time>
      </trkpt>
      <trkpt lat="46.5843" lon="6.00225">
        <ele>1020.25</ele>
        <time>2019-06-09T08:14:54Z</time>
      </trkpt>
      <trkpt lat="46.58428" lon="6.00227">
        <ele>1020.22</ele>
        <time>2019-06-09T08:14:55Z</time>
      </trkpt>
      <trkpt lat="46.58427" lon="6.00228">
        <ele>1020.19</ele>
        <time>2019-06-09T08:14:56Z</time>
      </trkpt>
      <trkpt lat="46.58427" lon="6.0023">
        <ele>1020.17</ele>
        <time>2019-06-09T08:14:57Z</time>
      </trkpt>
      <trkpt lat="46.58426" lon="6.00232">
        <ele>1020.14</ele>
        <time>2019-06-09T08:14:58Z</time>
      </trkpt>
      <trkpt lat="46.58425" lon="6.00233">
        <ele>1020.11</ele>
        <time>2019-06-09T08:14:59Z</time>
      </trkpt>
      <trkpt lat="46.58424" lon="6.00235">
        <ele>1020.09</ele>
        <time>2019-06-09T08:15:00Z</time>
      </trkpt>
      <trkpt lat="46.58424" lon="6.00237">
        <ele>1020.06</ele>
        <time>2019-06-09T08:15:01Z</time>
      </trkpt>
      <trkpt lat="46.58423" lon="6.00238">
        <ele>1020.03</ele>
        <time>2019-06-09T08:15:02Z</time>
      </trkpt>
      <trkpt lat="46.58423" lon="6.0024">
        <ele>1020.01</ele>
        <time>2019-06-09T08:15:03Z</time>
      </trkpt>
      <trkpt lat="46.58423" lon="6.00242">
        <ele>1019.99</ele>
        <time>2019-06-09T08:15:04Z</time>
      </trkpt>
      <trkpt lat="46.58422" lon="6.00256">
        <ele>1020.65</ele>
        <time>2019-06-09T08:15:13Z</time>
      </trkpt>
      <trkpt lat="46.58421" lon="6.00261">
        <ele>1020.59</ele>
        <time>2019-06-09T08:15:16Z</time>
      </trkpt>
      <trkpt lat="46.58421" lon="6.00263">
        <ele>1020.57</ele>
        <time>2019-06-09T08:15:17Z</time>
      </trkpt>
      <trkpt lat="46.58419" lon="6.0027">
        <ele>1021.33</ele>
        <time>2019-06-09T08:15:22Z</time>
      </trkpt>
      <trkpt lat="46.58409" lon="6.00288">
        <ele>1020.95</ele>
        <time>2019-06-09T08:15:34Z</time>
      </trkpt>
      <trkpt lat="46.58407" lon="6.00309">
        <ele>1020.61</ele>
        <time>2019-06-09T08:15:47Z</time>
      </trkpt>
      <trkpt lat="46.58406" lon="6.00318">
        <ele>1021.38</ele>
        <time>2019-06-09T08:15:51Z</time>
      </trkpt>
      <trkpt lat="46.58406" lon="6.00324">
        <ele>1021.33</ele>
        <time>2019-06-09T08:15:53Z</time>
      </trkpt>
      <trkpt lat="46.58406" lon="6.00327">
        <ele>1021.31</ele>
        <time>2019-06-09T08:15:54Z</time>
      </trkpt>
      <trkpt lat="46.58406" lon="6.00329">
        <ele>1021.29</ele>
        <time>2019-06-09T08:15:55Z</time>
      </trkpt>
      <trkpt lat="46.58407" lon="6.00332">
        <ele>1021.26</ele>
        <time>2019-06-09T08:15:56Z</time>
      </trkpt>
      <trkpt lat="46.58407" lon="6.00334">
        <ele>1021.23</ele>
        <time>2019-06-09T08:15:57Z</time>
      </trkpt>
      <trkpt lat="46.58407" lon="6.00336">
        <ele>1021.21</ele>
        <time>2019-06-09T08:15:58Z</time>
      </trkpt>
      <trkpt lat="46.58407" lon="6.00339">
        <ele>1021.19</ele>
        <time>2019-06-09T08:15:59Z</time>
      </trkpt>
      <trkpt lat="46.58407" lon="6.00341">
        <ele>1021.99</ele>
        <time>2019-06-09T08:16:00Z</time>
      </trkpt>
      <trkpt lat="46.58407" lon="6.00344">
        <ele>1021.97</ele>
        <time>2019-06-09T08:16:01Z</time>
      </trkpt>
      <trkpt lat="46.58408" lon="6.00354">
        <ele>1021.87</ele>
        <time>2019-06-09T08:16:05Z</time>
      </trkpt>
      <trkpt lat="46.58409" lon="6.00355">
        <ele>1021.85</ele>
        <time>2019-06-09T08:16:06Z</time>
      </trkpt>
      <trkpt lat="46.58409" lon="6.00358">
        <ele>1021.82</ele>
        <time>2019-06-09T08:16:07Z</time>
      </trkpt>
      <trkpt lat="46.58409" lon="6.00359">
        <ele>1021.79</ele>
        <time>2019-06-09T08:16:08Z</time>
      </trkpt>
      <trkpt lat="46.58409" lon="6.00361">
        <ele>1021.77</ele>
        <time>2019-06-09T08:16:09Z</time>
      </trkpt>
      <trkpt lat="46.58409" lon="6.00363">
        <ele>1021.75</ele>
        <time>2019-06-09T08:16:10Z</time>
      </trkpt>
      <trkpt lat="46.58409" lon="6.00365">
        <ele>1021.71</ele>
        <time>2019-06-09T08:16:11Z</time>
      </trkpt>
      <trkpt lat="46.58408" lon="6.0037">
        <ele>1022.46</ele>
        <time>2019-06-09T08:16:16Z</time>
      </trkpt>
      <trkpt lat="46.58407" lon="6.00372">
        <ele>1022.43</ele>
        <time>2019-06-09T08:16:17Z</time>
      </trkpt>
      <trkpt lat="46.58405" lon="6.00374">
        <ele>1022.34</ele>
        <time>2019-06-09T08:16:20Z</time>
      </trkpt>
      <trkpt lat="46.58402" lon="6.00381">
        <ele>1023.21</ele>
        <time>2019-06-09T08:16:25Z</time>
      </trkpt>
      <trkpt lat="46.58403" lon="6.00387">
        <ele>1023.13</ele>
        <time>2019-06-09T08:16:28Z</time>
      </trkpt>
      <trkpt lat="46.58402" lon="6.00394">
        <ele>1022.99</ele>
        <time>2019-06-09T08:16:32Z</time>
      </trkpt>
      <trkpt lat="46.58403" lon="6.00422">
        <ele>1024.44</ele>
        <time>2019-06-09T08:16:44Z</time>
      </trkpt>
      <trkpt lat="46.58403" lon="6.00423">
        <ele>1024.41</ele>
        <time>2019-06-09T08:16:45Z</time>
      </trkpt>
      <trkpt lat="46.58401" lon="6.00445">
        <ele>1024.86</ele>
        <time>2019-06-09T08:16:58Z</time>
      </trkpt>
      <trkpt lat="46.58396" lon="6.0046">
        <ele>1024.59</ele>
        <time>2019-06-09T08:17:07Z</time>
      </trkpt>
      <trkpt lat="46.58393" lon="6.00478">
        <ele>1025.88</ele>
        <time>2019-06-09T08:17:18Z</time>
      </trkpt>
      <trkpt lat="46.58393" lon="6.00498">
        <ele>1026.42</ele>
        <time>2019-06-09T08:17:27Z</time>
      </trkpt>
      <trkpt lat="46.58397" lon="6.0051">
        <ele>1026.27</ele>
        <time>2019-06-09T08:17:32Z</time>
      </trkpt>
      <trkpt lat="46.58399" lon="6.00528">
        <ele>1026.64</ele>
        <time>2019-06-09T08:17:45Z</time>
      </trkpt>
      <trkpt lat="46.58402" lon="6.00557">
        <ele>1027.21</ele>
        <time>2019-06-09T08:18:00Z</time>
      </trkpt>
      <trkpt lat="46.584" lon="6.00578">
        <ele>1030.32</ele>
        <time>2019-06-09T08:18:15Z</time>
      </trkpt>
      <trkpt lat="46.58398" lon="6.00592">
        <ele>1030.98</ele>
        <time>2019-06-09T08:18:23Z</time>
      </trkpt>
      <trkpt lat="46.58398" lon="6.00598">
        <ele>1031.7</ele>
        <time>2019-06-09T08:18:26Z</time>
      </trkpt>
      <trkpt lat="46.58395" lon="6.00603">
        <ele>1032.33</ele>
        <time>2019-06-09T08:18:30Z</time>
      </trkpt>
      <trkpt lat="46.58393" lon="6.00615">
        <ele>1033.84</ele>
        <time>2019-06-09T08:18:39Z</time>
      </trkpt>
      <trkpt lat="46.58391" lon="6.00634">
        <ele>1035.18</ele>
        <time>2019-06-09T08:18:51Z</time>
      </trkpt>
      <trkpt lat="46.58392" lon="6.00651">
        <ele>1035.58</ele>
        <time>2019-06-09T08:18:59Z</time>
      </trkpt>
      <trkpt lat="46.58389" lon="6.00664">
        <ele>1035.28</ele>
        <time>2019-06-09T08:19:06Z</time>
      </trkpt>
      <trkpt lat="46.58386" lon="6.0068">
        <ele>1035.77</ele>
        <time>2019-06-09T08:19:15Z</time>
      </trkpt>
      <trkpt lat="46.58385" lon="6.007">
        <ele>1035.26</ele>
        <time>2019-06-09T08:19:27Z</time>
      </trkpt>
      <trkpt lat="46.5838" lon="6.00713">
        <ele>1034.89</ele>
        <time>2019-06-09T08:19:36Z</time>
      </trkpt>
      <trkpt lat="46.58378" lon="6.00713">
        <ele>1034.82</ele>
        <time>2019-06-09T08:19:38Z</time>
      </trkpt>
      <trkpt lat="46.58368" lon="6.00726">
        <ele>1034.41</ele>
        <time>2019-06-09T08:19:50Z</time>
      </trkpt>
      <trkpt lat="46.58358" lon="6.00744">
        <ele>1033.93</ele>
        <time>2019-06-09T08:20:04Z</time>
      </trkpt>
      <trkpt lat="46.58352" lon="6.0076">
        <ele>1033.28</ele>
        <time>2019-06-09T08:20:22Z</time>
      </trkpt>
      <trkpt lat="46.58353" lon="6.00751">
        <ele>1032.43</ele>
        <time>2019-06-09T08:20:46Z</time>
      </trkpt>
      <trkpt lat="46.58355" lon="6.00753">
        <ele>1031.35</ele>
        <time>2019-06-09T08:21:17Z</time>
      </trkpt>
      <trkpt lat="46.58359" lon="6.00754">
        <ele>1030.39</ele>
        <time>2019-06-09T08:21:48Z</time>
      </trkpt>
      <trkpt lat="46.58356" lon="6.00753">
        <ele>1029.84</ele>
        <time>2019-06-09T08:22:07Z</time>
      </trkpt>
      <trkpt lat="46.58347" lon="6.00753">
        <ele>1028.98</ele>
        <time>2019-06-09T08:22:39Z</time>
      </trkpt>
      <trkpt lat="46.58344" lon="6.00758">
        <ele>1028.88</ele>
        <time>2019-06-09T08:22:43Z</time>
      </trkpt>
      <trkpt lat="46.58341" lon="6.0077">
        <ele>1028.72</ele>
        <time>2019-06-09T08:22:50Z</time>
      </trkpt>
      <trkpt lat="46.58345" lon="6.00795">
        <ele>1028.39</ele>
        <time>2019-06-09T08:23:05Z</time>
      </trkpt>
      <trkpt lat="46.58348" lon="6.00824">
        <ele>1027.99</ele>
        <time>2019-06-09T08:23:23Z</time>
      </trkpt>
      <trkpt lat="46.5835" lon="6.00845">
        <ele>1027.83</ele>
        <time>2019-06-09T08:23:31Z</time>
      </trkpt>
      <trkpt lat="46.58357" lon="6.00865">
        <ele>1028.54</ele>
        <time>2019-06-09T08:23:42Z</time>
      </trkpt>
      <trkpt lat="46.58365" lon="6.00882">
        <ele>1028.26</ele>
        <time>2019-06-09T08:23:54Z</time>
      </trkpt>
      <trkpt lat="46.58374" lon="6.00888">
        <ele>1025.72</ele>
        <time>2019-06-09T08:24:02Z</time>
      </trkpt>
      <trkpt lat="46.58377" lon="6.00893">
        <ele>1024.65</ele>
        <time>2019-06-09T08:24:08Z</time>
      </trkpt>
      <trkpt lat="46.58379" lon="6.009">
        <ele>1024.59</ele>
        <time>2019-06-09T08:24:12Z</time>
      </trkpt>
      <trkpt lat="46.58383" lon="6.00916">
        <ele>1024.43</ele>
        <time>2019-06-09T08:24:22Z</time>
      </trkpt>
      <trkpt lat="46.58384" lon="6.00929">
        <ele>1024.35</ele>
        <time>2019-06-09T08:24:27Z</time>
      </trkpt>
      <trkpt lat="46.58384" lon="6.00936">
        <ele>1024.29</ele>
        <time>2019-06-09T08:24:30Z</time>
      </trkpt>
      <trkpt lat="46.5838" lon="6.00957">
        <ele>1023.24</ele>
        <time>2019-06-09T08:24:40Z</time>
      </trkpt>
      <trkpt lat="46.58373" lon="6.00984">
        <ele>1020.16</ele>
        <time>2019-06-09T08:24:53Z</time>
      </trkpt>
      <trkpt lat="46.58372" lon="6.0099">
        <ele>1019.32</ele>
        <time>2019-06-09T08:24:56Z</time>
      </trkpt>
      <trkpt lat="46.58363" lon="6.01014">
        <ele>1018.18</ele>
        <time>2019-06-09T08:25:11Z</time>
      </trkpt>
      <trkpt lat="46.58356" lon="6.01032">
        <ele>1017.97</ele>
        <time>2019-06-09T08:25:24Z</time>
      </trkpt>
      <trkpt lat="46.58355" lon="6.01037">
        <ele>1017.9</ele>
        <time>2019-06-09T08:25:27Z</time>
      </trkpt>
      <trkpt lat="46.58351" lon="6.01045">
        <ele>1017.02</ele>
        <time>2019-06-09T08:25:32Z</time>
      </trkpt>
      <trkpt lat="46.58349" lon="6.0105">
        <ele>1016.22</ele>
        <time>2019-06-09T08:25:34Z</time>
      </trkpt>
      <trkpt lat="46.58344" lon="6.01075">
        <ele>1014.11</ele>
        <time>2019-06-09T08:25:45Z</time>
      </trkpt>
      <trkpt lat="46.58346" lon="6.01086">
        <ele>1013.18</ele>
        <time>2019-06-09T08:25:49Z</time>
      </trkpt>
      <trkpt lat="46.58345" lon="6.01094">
        <ele>1012.34</ele>
        <time>2019-06-09T08:25:54Z</time>
      </trkpt>
      <trkpt lat="46.58341" lon="6.01107">
        <ele>1012.27</ele>
        <time>2019-06-09T08:25:59Z</time>
      </trkpt>
      <trkpt lat="46.58338" lon="6.01123">
        <ele>1011.33</ele>
        <time>2019-06-09T08:26:08Z</time>
      </trkpt>
      <trkpt lat="46.58336" lon="6.01127">
        <ele>1011.29</ele>
        <time>2019-06-09T08:26:10Z</time>
      </trkpt>
      <trkpt lat="46.58333" lon="6.01137">
        <ele>1010.19</ele>
        <time>2019-06-09T08:26:16Z</time>
      </trkpt>
      <trkpt lat="46.5833" lon="6.01147">
        <ele>1010.11</ele>
        <time>2019-06-09T08:26:20Z</time>
      </trkpt>
      <trkpt lat="46.58316" lon="6.01175">
        <ele>1009.76</ele>
        <time>2019-06-09T08:26:37Z</time>
      </trkpt>
      <trkpt lat="46.58308" lon="6.01193">
        <ele>1009.59</ele>
        <time>2019-06-09T08:26:46Z</time>
      </trkpt>
      <trkpt lat="46.58296" lon="6.01198">
        <ele>1008.21</ele>
        <time>2019-06-09T08:26:54Z</time>
      </trkpt>
      <trkpt lat="46.5828" lon="6.01202">
        <ele>1005.18</ele>
        <time>2019-06-09T08:27:05Z</time>
      </trkpt>
      <trkpt lat="46.58264" lon="6.01215">
        <ele>1005.11</ele>
        <time>2019-06-09T08:27:21Z</time>
      </trkpt>
      <trkpt lat="46.58262" lon="6.01216">
        <ele>1005.11</ele>
        <time>2019-06-09T08:27:22Z</time>
      </trkpt>
      <trkpt lat="46.58257" lon="6.01225">
        <ele>1005.09</ele>
        <time>2019-06-09T08:27:28Z</time>
      </trkpt>
      <trkpt lat="46.58255" lon="6.01229">
        <ele>1004.28</ele>
        <time>2019-06-09T08:27:31Z</time>
      </trkpt>
      <trkpt lat="46.58246" lon="6.01249">
        <ele>1004.26</ele>
        <time>2019-06-09T08:27:45Z</time>
      </trkpt>
      <trkpt lat="46.58238" lon="6.01277">
        <ele>1004.3</ele>
        <time>2019-06-09T08:28:00Z</time>
      </trkpt>
      <trkpt lat="46.58234" lon="6.01285">
        <ele>1004.3</ele>
        <time>2019-06-09T08:28:06Z</time>
      </trkpt>
      <trkpt lat="46.58229" lon="6.01291">
        <ele>1004.29</ele>
        <time>2019-06-09T08:28:11Z</time>
      </trkpt>
      <trkpt lat="46.58219" lon="6.01305">
        <ele>1004.31</ele>
        <time>2019-06-09T08:28:21Z</time>
      </trkpt>
      <trkpt lat="46.58203" lon="6.01313">
        <ele>1001.96</ele>
        <time>2019-06-09T08:28:33Z</time>
      </trkpt>
      <trkpt lat="46.58202" lon="6.01314">
        <ele>1001.97</ele>
        <time>2019-06-09T08:28:34Z</time>
      </trkpt>
      <trkpt lat="46.58196" lon="6.01321">
        <ele>1001.11</ele>
        <time>2019-06-09T08:28:39Z</time>
      </trkpt>
      <trkpt lat="46.58183" lon="6.0134">
        <ele>1001.19</ele>
        <time>2019-06-09T08:28:51Z</time>
      </trkpt>
      <trkpt lat="46.58178" lon="6.01354">
        <ele>1001.24</ele>
        <time>2019-06-09T08:28:59Z</time>
      </trkpt>
      <trkpt lat="46.5817" lon="6.01372">
        <ele>1001.31</ele>
        <time>2019-06-09T08:29:12Z</time>
      </trkpt>
      <trkpt lat="46.58167" lon="6.01379">
        <ele>1001.32</ele>
        <time>2019-06-09T08:29:16Z</time>
      </trkpt>
      <trkpt lat="46.58163" lon="6.01385">
        <ele>1000.47</ele>
        <time>2019-06-09T08:29:20Z</time>
      </trkpt>
      <trkpt lat="46.58152" lon="6.01393">
        <ele>998.85</ele>
        <time>2019-06-09T08:29:30Z</time>
      </trkpt>
      <trkpt lat="46.58149" lon="6.01397">
        <ele>997.92</ele>
        <time>2019-06-09T08:29:33Z</time>
      </trkpt>
      <trkpt lat="46.58141" lon="6.0141">
        <ele>996.19</ele>
        <time>2019-06-09T08:29:40Z</time>
      </trkpt>
      <trkpt lat="46.58134" lon="6.01422">
        <ele>994.2</ele>
        <time>2019-06-09T08:29:49Z</time>
      </trkpt>
      <trkpt lat="46.58124" lon="6.01436">
        <ele>992.57</ele>
        <time>2019-06-09T08:29:57Z</time>
      </trkpt>
      <trkpt lat="46.58122" lon="6.01442">
        <ele>992.61</ele>
        <time>2019-06-09T08:30:00Z</time>
      </trkpt>
      <trkpt lat="46.58118" lon="6.01453">
        <ele>991.73</ele>
        <time>2019-06-09T08:30:06Z</time>
      </trkpt>
      <trkpt lat="46.58114" lon="6.01466">
        <ele>991.02</ele>
        <time>2019-06-09T08:30:13Z</time>
      </trkpt>
      <trkpt lat="46.58106" lon="6.0148">
        <ele>988.45</ele>
        <time>2019-06-09T08:30:23Z</time>
      </trkpt>
      <trkpt lat="46.581" lon="6.01488">
        <ele>987.59</ele>
        <time>2019-06-09T08:30:28Z</time>
      </trkpt>
      <trkpt lat="46.58091" lon="6.015">
        <ele>985.86</ele>
        <time>2019-06-09T08:30:41Z</time>
      </trkpt>
      <trkpt lat="46.58085" lon="6.01509">
        <ele>985.12</ele>
        <time>2019-06-09T08:30:50Z</time>
      </trkpt>
      <trkpt lat="46.58081" lon="6.01514">
        <ele>984.09</ele>
        <time>2019-06-09T08:30:53Z</time>
      </trkpt>
      <trkpt lat="46.58079" lon="6.01527">
        <ele>982.31</ele>
        <time>2019-06-09T08:31:00Z</time>
      </trkpt>
      <trkpt lat="46.58076" lon="6.01535">
        <ele>981.56</ele>
        <time>2019-06-09T08:31:04Z</time>
      </trkpt>
      <trkpt lat="46.58072" lon="6.01542">
        <ele>980.41</ele>
        <time>2019-06-09T08:31:09Z</time>
      </trkpt>
      <trkpt lat="46.58071" lon="6.01546">
        <ele>980.45</ele>
        <time>2019-06-09T08:31:11Z</time>
      </trkpt>
      <trkpt lat="46.58062" lon="6.0157">
        <ele>978.63</ele>
        <time>2019-06-09T08:31:27Z</time>
      </trkpt>
      <trkpt lat="46.58061" lon="6.01592">
        <ele>978.73</ele>
        <time>2019-06-09T08:31:40Z</time>
      </trkpt>
      <trkpt lat="46.58055" lon="6.01601">
        <ele>978.77</ele>
        <time>2019-06-09T08:31:48Z</time>
      </trkpt>
      <trkpt lat="46.58044" lon="6.01604">
        <ele>978.8</ele>
        <time>2019-06-09T08:31:57Z</time>
      </trkpt>
      <trkpt lat="46.58035" lon="6.01587">
        <ele>978.78</ele>
        <time>2019-06-09T08:32:06Z</time>
      </trkpt>
      <trkpt lat="46.58028" lon="6.01568">
        <ele>978.73</ele>
        <time>2019-06-09T08:32:20Z</time>
      </trkpt>
      <trkpt lat="46.58026" lon="6.01561">
        <ele>981.24</ele>
        <time>2019-06-09T08:32:25Z</time>
      </trkpt>
      <trkpt lat="46.58021" lon="6.0154">
        <ele>981.16</ele>
        <time>2019-06-09T08:32:37Z</time>
      </trkpt>
      <trkpt lat="46.58006" lon="6.01521">
        <ele>981.05</ele>
        <time>2019-06-09T08:32:51Z</time>
      </trkpt>
      <trkpt lat="46.57994" lon="6.01511">
        <ele>980.97</ele>
        <time>2019-06-09T08:33:02Z</time>
      </trkpt>
      <trkpt lat="46.57992" lon="6.01508">
        <ele>978.57</ele>
        <time>2019-06-09T08:33:06Z</time>
      </trkpt>
      <trkpt lat="46.57984" lon="6.01503">
        <ele>976.84</ele>
        <time>2019-06-09T08:33:16Z</time>
      </trkpt>
      <trkpt lat="46.57974" lon="6.01509">
        <ele>975.94</ele>
        <time>2019-06-09T08:33:24Z</time>
      </trkpt>
      <trkpt lat="46.57967" lon="6.01516">
        <ele>975.04</ele>
        <time>2019-06-09T08:33:30Z</time>
      </trkpt>
      <trkpt lat="46.57966" lon="6.01518">
        <ele>975.03</ele>
        <time>2019-06-09T08:33:32Z</time>
      </trkpt>
      <trkpt lat="46.57958" lon="6.01532">
        <ele>974.95</ele>
        <time>2019-06-09T08:33:41Z</time>
      </trkpt>
      <trkpt lat="46.57946" lon="6.0155">
        <ele>974.8</ele>
        <time>2019-06-09T08:33:54Z</time>
      </trkpt>
      <trkpt lat="46.57939" lon="6.01562">
        <ele>974.66</ele>
        <time>2019-06-09T08:34:03Z</time>
      </trkpt>
      <trkpt lat="46.57928" lon="6.01573">
        <ele>974.4</ele>
        <time>2019-06-09T08:34:16Z</time>
      </trkpt>
      <trkpt lat="46.57913" lon="6.01589">
        <ele>974.02</ele>
        <time>2019-06-09T08:34:33Z</time>
      </trkpt>
      <trkpt lat="46.57908" lon="6.01595">
        <ele>973.88</ele>
        <time>2019-06-09T08:34:38Z</time>
      </trkpt>
      <trkpt lat="46.57897" lon="6.01606">
        <ele>973.53</ele>
        <time>2019-06-09T08:34:49Z</time>
      </trkpt>
      <trkpt lat="46.57891" lon="6.01611">
        <ele>973.38</ele>
        <time>2019-06-09T08:34:54Z</time>
      </trkpt>
      <trkpt lat="46.57886" lon="6.01617">
        <ele>973.26</ele>
        <time>2019-06-09T08:34:58Z</time>
      </trkpt>
      <trkpt lat="46.57881" lon="6.01632">
        <ele>973.03</ele>
        <time>2019-06-09T08:35:05Z</time>
      </trkpt>
      <trkpt lat="46.57868" lon="6.01653">
        <ele>971.7</ele>
        <time>2019-06-09T08:35:18Z</time>
      </trkpt>
      <trkpt lat="46.57865" lon="6.01661">
        <ele>971.63</ele>
        <time>2019-06-09T08:35:21Z</time>
      </trkpt>
      <trkpt lat="46.57863" lon="6.01665">
        <ele>970.69</ele>
        <time>2019-06-09T08:35:24Z</time>
      </trkpt>
      <trkpt lat="46.57854" lon="6.01691">
        <ele>969.18</ele>
        <time>2019-06-09T08:35:40Z</time>
      </trkpt>
      <trkpt lat="46.5784" lon="6.01718">
        <ele>968.46</ele>
        <time>2019-06-09T08:35:57Z</time>
      </trkpt>
      <trkpt lat="46.57835" lon="6.01727">
        <ele>970.46</ele>
        <time>2019-06-09T08:36:03Z</time>
      </trkpt>
      <trkpt lat="46.57833" lon="6.01733">
        <ele>970.25</ele>
        <time>2019-06-09T08:36:06Z</time>
      </trkpt>
      <trkpt lat="46.57828" lon="6.01737">
        <ele>969.99</ele>
        <time>2019-06-09T08:36:11Z</time>
      </trkpt>
      <trkpt lat="46.57819" lon="6.01755">
        <ele>967.12</ele>
        <time>2019-06-09T08:36:22Z</time>
      </trkpt>
      <trkpt lat="46.57817" lon="6.01758">
        <ele>967.01</ele>
        <time>2019-06-09T08:36:24Z</time>
      </trkpt>
      <trkpt lat="46.57806" lon="6.01768">
        <ele>963.66</ele>
        <time>2019-06-09T08:36:36Z</time>
      </trkpt>
      <trkpt lat="46.57785" lon="6.01778">
        <ele>961.96</ele>
        <time>2019-06-09T08:36:50Z</time>
      </trkpt>
      <trkpt lat="46.57757" lon="6.01798">
        <ele>961.18</ele>
        <time>2019-06-09T08:37:08Z</time>
      </trkpt>
      <trkpt lat="46.57738" lon="6.0182">
        <ele>960.71</ele>
        <time>2019-06-09T08:37:21Z</time>
      </trkpt>
      <trkpt lat="46.57724" lon="6.01838">
        <ele>957.54</ele>
        <time>2019-06-09T08:37:35Z</time>
      </trkpt>
      <trkpt lat="46.57722" lon="6.01838">
        <ele>957.45</ele>
        <time>2019-06-09T08:37:37Z</time>
      </trkpt>
      <trkpt lat="46.57715" lon="6.01838">
        <ele>957.37</ele>
        <time>2019-06-09T08:37:42Z</time>
      </trkpt>
      <trkpt lat="46.57708" lon="6.01837">
        <ele>957.31</ele>
        <time>2019-06-09T08:37:45Z</time>
      </trkpt>
      <trkpt lat="46.57691" lon="6.01838">
        <ele>957.11</ele>
        <time>2019-06-09T08:37:54Z</time>
      </trkpt>
      <trkpt lat="46.57676" lon="6.01853">
        <ele>956.57</ele>
        <time>2019-06-09T08:38:07Z</time>
      </trkpt>
      <trkpt lat="46.57655" lon="6.01871">
        <ele>954.53</ele>
        <time>2019-06-09T08:38:23Z</time>
      </trkpt>
      <trkpt lat="46.5764" lon="6.01884">
        <ele>954.12</ele>
        <time>2019-06-09T08:38:37Z</time>
      </trkpt>
      <trkpt lat="46.57629" lon="6.01896">
        <ele>953.64</ele>
        <time>2019-06-09T08:38:51Z</time>
      </trkpt>
      <trkpt lat="46.57614" lon="6.01908">
        <ele>955.61</ele>
        <time>2019-06-09T08:39:03Z</time>
      </trkpt>
      <trkpt lat="46.57606" lon="6.01919">
        <ele>955.1</ele>
        <time>2019-06-09T08:39:14Z</time>
      </trkpt>
      <trkpt lat="46.57592" lon="6.01937">
        <ele>952.79</ele>
        <time>2019-06-09T08:39:29Z</time>
      </trkpt>
      <trkpt lat="46.57591" lon="6.01938">
        <ele>952.75</ele>
        <time>2019-06-09T08:39:30Z</time>
      </trkpt>
      <trkpt lat="46.57575" lon="6.01965">
        <ele>951.28</ele>
        <time>2019-06-09T08:39:47Z</time>
      </trkpt>
      <trkpt lat="46.57564" lon="6.01982">
        <ele>950.7</ele>
        <time>2019-06-09T08:40:01Z</time>
      </trkpt>
      <trkpt lat="46.57556" lon="6.02005">
        <ele>950.35</ele>
        <time>2019-06-09T08:40:11Z</time>
      </trkpt>
      <trkpt lat="46.57552" lon="6.02012">
        <ele>950.09</ele>
        <time>2019-06-09T08:40:15Z</time>
      </trkpt>
      <trkpt lat="46.57544" lon="6.02031">
        <ele>949.5</ele>
        <time>2019-06-09T08:40:26Z</time>
      </trkpt>
      <trkpt lat="46.57541" lon="6.0204">
        <ele>949.29</ele>
        <time>2019-06-09T08:40:31Z</time>
      </trkpt>
      <trkpt lat="46.57532" lon="6.02051">
        <ele>951.47</ele>
        <time>2019-06-09T08:40:37Z</time>
      </trkpt>
      <trkpt lat="46.57522" lon="6.02078">
        <ele>952.5</ele>
        <time>2019-06-09T08:40:52Z</time>
      </trkpt>
      <trkpt lat="46.57518" lon="6.02082">
        <ele>953.23</ele>
        <time>2019-06-09T08:40:55Z</time>
      </trkpt>
      <trkpt lat="46.57511" lon="6.02095">
        <ele>953.88</ele>
        <time>2019-06-09T08:41:02Z</time>
      </trkpt>
      <trkpt lat="46.57509" lon="6.02097">
        <ele>953.79</ele>
        <time>2019-06-09T08:41:04Z</time>
      </trkpt>
      <trkpt lat="46.57504" lon="6.02102">
        <ele>954.38</ele>
        <time>2019-06-09T08:41:09Z</time>
      </trkpt>
      <trkpt lat="46.57499" lon="6.0211">
        <ele>954</ele>
        <time>2019-06-09T08:41:16Z</time>
      </trkpt>
      <trkpt lat="46.5748" lon="6.02138">
        <ele>953.07</ele>
        <time>2019-06-09T08:41:35Z</time>
      </trkpt>
      <trkpt lat="46.57479" lon="6.02139">
        <ele>952.98</ele>
        <time>2019-06-09T08:41:36Z</time>
      </trkpt>
      <trkpt lat="46.57477" lon="6.02141">
        <ele>950.52</ele>
        <time>2019-06-09T08:41:38Z</time>
      </trkpt>
      <trkpt lat="46.57474" lon="6.02145">
        <ele>950.41</ele>
        <time>2019-06-09T08:41:41Z</time>
      </trkpt>
      <trkpt lat="46.57467" lon="6.02153">
        <ele>950.18</ele>
        <time>2019-06-09T08:41:47Z</time>
      </trkpt>
      <trkpt lat="46.57465" lon="6.02158">
        <ele>950.09</ele>
        <time>2019-06-09T08:41:49Z</time>
      </trkpt>
      <trkpt lat="46.57459" lon="6.02167">
        <ele>948.97</ele>
        <time>2019-06-09T08:41:55Z</time>
      </trkpt>
      <trkpt lat="46.57448" lon="6.02183">
        <ele>947.79</ele>
        <time>2019-06-09T08:42:04Z</time>
      </trkpt>
      <trkpt lat="46.5744" lon="6.02197">
        <ele>947.47</ele>
        <time>2019-06-09T08:42:12Z</time>
      </trkpt>
      <trkpt lat="46.5743" lon="6.02215">
        <ele>947.02</ele>
        <time>2019-06-09T08:42:23Z</time>
      </trkpt>
      <trkpt lat="46.57428" lon="6.02219">
        <ele>946.1</ele>
        <time>2019-06-09T08:42:26Z</time>
      </trkpt>
      <trkpt lat="46.57421" lon="6.02231">
        <ele>944.97</ele>
        <time>2019-06-09T08:42:34Z</time>
      </trkpt>
      <trkpt lat="46.57418" lon="6.02235">
        <ele>944.89</ele>
        <time>2019-06-09T08:42:36Z</time>
      </trkpt>
      <trkpt lat="46.57414" lon="6.02242">
        <ele>944.7</ele>
        <time>2019-06-09T08:42:40Z</time>
      </trkpt>
      <trkpt lat="46.57409" lon="6.02249">
        <ele>944.49</ele>
        <time>2019-06-09T08:42:45Z</time>
      </trkpt>
      <trkpt lat="46.57405" lon="6.02257">
        <ele>943.53</ele>
        <time>2019-06-09T08:42:49Z</time>
      </trkpt>
      <trkpt lat="46.57403" lon="6.02261">
        <ele>943.38</ele>
        <time>2019-06-09T08:42:52Z</time>
      </trkpt>
      <trkpt lat="46.57401" lon="6.02265">
        <ele>943.28</ele>
        <time>2019-06-09T08:42:54Z</time>
      </trkpt>
      <trkpt lat="46.57393" lon="6.02279">
        <ele>942.91</ele>
        <time>2019-06-09T08:43:02Z</time>
      </trkpt>
      <trkpt lat="46.57379" lon="6.02294">
        <ele>942.46</ele>
        <time>2019-06-09T08:43:12Z</time>
      </trkpt>
      <trkpt lat="46.57376" lon="6.023">
        <ele>941.54</ele>
        <time>2019-06-09T08:43:15Z</time>
      </trkpt>
      <trkpt lat="46.5737" lon="6.02319">
        <ele>941.15</ele>
        <time>2019-06-09T08:43:26Z</time>
      </trkpt>
      <trkpt lat="46.57367" lon="6.02341">
        <ele>939.9</ele>
        <time>2019-06-09T08:43:38Z</time>
      </trkpt>
      <trkpt lat="46.57363" lon="6.02354">
        <ele>938.93</ele>
        <time>2019-06-09T08:43:44Z</time>
      </trkpt>
      <trkpt lat="46.57358" lon="6.02366">
        <ele>937.86</ele>
        <time>2019-06-09T08:43:50Z</time>
      </trkpt>
      <trkpt lat="46.57355" lon="6.02378">
        <ele>937.73</ele>
        <time>2019-06-09T08:43:54Z</time>
      </trkpt>
      <trkpt lat="46.57343" lon="6.02404">
        <ele>935.56</ele>
        <time>2019-06-09T08:44:08Z</time>
      </trkpt>
      <trkpt lat="46.57342" lon="6.02408">
        <ele>934.58</ele>
        <time>2019-06-09T08:44:10Z</time>
      </trkpt>
      <trkpt lat="46.57338" lon="6.02424">
        <ele>933.59</ele>
        <time>2019-06-09T08:44:16Z</time>
      </trkpt>
      <trkpt lat="46.57332" lon="6.02441">
        <ele>932.54</ele>
        <time>2019-06-09T08:44:27Z</time>
      </trkpt>
      <trkpt lat="46.5733" lon="6.02448">
        <ele>932.47</ele>
        <time>2019-06-09T08:44:31Z</time>
      </trkpt>
      <trkpt lat="46.57324" lon="6.02465">
        <ele>931.52</ele>
        <time>2019-06-09T08:44:39Z</time>
      </trkpt>
      <trkpt lat="46.57314" lon="6.02499">
        <ele>930.56</ele>
        <time>2019-06-09T08:44:51Z</time>
      </trkpt>
      <trkpt lat="46.57313" lon="6.02502">
        <ele>930.56</ele>
        <time>2019-06-09T08:44:52Z</time>
      </trkpt>
      <trkpt lat="46.57311" lon="6.0254">
        <ele>929.88</ele>
        <time>2019-06-09T08:45:05Z</time>
      </trkpt>
      <trkpt lat="46.57304" lon="6.02569">
        <ele>930.07</ele>
        <time>2019-06-09T08:45:19Z</time>
      </trkpt>
      <trkpt lat="46.573" lon="6.02577">
        <ele>930.26</ele>
        <time>2019-06-09T08:45:34Z</time>
      </trkpt>
      <trkpt lat="46.57294" lon="6.02576">
        <ele>930.36</ele>
        <time>2019-06-09T08:45:39Z</time>
      </trkpt>
      <trkpt lat="46.57289" lon="6.02577">
        <ele>930.86</ele>
        <time>2019-06-09T08:46:01Z</time>
      </trkpt>
      <trkpt lat="46.57287" lon="6.02576">
        <ele>931.57</ele>
        <time>2019-06-09T08:46:29Z</time>
      </trkpt>
      <trkpt lat="46.57283" lon="6.02575">
        <ele>932.24</ele>
        <time>2019-06-09T08:46:53Z</time>
      </trkpt>
      <trkpt lat="46.57269" lon="6.02601">
        <ele>930.74</ele>
        <time>2019-06-09T08:47:08Z</time>
      </trkpt>
      <trkpt lat="46.57263" lon="6.02613">
        <ele>928.8</ele>
        <time>2019-06-09T08:47:13Z</time>
      </trkpt>
      <trkpt lat="46.57246" lon="6.02642">
        <ele>929.27</ele>
        <time>2019-06-09T08:47:27Z</time>
      </trkpt>
      <trkpt lat="46.5723" lon="6.0267">
        <ele>929.77</ele>
        <time>2019-06-09T08:47:42Z</time>
      </trkpt>
      <trkpt lat="46.57217" lon="6.02692">
        <ele>932.5</ele>
        <time>2019-06-09T08:47:55Z</time>
      </trkpt>
      <trkpt lat="46.57205" lon="6.02718">
        <ele>932.85</ele>
        <time>2019-06-09T08:48:08Z</time>
      </trkpt>
      <trkpt lat="46.57202" lon="6.02723">
        <ele>932.93</ele>
        <time>2019-06-09T08:48:11Z</time>
      </trkpt>
      <trkpt lat="46.57201" lon="6.02725">
        <ele>933.85</ele>
        <time>2019-06-09T08:48:12Z</time>
      </trkpt>
      <trkpt lat="46.572" lon="6.02727">
        <ele>933.88</ele>
        <time>2019-06-09T08:48:13Z</time>
      </trkpt>
      <trkpt lat="46.57199" lon="6.02729">
        <ele>933.91</ele>
        <time>2019-06-09T08:48:14Z</time>
      </trkpt>
      <trkpt lat="46.57198" lon="6.02731">
        <ele>933.94</ele>
        <time>2019-06-09T08:48:15Z</time>
      </trkpt>
      <trkpt lat="46.57197" lon="6.02733">
        <ele>933.96</ele>
        <time>2019-06-09T08:48:16Z</time>
      </trkpt>
      <trkpt lat="46.57196" lon="6.02735">
        <ele>934</ele>
        <time>2019-06-09T08:48:17Z</time>
      </trkpt>
      <trkpt lat="46.57195" lon="6.02736">
        <ele>934.03</ele>
        <time>2019-06-09T08:48:18Z</time>
      </trkpt>
      <trkpt lat="46.57194" lon="6.02738">
        <ele>934.06</ele>
        <time>2019-06-09T08:48:19Z</time>
      </trkpt>
      <trkpt lat="46.57193" lon="6.02739">
        <ele>934.09</ele>
        <time>2019-06-09T08:48:20Z</time>
      </trkpt>
      <trkpt lat="46.57192" lon="6.02741">
        <ele>934.12</ele>
        <time>2019-06-09T08:48:21Z</time>
      </trkpt>
      <trkpt lat="46.57178" lon="6.02757">
        <ele>934.47</ele>
        <time>2019-06-09T08:48:34Z</time>
      </trkpt>
      <trkpt lat="46.57165" lon="6.0278">
        <ele>934.91</ele>
        <time>2019-06-09T08:48:47Z</time>
      </trkpt>
      <trkpt lat="46.57154" lon="6.028">
        <ele>935.27</ele>
        <time>2019-06-09T08:49:00Z</time>
      </trkpt>
      <trkpt lat="46.57149" lon="6.02808">
        <ele>933.06</ele>
        <time>2019-06-09T08:49:05Z</time>
      </trkpt>
      <trkpt lat="46.57149" lon="6.02809">
        <ele>933.09</ele>
        <time>2019-06-09T08:49:06Z</time>
      </trkpt>
      <trkpt lat="46.5714" lon="6.02836">
        <ele>932.6</ele>
        <time>2019-06-09T08:49:20Z</time>
      </trkpt>
      <trkpt lat="46.57128" lon="6.02861">
        <ele>932.15</ele>
        <time>2019-06-09T08:49:33Z</time>
      </trkpt>
      <trkpt lat="46.57126" lon="6.02864">
        <ele>932.2</ele>
        <time>2019-06-09T08:49:35Z</time>
      </trkpt>
      <trkpt lat="46.57124" lon="6.02865">
        <ele>932.24</ele>
        <time>2019-06-09T08:49:36Z</time>
      </trkpt>
      <trkpt lat="46.57123" lon="6.02867">
        <ele>931.41</ele>
        <time>2019-06-09T08:49:37Z</time>
      </trkpt>
      <trkpt lat="46.57109" lon="6.02887">
        <ele>930.16</ele>
        <time>2019-06-09T08:49:50Z</time>
      </trkpt>
      <trkpt lat="46.571" lon="6.02898">
        <ele>929.47</ele>
        <time>2019-06-09T08:49:58Z</time>
      </trkpt>
      <trkpt lat="46.57099" lon="6.029">
        <ele>928.69</ele>
        <time>2019-06-09T08:49:59Z</time>
      </trkpt>
      <trkpt lat="46.57098" lon="6.02901">
        <ele>928.72</ele>
        <time>2019-06-09T08:50:00Z</time>
      </trkpt>
      <trkpt lat="46.57097" lon="6.02903">
        <ele>928.75</ele>
        <time>2019-06-09T08:50:01Z</time>
      </trkpt>
      <trkpt lat="46.57095" lon="6.02904">
        <ele>928.78</ele>
        <time>2019-06-09T08:50:02Z</time>
      </trkpt>
      <trkpt lat="46.57073" lon="6.02907">
        <ele>926.73</ele>
        <time>2019-06-09T08:50:16Z</time>
      </trkpt>
      <trkpt lat="46.57051" lon="6.02906">
        <ele>925.27</ele>
        <time>2019-06-09T08:50:29Z</time>
      </trkpt>
      <trkpt lat="46.57034" lon="6.02918">
        <ele>924.8</ele>
        <time>2019-06-09T08:50:41Z</time>
      </trkpt>
      <trkpt lat="46.57017" lon="6.02943">
        <ele>924.51</ele>
        <time>2019-06-09T08:50:55Z</time>
      </trkpt>
      <trkpt lat="46.57003" lon="6.02956">
        <ele>924.86</ele>
        <time>2019-06-09T08:51:06Z</time>
      </trkpt>
      <trkpt lat="46.56985" lon="6.02941">
        <ele>925.27</ele>
        <time>2019-06-09T08:51:19Z</time>
      </trkpt>
      <trkpt lat="46.56973" lon="6.02918">
        <ele>925.64</ele>
        <time>2019-06-09T08:51:32Z</time>
      </trkpt>
      <trkpt lat="46.56956" lon="6.02895">
        <ele>926.09</ele>
        <time>2019-06-09T08:51:47Z</time>
      </trkpt>
      <trkpt lat="46.56932" lon="6.0288">
        <ele>925.78</ele>
        <time>2019-06-09T08:52:03Z</time>
      </trkpt>
      <trkpt lat="46.56909" lon="6.02876">
        <ele>926.2</ele>
        <time>2019-06-09T08:52:18Z</time>
      </trkpt>
      <trkpt lat="46.56885" lon="6.0288">
        <ele>926.61</ele>
        <time>2019-06-09T08:52:33Z</time>
      </trkpt>
      <trkpt lat="46.56858" lon="6.02883">
        <ele>927.1</ele>
        <time>2019-06-09T08:52:50Z</time>
      </trkpt>
      <trkpt lat="46.56838" lon="6.02888">
        <ele>927.49</ele>
        <time>2019-06-09T08:53:04Z</time>
      </trkpt>
      <trkpt lat="46.56824" lon="6.02898">
        <ele>930.06</ele>
        <time>2019-06-09T08:53:15Z</time>
      </trkpt>
      <trkpt lat="46.56806" lon="6.02906">
        <ele>930.39</ele>
        <time>2019-06-09T08:53:27Z</time>
      </trkpt>
      <trkpt lat="46.56784" lon="6.02903">
        <ele>930.71</ele>
        <time>2019-06-09T08:53:41Z</time>
      </trkpt>
      <trkpt lat="46.56763" lon="6.02892">
        <ele>931.08</ele>
        <time>2019-06-09T08:53:55Z</time>
      </trkpt>
      <trkpt lat="46.56743" lon="6.02883">
        <ele>931.39</ele>
        <time>2019-06-09T08:54:07Z</time>
      </trkpt>
      <trkpt lat="46.5674" lon="6.02882">
        <ele>929.14</ele>
        <time>2019-06-09T08:54:09Z</time>
      </trkpt>
      <trkpt lat="46.56738" lon="6.02882">
        <ele>929.17</ele>
        <time>2019-06-09T08:54:10Z</time>
      </trkpt>
      <trkpt lat="46.56736" lon="6.02882">
        <ele>929.2</ele>
        <time>2019-06-09T08:54:11Z</time>
      </trkpt>
      <trkpt lat="46.56734" lon="6.02882">
        <ele>929.22</ele>
        <time>2019-06-09T08:54:12Z</time>
      </trkpt>
      <trkpt lat="46.56732" lon="6.02882">
        <ele>929.26</ele>
        <time>2019-06-09T08:54:13Z</time>
      </trkpt>
      <trkpt lat="46.5673" lon="6.02881">
        <ele>929.28</ele>
        <time>2019-06-09T08:54:14Z</time>
      </trkpt>
      <trkpt lat="46.56729" lon="6.02882">
        <ele>929.3</ele>
        <time>2019-06-09T08:54:15Z</time>
      </trkpt>
      <trkpt lat="46.56706" lon="6.02882">
        <ele>928.89</ele>
        <time>2019-06-09T08:54:28Z</time>
      </trkpt>
      <trkpt lat="46.56686" lon="6.02869">
        <ele>928.47</ele>
        <time>2019-06-09T08:54:41Z</time>
      </trkpt>
      <trkpt lat="46.5668" lon="6.02863">
        <ele>928.61</ele>
        <time>2019-06-09T08:54:46Z</time>
      </trkpt>
      <trkpt lat="46.56678" lon="6.02861">
        <ele>928.64</ele>
        <time>2019-06-09T08:54:47Z</time>
      </trkpt>
      <trkpt lat="46.56677" lon="6.02859">
        <ele>928.67</ele>
        <time>2019-06-09T08:54:48Z</time>
      </trkpt>
      <trkpt lat="46.56676" lon="6.02858">
        <ele>928.7</ele>
        <time>2019-06-09T08:54:49Z</time>
      </trkpt>
      <trkpt lat="46.56674" lon="6.02857">
        <ele>928.71</ele>
        <time>2019-06-09T08:54:50Z</time>
      </trkpt>
      <trkpt lat="46.56673" lon="6.02856">
        <ele>928.74</ele>
        <time>2019-06-09T08:54:51Z</time>
      </trkpt>
      <trkpt lat="46.56672" lon="6.02856">
        <ele>928.77</ele>
        <time>2019-06-09T08:54:52Z</time>
      </trkpt>
      <trkpt lat="46.5667" lon="6.02854">
        <ele>928.8</ele>
        <time>2019-06-09T08:54:53Z</time>
      </trkpt>
      <trkpt lat="46.56668" lon="6.02853">
        <ele>928.83</ele>
        <time>2019-06-09T08:54:54Z</time>
      </trkpt>
      <trkpt lat="46.56649" lon="6.02839">
        <ele>928.41</ele>
        <time>2019-06-09T08:55:07Z</time>
      </trkpt>
      <trkpt lat="46.56632" lon="6.02823">
        <ele>928.79</ele>
        <time>2019-06-09T08:55:22Z</time>
      </trkpt>
      <trkpt lat="46.56618" lon="6.02807">
        <ele>929.19</ele>
        <time>2019-06-09T08:55:37Z</time>
      </trkpt>
      <trkpt lat="46.56602" lon="6.02782">
        <ele>928.75</ele>
        <time>2019-06-09T08:55:52Z</time>
      </trkpt>
      <trkpt lat="46.56586" lon="6.02757">
        <ele>929.14</ele>
        <time>2019-06-09T08:56:07Z</time>
      </trkpt>
      <trkpt lat="46.56573" lon="6.02741">
        <ele>929.48</ele>
        <time>2019-06-09T08:56:20Z</time>
      </trkpt>
      <trkpt lat="46.56555" lon="6.02731">
        <ele>928.97</ele>
        <time>2019-06-09T08:56:32Z</time>
      </trkpt>
      <trkpt lat="46.56534" lon="6.02728">
        <ele>928.58</ele>
        <time>2019-06-09T08:56:46Z</time>
      </trkpt>
      <trkpt lat="46.56515" lon="6.02718">
        <ele>928.1</ele>
        <time>2019-06-09T08:57:01Z</time>
      </trkpt>
      <trkpt lat="46.56507" lon="6.02713">
        <ele>927.72</ele>
        <time>2019-06-09T08:57:17Z</time>
      </trkpt>
      <trkpt lat="46.56493" lon="6.0269">
        <ele>927.26</ele>
        <time>2019-06-09T08:57:31Z</time>
      </trkpt>
      <trkpt lat="46.56487" lon="6.02669">
        <ele>925.92</ele>
        <time>2019-06-09T08:57:43Z</time>
      </trkpt>
      <trkpt lat="46.5648" lon="6.02641">
        <ele>923.84</ele>
        <time>2019-06-09T08:57:58Z</time>
      </trkpt>
      <trkpt lat="46.56473" lon="6.02616">
        <ele>921.82</ele>
        <time>2019-06-09T08:58:13Z</time>
      </trkpt>
      <trkpt lat="46.56472" lon="6.02615">
        <ele>921.61</ele>
        <time>2019-06-09T08:58:41Z</time>
      </trkpt>
      <trkpt lat="46.56472" lon="6.02617">
        <ele>921.9</ele>
        <time>2019-06-09T08:58:54Z</time>
      </trkpt>
      <trkpt lat="46.56472" lon="6.02619">
        <ele>921.93</ele>
        <time>2019-06-09T08:58:55Z</time>
      </trkpt>
      <trkpt lat="46.56472" lon="6.0262">
        <ele>921.95</ele>
        <time>2019-06-09T08:58:56Z</time>
      </trkpt>
      <trkpt lat="46.56472" lon="6.02622">
        <ele>921.98</ele>
        <time>2019-06-09T08:58:57Z</time>
      </trkpt>
      <trkpt lat="46.56473" lon="6.02624">
        <ele>922</ele>
        <time>2019-06-09T08:58:58Z</time>
      </trkpt>
      <trkpt lat="46.56473" lon="6.02626">
        <ele>922.02</ele>
        <time>2019-06-09T08:58:59Z</time>
      </trkpt>
      <trkpt lat="46.56475" lon="6.02634">
        <ele>922.1</ele>
        <time>2019-06-09T08:59:02Z</time>
      </trkpt>
      <trkpt lat="46.56476" lon="6.02636">
        <ele>922.12</ele>
        <time>2019-06-09T08:59:03Z</time>
      </trkpt>
      <trkpt lat="46.56476" lon="6.02638">
        <ele>922.15</ele>
        <time>2019-06-09T08:59:04Z</time>
      </trkpt>
      <trkpt lat="46.56477" lon="6.0264">
        <ele>922.18</ele>
        <time>2019-06-09T08:59:05Z</time>
      </trkpt>
      <trkpt lat="46.56477" lon="6.02642">
        <ele>922.19</ele>
        <time>2019-06-09T08:59:06Z</time>
      </trkpt>
      <trkpt lat="46.56477" lon="6.02644">
        <ele>922.24</ele>
        <time>2019-06-09T08:59:07Z</time>
      </trkpt>
      <trkpt lat="46.56478" lon="6.02646">
        <ele>922.26</ele>
        <time>2019-06-09T08:59:08Z</time>
      </trkpt>
      <trkpt lat="46.56479" lon="6.02651">
        <ele>924.85</ele>
        <time>2019-06-09T08:59:10Z</time>
      </trkpt>
      <trkpt lat="46.56489" lon="6.02676">
        <ele>927.99</ele>
        <time>2019-06-09T08:59:24Z</time>
      </trkpt>
      <trkpt lat="46.565" lon="6.02704">
        <ele>930.78</ele>
        <time>2019-06-09T08:59:41Z</time>
      </trkpt>
      <trkpt lat="46.56515" lon="6.02718">
        <ele>932.73</ele>
        <time>2019-06-09T08:59:56Z</time>
      </trkpt>
      <trkpt lat="46.56538" lon="6.02728">
        <ele>933.86</ele>
        <time>2019-06-09T09:00:12Z</time>
      </trkpt>
      <trkpt lat="46.56561" lon="6.02731">
        <ele>934.97</ele>
        <time>2019-06-09T09:00:28Z</time>
      </trkpt>
      <trkpt lat="46.56583" lon="6.02751">
        <ele>936.21</ele>
        <time>2019-06-09T09:00:47Z</time>
      </trkpt>
      <trkpt lat="46.56601" lon="6.02782">
        <ele>937.41</ele>
        <time>2019-06-09T09:01:06Z</time>
      </trkpt>
      <trkpt lat="46.56616" lon="6.02802">
        <ele>938.52</ele>
        <time>2019-06-09T09:01:20Z</time>
      </trkpt>
      <trkpt lat="46.56638" lon="6.0283">
        <ele>938.93</ele>
        <time>2019-06-09T09:01:39Z</time>
      </trkpt>
      <trkpt lat="46.56641" lon="6.02835">
        <ele>939.01</ele>
        <time>2019-06-09T09:01:42Z</time>
      </trkpt>
      <trkpt lat="46.56641" lon="6.02837">
        <ele>939.03</ele>
        <time>2019-06-09T09:01:43Z</time>
      </trkpt>
      <trkpt lat="46.56641" lon="6.0284">
        <ele>939.05</ele>
        <time>2019-06-09T09:01:44Z</time>
      </trkpt>
      <trkpt lat="46.56641" lon="6.02842">
        <ele>939.08</ele>
        <time>2019-06-09T09:01:45Z</time>
      </trkpt>
      <trkpt lat="46.56641" lon="6.02845">
        <ele>939.1</ele>
        <time>2019-06-09T09:01:46Z</time>
      </trkpt>
      <trkpt lat="46.56639" lon="6.02847">
        <ele>939.12</ele>
        <time>2019-06-09T09:01:47Z</time>
      </trkpt>
      <trkpt lat="46.56638" lon="6.02849">
        <ele>939.15</ele>
        <time>2019-06-09T09:01:48Z</time>
      </trkpt>
      <trkpt lat="46.56637" lon="6.02851">
        <ele>939.16</ele>
        <time>2019-06-09T09:01:49Z</time>
      </trkpt>
      <trkpt lat="46.56626" lon="6.02874">
        <ele>939.47</ele>
        <time>2019-06-09T09:02:01Z</time>
      </trkpt>
      <trkpt lat="46.56608" lon="6.02904">
        <ele>941.63</ele>
        <time>2019-06-09T09:02:18Z</time>
      </trkpt>
      <trkpt lat="46.56591" lon="6.02929">
        <ele>941.98</ele>
        <time>2019-06-09T09:02:33Z</time>
      </trkpt>
      <trkpt lat="46.56578" lon="6.02949">
        <ele>943.88</ele>
        <time>2019-06-09T09:02:46Z</time>
      </trkpt>
      <trkpt lat="46.56559" lon="6.02981">
        <ele>945.36</ele>
        <time>2019-06-09T09:03:04Z</time>
      </trkpt>
      <trkpt lat="46.56545" lon="6.03008">
        <ele>945.71</ele>
        <time>2019-06-09T09:03:20Z</time>
      </trkpt>
      <trkpt lat="46.56532" lon="6.03037">
        <ele>948.61</ele>
        <time>2019-06-09T09:03:35Z</time>
      </trkpt>
      <trkpt lat="46.56518" lon="6.03062">
        <ele>950.53</ele>
        <time>2019-06-09T09:03:49Z</time>
      </trkpt>
      <trkpt lat="46.56506" lon="6.03071">
        <ele>951.77</ele>
        <time>2019-06-09T09:03:59Z</time>
      </trkpt>
      <trkpt lat="46.56505" lon="6.03071">
        <ele>943.53</ele>
        <time>2019-06-09T09:04:00Z</time>
      </trkpt>
      <trkpt lat="46.56504" lon="6.03072">
        <ele>953.75</ele>
        <time>2019-06-09T09:04:01Z</time>
      </trkpt>
      <trkpt lat="46.56502" lon="6.03074">
        <ele>946.71</ele>
        <time>2019-06-09T09:04:03Z</time>
      </trkpt>
      <trkpt lat="46.56501" lon="6.03074">
        <ele>955.38</ele>
        <time>2019-06-09T09:04:04Z</time>
      </trkpt>
      <trkpt lat="46.56496" lon="6.03078">
        <ele>952.83</ele>
        <time>2019-06-09T09:04:08Z</time>
      </trkpt>
      <trkpt lat="46.56483" lon="6.03092">
        <ele>950.1</ele>
        <time>2019-06-09T09:04:23Z</time>
      </trkpt>
      <trkpt lat="46.56483" lon="6.03093">
        <ele>955.29</ele>
        <time>2019-06-09T09:04:24Z</time>
      </trkpt>
      <trkpt lat="46.56482" lon="6.03095">
        <ele>955.3</ele>
        <time>2019-06-09T09:04:25Z</time>
      </trkpt>
      <trkpt lat="46.56482" lon="6.03096">
        <ele>949.27</ele>
        <time>2019-06-09T09:04:26Z</time>
      </trkpt>
      <trkpt lat="46.56481" lon="6.03096">
        <ele>954.55</ele>
        <time>2019-06-09T09:04:27Z</time>
      </trkpt>
      <trkpt lat="46.5647" lon="6.03112">
        <ele>954.67</ele>
        <time>2019-06-09T09:04:40Z</time>
      </trkpt>
      <trkpt lat="46.56459" lon="6.03116">
        <ele>955.49</ele>
        <time>2019-06-09T09:04:50Z</time>
      </trkpt>
      <trkpt lat="46.56457" lon="6.03116">
        <ele>955.5</ele>
        <time>2019-06-09T09:04:51Z</time>
      </trkpt>
      <trkpt lat="46.56439" lon="6.03131">
        <ele>955.52</ele>
        <time>2019-06-09T09:05:02Z</time>
      </trkpt>
      <trkpt lat="46.56436" lon="6.03135">
        <ele>956.32</ele>
        <time>2019-06-09T09:05:04Z</time>
      </trkpt>
      <trkpt lat="46.56435" lon="6.03137">
        <ele>956.32</ele>
        <time>2019-06-09T09:05:05Z</time>
      </trkpt>
      <trkpt lat="46.56434" lon="6.03139">
        <ele>956.33</ele>
        <time>2019-06-09T09:05:06Z</time>
      </trkpt>
      <trkpt lat="46.56432" lon="6.03141">
        <ele>956.33</ele>
        <time>2019-06-09T09:05:07Z</time>
      </trkpt>
      <trkpt lat="46.5643" lon="6.03142">
        <ele>956.34</ele>
        <time>2019-06-09T09:05:08Z</time>
      </trkpt>
      <trkpt lat="46.56429" lon="6.03144">
        <ele>956.34</ele>
        <time>2019-06-09T09:05:09Z</time>
      </trkpt>
      <trkpt lat="46.56422" lon="6.0315">
        <ele>957.14</ele>
        <time>2019-06-09T09:05:15Z</time>
      </trkpt>
      <trkpt lat="46.56422" lon="6.03151">
        <ele>957.14</ele>
        <time>2019-06-09T09:05:16Z</time>
      </trkpt>
      <trkpt lat="46.56421" lon="6.03152">
        <ele>957.15</ele>
        <time>2019-06-09T09:05:17Z</time>
      </trkpt>
      <trkpt lat="46.56411" lon="6.03163">
        <ele>958.03</ele>
        <time>2019-06-09T09:05:30Z</time>
      </trkpt>
      <trkpt lat="46.56407" lon="6.03167">
        <ele>958.83</ele>
        <time>2019-06-09T09:05:33Z</time>
      </trkpt>
      <trkpt lat="46.56399" lon="6.0319">
        <ele>960.53</ele>
        <time>2019-06-09T09:05:47Z</time>
      </trkpt>
      <trkpt lat="46.56392" lon="6.03206">
        <ele>961.5</ele>
        <time>2019-06-09T09:05:56Z</time>
      </trkpt>
      <trkpt lat="46.56392" lon="6.03208">
        <ele>961.53</ele>
        <time>2019-06-09T09:05:57Z</time>
      </trkpt>
      <trkpt lat="46.5639" lon="6.03212">
        <ele>961.54</ele>
        <time>2019-06-09T09:05:59Z</time>
      </trkpt>
      <trkpt lat="46.56389" lon="6.03213">
        <ele>961.55</ele>
        <time>2019-06-09T09:06:00Z</time>
      </trkpt>
      <trkpt lat="46.56381" lon="6.03228">
        <ele>963.27</ele>
        <time>2019-06-09T09:06:09Z</time>
      </trkpt>
      <trkpt lat="46.56381" lon="6.0323">
        <ele>963.28</ele>
        <time>2019-06-09T09:06:10Z</time>
      </trkpt>
      <trkpt lat="46.56371" lon="6.03256">
        <ele>965.97</ele>
        <time>2019-06-09T09:06:26Z</time>
      </trkpt>
      <trkpt lat="46.56371" lon="6.03257">
        <ele>965.99</ele>
        <time>2019-06-09T09:06:27Z</time>
      </trkpt>
      <trkpt lat="46.5637" lon="6.03259">
        <ele>965.99</ele>
        <time>2019-06-09T09:06:28Z</time>
      </trkpt>
      <trkpt lat="46.56369" lon="6.03261">
        <ele>966.01</ele>
        <time>2019-06-09T09:06:29Z</time>
      </trkpt>
      <trkpt lat="46.56367" lon="6.03265">
        <ele>966.05</ele>
        <time>2019-06-09T09:06:31Z</time>
      </trkpt>
      <trkpt lat="46.56362" lon="6.03272">
        <ele>966.9</ele>
        <time>2019-06-09T09:06:36Z</time>
      </trkpt>
      <trkpt lat="46.56352" lon="6.03288">
        <ele>967.79</ele>
        <time>2019-06-09T09:06:44Z</time>
      </trkpt>
      <trkpt lat="46.56351" lon="6.0329">
        <ele>967.8</ele>
        <time>2019-06-09T09:06:45Z</time>
      </trkpt>
      <trkpt lat="46.5635" lon="6.03292">
        <ele>967.82</ele>
        <time>2019-06-09T09:06:46Z</time>
      </trkpt>
      <trkpt lat="46.5635" lon="6.03294">
        <ele>967.83</ele>
        <time>2019-06-09T09:06:47Z</time>
      </trkpt>
      <trkpt lat="46.56349" lon="6.03296">
        <ele>967.85</ele>
        <time>2019-06-09T09:06:48Z</time>
      </trkpt>
      <trkpt lat="46.56348" lon="6.033">
        <ele>967.87</ele>
        <time>2019-06-09T09:06:50Z</time>
      </trkpt>
      <trkpt lat="46.56344" lon="6.03316">
        <ele>968.83</ele>
        <time>2019-06-09T09:06:59Z</time>
      </trkpt>
      <trkpt lat="46.56343" lon="6.03318">
        <ele>968.85</ele>
        <time>2019-06-09T09:07:00Z</time>
      </trkpt>
      <trkpt lat="46.56343" lon="6.0332">
        <ele>968.87</ele>
        <time>2019-06-09T09:07:01Z</time>
      </trkpt>
      <trkpt lat="46.56329" lon="6.03333">
        <ele>969.83</ele>
        <time>2019-06-09T09:07:15Z</time>
      </trkpt>
      <trkpt lat="46.56323" lon="6.03338">
        <ele>969.9</ele>
        <time>2019-06-09T09:07:20Z</time>
      </trkpt>
      <trkpt lat="46.5632" lon="6.03338">
        <ele>969.93</ele>
        <time>2019-06-09T09:07:22Z</time>
      </trkpt>
      <trkpt lat="46.56318" lon="6.03339">
        <ele>969.94</ele>
        <time>2019-06-09T09:07:23Z</time>
      </trkpt>
      <trkpt lat="46.56313" lon="6.03336">
        <ele>969.99</ele>
        <time>2019-06-09T09:07:28Z</time>
      </trkpt>
      <trkpt lat="46.56312" lon="6.03335">
        <ele>970.02</ele>
        <time>2019-06-09T09:07:29Z</time>
      </trkpt>
      <trkpt lat="46.5631" lon="6.03334">
        <ele>970.04</ele>
        <time>2019-06-09T09:07:30Z</time>
      </trkpt>
      <trkpt lat="46.56309" lon="6.03333">
        <ele>967.6</ele>
        <time>2019-06-09T09:07:31Z</time>
      </trkpt>
      <trkpt lat="46.56308" lon="6.03332">
        <ele>967.66</ele>
        <time>2019-06-09T09:07:32Z</time>
      </trkpt>
      <trkpt lat="46.56307" lon="6.03331">
        <ele>967.64</ele>
        <time>2019-06-09T09:07:33Z</time>
      </trkpt>
      <trkpt lat="46.56306" lon="6.0333">
        <ele>967.66</ele>
        <time>2019-06-09T09:07:34Z</time>
      </trkpt>
      <trkpt lat="46.56306" lon="6.03327">
        <ele>966.82</ele>
        <time>2019-06-09T09:07:36Z</time>
      </trkpt>
      <trkpt lat="46.56308" lon="6.03312">
        <ele>967.02</ele>
        <time>2019-06-09T09:07:46Z</time>
      </trkpt>
      <trkpt lat="46.56307" lon="6.03311">
        <ele>966.18</ele>
        <time>2019-06-09T09:07:47Z</time>
      </trkpt>
      <trkpt lat="46.56303" lon="6.03309">
        <ele>966.24</ele>
        <time>2019-06-09T09:07:50Z</time>
      </trkpt>
      <trkpt lat="46.56298" lon="6.03309">
        <ele>965.46</ele>
        <time>2019-06-09T09:07:53Z</time>
      </trkpt>
      <trkpt lat="46.56282" lon="6.03307">
        <ele>964</ele>
        <time>2019-06-09T09:08:06Z</time>
      </trkpt>
      <trkpt lat="46.56278" lon="6.03299">
        <ele>964.14</ele>
        <time>2019-06-09T09:08:12Z</time>
      </trkpt>
      <trkpt lat="46.56278" lon="6.03298">
        <ele>964.16</ele>
        <time>2019-06-09T09:08:13Z</time>
      </trkpt>
      <trkpt lat="46.56277" lon="6.03294">
        <ele>964.23</ele>
        <time>2019-06-09T09:08:16Z</time>
      </trkpt>
      <trkpt lat="46.56275" lon="6.03292">
        <ele>964.25</ele>
        <time>2019-06-09T09:08:17Z</time>
      </trkpt>
      <trkpt lat="46.56274" lon="6.03291">
        <ele>964.27</ele>
        <time>2019-06-09T09:08:18Z</time>
      </trkpt>
      <trkpt lat="46.56268" lon="6.03277">
        <ele>964.5</ele>
        <time>2019-06-09T09:08:29Z</time>
      </trkpt>
      <trkpt lat="46.56267" lon="6.03276">
        <ele>964.53</ele>
        <time>2019-06-09T09:08:30Z</time>
      </trkpt>
      <trkpt lat="46.56273" lon="6.03256">
        <ele>964.8</ele>
        <time>2019-06-09T09:08:45Z</time>
      </trkpt>
      <trkpt lat="46.56269" lon="6.03243">
        <ele>967.32</ele>
        <time>2019-06-09T09:08:57Z</time>
      </trkpt>
      <trkpt lat="46.56264" lon="6.03239">
        <ele>967.43</ele>
        <time>2019-06-09T09:09:03Z</time>
      </trkpt>
      <trkpt lat="46.56262" lon="6.03239">
        <ele>967.45</ele>
        <time>2019-06-09T09:09:04Z</time>
      </trkpt>
      <trkpt lat="46.56258" lon="6.03249">
        <ele>967.72</ele>
        <time>2019-06-09T09:09:18Z</time>
      </trkpt>
      <trkpt lat="46.56252" lon="6.03247">
        <ele>965.57</ele>
        <time>2019-06-09T09:09:27Z</time>
      </trkpt>
      <trkpt lat="46.56233" lon="6.03248">
        <ele>965.19</ele>
        <time>2019-06-09T09:09:46Z</time>
      </trkpt>
      <trkpt lat="46.56216" lon="6.03244">
        <ele>965.52</ele>
        <time>2019-06-09T09:10:01Z</time>
      </trkpt>
      <trkpt lat="46.56215" lon="6.03243">
        <ele>965.53</ele>
        <time>2019-06-09T09:10:02Z</time>
      </trkpt>
      <trkpt lat="46.56197" lon="6.03234">
        <ele>964.27</ele>
        <time>2019-06-09T09:10:19Z</time>
      </trkpt>
      <trkpt lat="46.56192" lon="6.03241">
        <ele>964.41</ele>
        <time>2019-06-09T09:10:25Z</time>
      </trkpt>
      <trkpt lat="46.5619" lon="6.03242">
        <ele>964.45</ele>
        <time>2019-06-09T09:10:26Z</time>
      </trkpt>
      <trkpt lat="46.56188" lon="6.03243">
        <ele>964.46</ele>
        <time>2019-06-09T09:10:27Z</time>
      </trkpt>
      <trkpt lat="46.56186" lon="6.03244">
        <ele>964.49</ele>
        <time>2019-06-09T09:10:28Z</time>
      </trkpt>
      <trkpt lat="46.56184" lon="6.03244">
        <ele>963.75</ele>
        <time>2019-06-09T09:10:29Z</time>
      </trkpt>
      <trkpt lat="46.56182" lon="6.03244">
        <ele>963.77</ele>
        <time>2019-06-09T09:10:30Z</time>
      </trkpt>
      <trkpt lat="46.56161" lon="6.0324">
        <ele>963.17</ele>
        <time>2019-06-09T09:10:40Z</time>
      </trkpt>
      <trkpt lat="46.5614" lon="6.03241">
        <ele>963.47</ele>
        <time>2019-06-09T09:10:53Z</time>
      </trkpt>
      <trkpt lat="46.56129" lon="6.03238">
        <ele>966.02</ele>
        <time>2019-06-09T09:11:02Z</time>
      </trkpt>
      <trkpt lat="46.56128" lon="6.03236">
        <ele>966.04</ele>
        <time>2019-06-09T09:11:03Z</time>
      </trkpt>
      <trkpt lat="46.56127" lon="6.03235">
        <ele>966.06</ele>
        <time>2019-06-09T09:11:04Z</time>
      </trkpt>
      <trkpt lat="46.56126" lon="6.03234">
        <ele>966.08</ele>
        <time>2019-06-09T09:11:05Z</time>
      </trkpt>
      <trkpt lat="46.56125" lon="6.03233">
        <ele>966.1</ele>
        <time>2019-06-09T09:11:06Z</time>
      </trkpt>
      <trkpt lat="46.56116" lon="6.03213">
        <ele>966.38</ele>
        <time>2019-06-09T09:11:21Z</time>
      </trkpt>
      <trkpt lat="46.56117" lon="6.03211">
        <ele>966.4</ele>
        <time>2019-06-09T09:11:22Z</time>
      </trkpt>
      <trkpt lat="46.56117" lon="6.03209">
        <ele>966.42</ele>
        <time>2019-06-09T09:11:23Z</time>
      </trkpt>
      <trkpt lat="46.56118" lon="6.03207">
        <ele>966.43</ele>
        <time>2019-06-09T09:11:24Z</time>
      </trkpt>
      <trkpt lat="46.56118" lon="6.03205">
        <ele>966.44</ele>
        <time>2019-06-09T09:11:25Z</time>
      </trkpt>
      <trkpt lat="46.56127" lon="6.0318">
        <ele>966.66</ele>
        <time>2019-06-09T09:11:37Z</time>
      </trkpt>
      <trkpt lat="46.56129" lon="6.03173">
        <ele>966.71</ele>
        <time>2019-06-09T09:11:40Z</time>
      </trkpt>
      <trkpt lat="46.5613" lon="6.03172">
        <ele>966.73</ele>
        <time>2019-06-09T09:11:41Z</time>
      </trkpt>
      <trkpt lat="46.56131" lon="6.0317">
        <ele>966.74</ele>
        <time>2019-06-09T09:11:42Z</time>
      </trkpt>
      <trkpt lat="46.56131" lon="6.03168">
        <ele>966.76</ele>
        <time>2019-06-09T09:11:43Z</time>
      </trkpt>
      <trkpt lat="46.56132" lon="6.03166">
        <ele>966.78</ele>
        <time>2019-06-09T09:11:44Z</time>
      </trkpt>
      <trkpt lat="46.56133" lon="6.03164">
        <ele>966.79</ele>
        <time>2019-06-09T09:11:45Z</time>
      </trkpt>
      <trkpt lat="46.56134" lon="6.03162">
        <ele>966.81</ele>
        <time>2019-06-09T09:11:46Z</time>
      </trkpt>
      <trkpt lat="46.56141" lon="6.03143">
        <ele>966.95</ele>
        <time>2019-06-09T09:11:57Z</time>
      </trkpt>
      <trkpt lat="46.56141" lon="6.03141">
        <ele>966.97</ele>
        <time>2019-06-09T09:11:58Z</time>
      </trkpt>
      <trkpt lat="46.56141" lon="6.03139">
        <ele>966.98</ele>
        <time>2019-06-09T09:11:59Z</time>
      </trkpt>
      <trkpt lat="46.56141" lon="6.03137">
        <ele>966.99</ele>
        <time>2019-06-09T09:12:00Z</time>
      </trkpt>
      <trkpt lat="46.56141" lon="6.03135">
        <ele>967</ele>
        <time>2019-06-09T09:12:01Z</time>
      </trkpt>
      <trkpt lat="46.56143" lon="6.03124">
        <ele>967.05</ele>
        <time>2019-06-09T09:12:05Z</time>
      </trkpt>
      <trkpt lat="46.56147" lon="6.03094">
        <ele>967.18</ele>
        <time>2019-06-09T09:12:17Z</time>
      </trkpt>
      <trkpt lat="46.56146" lon="6.03078">
        <ele>968.16</ele>
        <time>2019-06-09T09:12:24Z</time>
      </trkpt>
      <trkpt lat="46.56146" lon="6.03076">
        <ele>968.17</ele>
        <time>2019-06-09T09:12:25Z</time>
      </trkpt>
      <trkpt lat="46.56145" lon="6.03072">
        <ele>968.2</ele>
        <time>2019-06-09T09:12:28Z</time>
      </trkpt>
      <trkpt lat="46.56147" lon="6.03059">
        <ele>968.3</ele>
        <time>2019-06-09T09:12:37Z</time>
      </trkpt>
      <trkpt lat="46.56153" lon="6.0302">
        <ele>968.48</ele>
        <time>2019-06-09T09:12:55Z</time>
      </trkpt>
      <trkpt lat="46.56141" lon="6.0299">
        <ele>968.67</ele>
        <time>2019-06-09T09:13:12Z</time>
      </trkpt>
      <trkpt lat="46.5614" lon="6.02989">
        <ele>968.68</ele>
        <time>2019-06-09T09:13:13Z</time>
      </trkpt>
      <trkpt lat="46.56135" lon="6.0297">
        <ele>969.6</ele>
        <time>2019-06-09T09:13:24Z</time>
      </trkpt>
      <trkpt lat="46.56134" lon="6.02968">
        <ele>969.62</ele>
        <time>2019-06-09T09:13:25Z</time>
      </trkpt>
      <trkpt lat="46.56126" lon="6.0295">
        <ele>969.73</ele>
        <time>2019-06-09T09:13:36Z</time>
      </trkpt>
      <trkpt lat="46.56124" lon="6.02945">
        <ele>969.76</ele>
        <time>2019-06-09T09:13:39Z</time>
      </trkpt>
      <trkpt lat="46.56112" lon="6.02929">
        <ele>969.91</ele>
        <time>2019-06-09T09:13:53Z</time>
      </trkpt>
      <trkpt lat="46.56107" lon="6.02918">
        <ele>967.5</ele>
        <time>2019-06-09T09:13:59Z</time>
      </trkpt>
      <trkpt lat="46.56106" lon="6.02916">
        <ele>967.4</ele>
        <time>2019-06-09T09:14:00Z</time>
      </trkpt>
      <trkpt lat="46.56099" lon="6.02898">
        <ele>966.88</ele>
        <time>2019-06-09T09:14:13Z</time>
      </trkpt>
      <trkpt lat="46.56082" lon="6.02873">
        <ele>967.1</ele>
        <time>2019-06-09T09:14:30Z</time>
      </trkpt>
      <trkpt lat="46.56069" lon="6.02857">
        <ele>967.22</ele>
        <time>2019-06-09T09:14:41Z</time>
      </trkpt>
      <trkpt lat="46.56061" lon="6.02841">
        <ele>967.3</ele>
        <time>2019-06-09T09:14:50Z</time>
      </trkpt>
      <trkpt lat="46.56061" lon="6.02837">
        <ele>965.95</ele>
        <time>2019-06-09T09:14:52Z</time>
      </trkpt>
      <trkpt lat="46.5606" lon="6.0283">
        <ele>964.17</ele>
        <time>2019-06-09T09:14:56Z</time>
      </trkpt>
      <trkpt lat="46.56058" lon="6.02827">
        <ele>964.31</ele>
        <time>2019-06-09T09:14:57Z</time>
      </trkpt>
      <trkpt lat="46.56057" lon="6.02824">
        <ele>964.15</ele>
        <time>2019-06-09T09:14:58Z</time>
      </trkpt>
      <trkpt lat="46.56054" lon="6.02819">
        <ele>963.05</ele>
        <time>2019-06-09T09:15:00Z</time>
      </trkpt>
      <trkpt lat="46.56043" lon="6.0279">
        <ele>961.3</ele>
        <time>2019-06-09T09:15:11Z</time>
      </trkpt>
      <trkpt lat="46.56032" lon="6.02763">
        <ele>958.8</ele>
        <time>2019-06-09T09:15:24Z</time>
      </trkpt>
      <trkpt lat="46.56031" lon="6.02761">
        <ele>958.92</ele>
        <time>2019-06-09T09:15:25Z</time>
      </trkpt>
      <trkpt lat="46.5603" lon="6.02759">
        <ele>958.05</ele>
        <time>2019-06-09T09:15:26Z</time>
      </trkpt>
      <trkpt lat="46.56016" lon="6.02749">
        <ele>956.2</ele>
        <time>2019-06-09T09:15:37Z</time>
      </trkpt>
      <trkpt lat="46.55997" lon="6.02733">
        <ele>952.49</ele>
        <time>2019-06-09T09:15:53Z</time>
      </trkpt>
      <trkpt lat="46.55978" lon="6.0273">
        <ele>949.94</ele>
        <time>2019-06-09T09:16:04Z</time>
      </trkpt>
      <trkpt lat="46.55959" lon="6.02725">
        <ele>947.04</ele>
        <time>2019-06-09T09:16:14Z</time>
      </trkpt>
      <trkpt lat="46.55949" lon="6.02728">
        <ele>946.27</ele>
        <time>2019-06-09T09:16:23Z</time>
      </trkpt>
      <trkpt lat="46.55947" lon="6.02729">
        <ele>946.28</ele>
        <time>2019-06-09T09:16:24Z</time>
      </trkpt>
      <trkpt lat="46.55942" lon="6.02727">
        <ele>945.55</ele>
        <time>2019-06-09T09:16:28Z</time>
      </trkpt>
      <trkpt lat="46.5594" lon="6.02727">
        <ele>945.54</ele>
        <time>2019-06-09T09:16:29Z</time>
      </trkpt>
      <trkpt lat="46.55928" lon="6.02729">
        <ele>943.52</ele>
        <time>2019-06-09T09:16:38Z</time>
      </trkpt>
      <trkpt lat="46.55915" lon="6.0274">
        <ele>942.78</ele>
        <time>2019-06-09T09:16:48Z</time>
      </trkpt>
      <trkpt lat="46.55912" lon="6.02738">
        <ele>942.91</ele>
        <time>2019-06-09T09:16:50Z</time>
      </trkpt>
      <trkpt lat="46.5591" lon="6.02738">
        <ele>942.92</ele>
        <time>2019-06-09T09:16:51Z</time>
      </trkpt>
      <trkpt lat="46.55886" lon="6.02751">
        <ele>941.88</ele>
        <time>2019-06-09T09:17:06Z</time>
      </trkpt>
      <trkpt lat="46.55866" lon="6.0275">
        <ele>941.12</ele>
        <time>2019-06-09T09:17:19Z</time>
      </trkpt>
      <trkpt lat="46.55854" lon="6.02752">
        <ele>940.24</ele>
        <time>2019-06-09T09:17:26Z</time>
      </trkpt>
      <trkpt lat="46.55852" lon="6.02751">
        <ele>939.54</ele>
        <time>2019-06-09T09:17:27Z</time>
      </trkpt>
      <trkpt lat="46.55848" lon="6.0275">
        <ele>939.47</ele>
        <time>2019-06-09T09:17:29Z</time>
      </trkpt>
      <trkpt lat="46.55841" lon="6.02746">
        <ele>937.32</ele>
        <time>2019-06-09T09:17:34Z</time>
      </trkpt>
      <trkpt lat="46.55835" lon="6.02746">
        <ele>936.36</ele>
        <time>2019-06-09T09:17:37Z</time>
      </trkpt>
      <trkpt lat="46.55823" lon="6.02745">
        <ele>936.43</ele>
        <time>2019-06-09T09:17:47Z</time>
      </trkpt>
      <trkpt lat="46.55818" lon="6.02742">
        <ele>935.4</ele>
        <time>2019-06-09T09:17:51Z</time>
      </trkpt>
      <trkpt lat="46.55815" lon="6.02741">
        <ele>935.42</ele>
        <time>2019-06-09T09:17:52Z</time>
      </trkpt>
      <trkpt lat="46.55813" lon="6.02741">
        <ele>935.42</ele>
        <time>2019-06-09T09:17:53Z</time>
      </trkpt>
      <trkpt lat="46.55804" lon="6.02735">
        <ele>934.65</ele>
        <time>2019-06-09T09:18:01Z</time>
      </trkpt>
      <trkpt lat="46.55795" lon="6.02726">
        <ele>932.88</ele>
        <time>2019-06-09T09:18:11Z</time>
      </trkpt>
      <trkpt lat="46.5579" lon="6.02722">
        <ele>932.91</ele>
        <time>2019-06-09T09:18:15Z</time>
      </trkpt>
      <trkpt lat="46.55776" lon="6.02711">
        <ele>930.3</ele>
        <time>2019-06-09T09:18:28Z</time>
      </trkpt>
      <trkpt lat="46.55759" lon="6.02696">
        <ele>927.45</ele>
        <time>2019-06-09T09:18:43Z</time>
      </trkpt>
      <trkpt lat="46.55747" lon="6.02683">
        <ele>923.88</ele>
        <time>2019-06-09T09:18:53Z</time>
      </trkpt>
      <trkpt lat="46.55735" lon="6.02669">
        <ele>923.2</ele>
        <time>2019-06-09T09:19:03Z</time>
      </trkpt>
      <trkpt lat="46.55733" lon="6.02667">
        <ele>923.24</ele>
        <time>2019-06-09T09:19:04Z</time>
      </trkpt>
      <trkpt lat="46.55731" lon="6.02666">
        <ele>923.28</ele>
        <time>2019-06-09T09:19:05Z</time>
      </trkpt>
      <trkpt lat="46.55726" lon="6.02661">
        <ele>922.51</ele>
        <time>2019-06-09T09:19:09Z</time>
      </trkpt>
      <trkpt lat="46.55709" lon="6.02651">
        <ele>920.95</ele>
        <time>2019-06-09T09:19:22Z</time>
      </trkpt>
      <trkpt lat="46.55694" lon="6.02644">
        <ele>918.19</ele>
        <time>2019-06-09T09:19:32Z</time>
      </trkpt>
      <trkpt lat="46.5569" lon="6.02643">
        <ele>917.33</ele>
        <time>2019-06-09T09:19:35Z</time>
      </trkpt>
      <trkpt lat="46.55686" lon="6.02639">
        <ele>917.35</ele>
        <time>2019-06-09T09:19:38Z</time>
      </trkpt>
      <trkpt lat="46.55669" lon="6.02631">
        <ele>914</ele>
        <time>2019-06-09T09:19:49Z</time>
      </trkpt>
      <trkpt lat="46.55667" lon="6.0263">
        <ele>914</ele>
        <time>2019-06-09T09:19:50Z</time>
      </trkpt>
      <trkpt lat="46.55661" lon="6.02626">
        <ele>913.1</ele>
        <time>2019-06-09T09:19:54Z</time>
      </trkpt>
      <trkpt lat="46.5566" lon="6.02626">
        <ele>913.08</ele>
        <time>2019-06-09T09:19:55Z</time>
      </trkpt>
      <trkpt lat="46.55647" lon="6.02618">
        <ele>911.15</ele>
        <time>2019-06-09T09:20:04Z</time>
      </trkpt>
      <trkpt lat="46.55646" lon="6.02618">
        <ele>911.18</ele>
        <time>2019-06-09T09:20:05Z</time>
      </trkpt>
      <trkpt lat="46.55643" lon="6.02613">
        <ele>910.35</ele>
        <time>2019-06-09T09:20:19Z</time>
      </trkpt>
      <trkpt lat="46.55644" lon="6.02609">
        <ele>910.53</ele>
        <time>2019-06-09T09:20:36Z</time>
      </trkpt>
      <trkpt lat="46.55637" lon="6.02607">
        <ele>910.62</ele>
        <time>2019-06-09T09:20:50Z</time>
      </trkpt>
      <trkpt lat="46.55631" lon="6.02608">
        <ele>910.64</ele>
        <time>2019-06-09T09:20:54Z</time>
      </trkpt>
      <trkpt lat="46.5563" lon="6.02608">
        <ele>910.64</ele>
        <time>2019-06-09T09:20:55Z</time>
      </trkpt>
      <trkpt lat="46.55628" lon="6.02607">
        <ele>910.64</ele>
        <time>2019-06-09T09:20:56Z</time>
      </trkpt>
      <trkpt lat="46.55627" lon="6.02606">
        <ele>910.64</ele>
        <time>2019-06-09T09:20:57Z</time>
      </trkpt>
      <trkpt lat="46.55625" lon="6.02605">
        <ele>910.66</ele>
        <time>2019-06-09T09:20:58Z</time>
      </trkpt>
      <trkpt lat="46.55623" lon="6.02604">
        <ele>910.67</ele>
        <time>2019-06-09T09:20:59Z</time>
      </trkpt>
      <trkpt lat="46.55622" lon="6.02602">
        <ele>910.66</ele>
        <time>2019-06-09T09:21:00Z</time>
      </trkpt>
      <trkpt lat="46.55621" lon="6.02601">
        <ele>910.66</ele>
        <time>2019-06-09T09:21:01Z</time>
      </trkpt>
      <trkpt lat="46.5562" lon="6.02601">
        <ele>910.67</ele>
        <time>2019-06-09T09:21:02Z</time>
      </trkpt>
      <trkpt lat="46.55604" lon="6.0259">
        <ele>910.81</ele>
        <time>2019-06-09T09:21:15Z</time>
      </trkpt>
      <trkpt lat="46.55581" lon="6.0257">
        <ele>913.96</ele>
        <time>2019-06-09T09:21:33Z</time>
      </trkpt>
      <trkpt lat="46.5558" lon="6.02569">
        <ele>913.97</ele>
        <time>2019-06-09T09:21:34Z</time>
      </trkpt>
      <trkpt lat="46.55577" lon="6.02567">
        <ele>910.35</ele>
        <time>2019-06-09T09:21:36Z</time>
      </trkpt>
      <trkpt lat="46.55576" lon="6.02566">
        <ele>910.36</ele>
        <time>2019-06-09T09:21:37Z</time>
      </trkpt>
      <trkpt lat="46.55567" lon="6.0254">
        <ele>910.47</ele>
        <time>2019-06-09T09:21:52Z</time>
      </trkpt>
      <trkpt lat="46.55566" lon="6.02506">
        <ele>910.75</ele>
        <time>2019-06-09T09:22:09Z</time>
      </trkpt>
      <trkpt lat="46.55566" lon="6.02495">
        <ele>913.67</ele>
        <time>2019-06-09T09:22:15Z</time>
      </trkpt>
      <trkpt lat="46.55566" lon="6.02488">
        <ele>911.29</ele>
        <time>2019-06-09T09:22:18Z</time>
      </trkpt>
      <trkpt lat="46.55567" lon="6.02482">
        <ele>907.3</ele>
        <time>2019-06-09T09:22:21Z</time>
      </trkpt>
      <trkpt lat="46.55567" lon="6.02478">
        <ele>913.68</ele>
        <time>2019-06-09T09:22:23Z</time>
      </trkpt>
      <trkpt lat="46.55568" lon="6.02476">
        <ele>913.65</ele>
        <time>2019-06-09T09:22:24Z</time>
      </trkpt>
      <trkpt lat="46.55568" lon="6.0247">
        <ele>911.11</ele>
        <time>2019-06-09T09:22:27Z</time>
      </trkpt>
      <trkpt lat="46.55577" lon="6.02437">
        <ele>909.89</ele>
        <time>2019-06-09T09:22:44Z</time>
      </trkpt>
      <trkpt lat="46.55585" lon="6.02414">
        <ele>909.18</ele>
        <time>2019-06-09T09:22:57Z</time>
      </trkpt>
      <trkpt lat="46.55586" lon="6.02412">
        <ele>909.22</ele>
        <time>2019-06-09T09:22:58Z</time>
      </trkpt>
      <trkpt lat="46.55594" lon="6.0239">
        <ele>909.38</ele>
        <time>2019-06-09T09:23:11Z</time>
      </trkpt>
      <trkpt lat="46.5561" lon="6.02352">
        <ele>908.67</ele>
        <time>2019-06-09T09:23:32Z</time>
      </trkpt>
      <trkpt lat="46.55622" lon="6.02322">
        <ele>908.91</ele>
        <time>2019-06-09T09:23:49Z</time>
      </trkpt>
      <trkpt lat="46.55632" lon="6.0231">
        <ele>908.99</ele>
        <time>2019-06-09T09:23:57Z</time>
      </trkpt>
      <trkpt lat="46.55647" lon="6.02288">
        <ele>908.43</ele>
        <time>2019-06-09T09:24:13Z</time>
      </trkpt>
      <trkpt lat="46.55658" lon="6.02263">
        <ele>908.63</ele>
        <time>2019-06-09T09:24:27Z</time>
      </trkpt>
      <trkpt lat="46.55674" lon="6.02234">
        <ele>908.87</ele>
        <time>2019-06-09T09:24:44Z</time>
      </trkpt>
      <trkpt lat="46.5569" lon="6.02211">
        <ele>908.34</ele>
        <time>2019-06-09T09:25:00Z</time>
      </trkpt>
      <trkpt lat="46.557" lon="6.022">
        <ele>908.57</ele>
        <time>2019-06-09T09:25:12Z</time>
      </trkpt>
      <trkpt lat="46.55704" lon="6.02193">
        <ele>908.61</ele>
        <time>2019-06-09T09:25:17Z</time>
      </trkpt>
      <trkpt lat="46.55716" lon="6.02172">
        <ele>908.83</ele>
        <time>2019-06-09T09:25:31Z</time>
      </trkpt>
      <trkpt lat="46.55732" lon="6.02143">
        <ele>909.16</ele>
        <time>2019-06-09T09:25:50Z</time>
      </trkpt>
      <trkpt lat="46.55743" lon="6.02125">
        <ele>908.59</ele>
        <time>2019-06-09T09:26:02Z</time>
      </trkpt>
      <trkpt lat="46.55761" lon="6.02098">
        <ele>908.88</ele>
        <time>2019-06-09T09:26:19Z</time>
      </trkpt>
      <trkpt lat="46.55778" lon="6.02084">
        <ele>909.19</ele>
        <time>2019-06-09T09:26:36Z</time>
      </trkpt>
      <trkpt lat="46.55797" lon="6.02096">
        <ele>909.41</ele>
        <time>2019-06-09T09:26:50Z</time>
      </trkpt>
      <trkpt lat="46.55816" lon="6.02111">
        <ele>909.64</ele>
        <time>2019-06-09T09:27:05Z</time>
      </trkpt>
      <trkpt lat="46.55834" lon="6.02124">
        <ele>909.82</ele>
        <time>2019-06-09T09:27:20Z</time>
      </trkpt>
      <trkpt lat="46.55853" lon="6.02136">
        <ele>909.98</ele>
        <time>2019-06-09T09:27:35Z</time>
      </trkpt>
      <trkpt lat="46.55874" lon="6.02149">
        <ele>910.13</ele>
        <time>2019-06-09T09:27:50Z</time>
      </trkpt>
      <trkpt lat="46.55893" lon="6.0216">
        <ele>910.27</ele>
        <time>2019-06-09T09:28:04Z</time>
      </trkpt>
      <trkpt lat="46.55903" lon="6.02166">
        <ele>910.33</ele>
        <time>2019-06-09T09:28:11Z</time>
      </trkpt>
      <trkpt lat="46.5592" lon="6.02176">
        <ele>910.45</ele>
        <time>2019-06-09T09:28:24Z</time>
      </trkpt>
      <trkpt lat="46.55949" lon="6.02189">
        <ele>910.64</ele>
        <time>2019-06-09T09:28:44Z</time>
      </trkpt>
      <trkpt lat="46.55952" lon="6.02191">
        <ele>912.97</ele>
        <time>2019-06-09T09:28:47Z</time>
      </trkpt>
      <trkpt lat="46.55969" lon="6.02202">
        <ele>913.09</ele>
        <time>2019-06-09T09:29:02Z</time>
      </trkpt>
      <trkpt lat="46.55982" lon="6.02212">
        <ele>913.18</ele>
        <time>2019-06-09T09:29:14Z</time>
      </trkpt>
      <trkpt lat="46.55999" lon="6.02223">
        <ele>914.05</ele>
        <time>2019-06-09T09:29:27Z</time>
      </trkpt>
      <trkpt lat="46.56009" lon="6.0223">
        <ele>914.09</ele>
        <time>2019-06-09T09:29:35Z</time>
      </trkpt>
      <trkpt lat="46.56027" lon="6.02243">
        <ele>914.14</ele>
        <time>2019-06-09T09:29:48Z</time>
      </trkpt>
      <trkpt lat="46.5603" lon="6.02244">
        <ele>914.14</ele>
        <time>2019-06-09T09:29:50Z</time>
      </trkpt>
      <trkpt lat="46.56051" lon="6.0226">
        <ele>914.95</ele>
        <time>2019-06-09T09:30:06Z</time>
      </trkpt>
      <trkpt lat="46.56074" lon="6.02273">
        <ele>915.9</ele>
        <time>2019-06-09T09:30:23Z</time>
      </trkpt>
      <trkpt lat="46.56104" lon="6.02288">
        <ele>917</ele>
        <time>2019-06-09T09:30:46Z</time>
      </trkpt>
      <trkpt lat="46.56134" lon="6.02292">
        <ele>917.14</ele>
        <time>2019-06-09T09:31:07Z</time>
      </trkpt>
      <trkpt lat="46.56156" lon="6.02291">
        <ele>918.2</ele>
        <time>2019-06-09T09:31:22Z</time>
      </trkpt>
      <trkpt lat="46.56181" lon="6.02287">
        <ele>919.17</ele>
        <time>2019-06-09T09:31:39Z</time>
      </trkpt>
      <trkpt lat="46.56209" lon="6.02286">
        <ele>920.13</ele>
        <time>2019-06-09T09:31:59Z</time>
      </trkpt>
      <trkpt lat="46.5623" lon="6.02292">
        <ele>921.08</ele>
        <time>2019-06-09T09:32:15Z</time>
      </trkpt>
      <trkpt lat="46.56257" lon="6.02291">
        <ele>922.02</ele>
        <time>2019-06-09T09:32:35Z</time>
      </trkpt>
      <trkpt lat="46.56272" lon="6.02285">
        <ele>922.96</ele>
        <time>2019-06-09T09:32:47Z</time>
      </trkpt>
      <trkpt lat="46.56284" lon="6.02279">
        <ele>924.75</ele>
        <time>2019-06-09T09:32:59Z</time>
      </trkpt>
      <trkpt lat="46.56284" lon="6.02277">
        <ele>924.74</ele>
        <time>2019-06-09T09:33:00Z</time>
      </trkpt>
      <trkpt lat="46.56284" lon="6.02274">
        <ele>924.77</ele>
        <time>2019-06-09T09:33:02Z</time>
      </trkpt>
      <trkpt lat="46.56283" lon="6.02272">
        <ele>925.58</ele>
        <time>2019-06-09T09:33:03Z</time>
      </trkpt>
      <trkpt lat="46.56282" lon="6.0227">
        <ele>925.58</ele>
        <time>2019-06-09T09:33:04Z</time>
      </trkpt>
      <trkpt lat="46.56281" lon="6.02268">
        <ele>925.59</ele>
        <time>2019-06-09T09:33:05Z</time>
      </trkpt>
      <trkpt lat="46.5628" lon="6.02266">
        <ele>925.6</ele>
        <time>2019-06-09T09:33:06Z</time>
      </trkpt>
      <trkpt lat="46.56279" lon="6.02264">
        <ele>925.62</ele>
        <time>2019-06-09T09:33:07Z</time>
      </trkpt>
      <trkpt lat="46.56278" lon="6.02261">
        <ele>925.62</ele>
        <time>2019-06-09T09:33:08Z</time>
      </trkpt>
      <trkpt lat="46.56277" lon="6.02259">
        <ele>925.62</ele>
        <time>2019-06-09T09:33:09Z</time>
      </trkpt>
      <trkpt lat="46.56277" lon="6.02257">
        <ele>925.63</ele>
        <time>2019-06-09T09:33:10Z</time>
      </trkpt>
      <trkpt lat="46.56276" lon="6.02255">
        <ele>925.64</ele>
        <time>2019-06-09T09:33:11Z</time>
      </trkpt>
      <trkpt lat="46.56275" lon="6.02253">
        <ele>925.65</ele>
        <time>2019-06-09T09:33:12Z</time>
      </trkpt>
      <trkpt lat="46.56266" lon="6.02228">
        <ele>925.76</ele>
        <time>2019-06-09T09:33:25Z</time>
      </trkpt>
      <trkpt lat="46.56266" lon="6.02226">
        <ele>925.78</ele>
        <time>2019-06-09T09:33:26Z</time>
      </trkpt>
      <trkpt lat="46.56265" lon="6.02225">
        <ele>925.79</ele>
        <time>2019-06-09T09:33:27Z</time>
      </trkpt>
      <trkpt lat="46.56265" lon="6.02223">
        <ele>925.8</ele>
        <time>2019-06-09T09:33:28Z</time>
      </trkpt>
      <trkpt lat="46.56254" lon="6.02192">
        <ele>925.96</ele>
        <time>2019-06-09T09:33:44Z</time>
      </trkpt>
      <trkpt lat="46.56254" lon="6.02191">
        <ele>925.96</ele>
        <time>2019-06-09T09:33:45Z</time>
      </trkpt>
      <trkpt lat="46.56253" lon="6.02189">
        <ele>925.97</ele>
        <time>2019-06-09T09:33:46Z</time>
      </trkpt>
      <trkpt lat="46.56253" lon="6.02186">
        <ele>925.98</ele>
        <time>2019-06-09T09:33:47Z</time>
      </trkpt>
      <trkpt lat="46.56252" lon="6.02185">
        <ele>925.99</ele>
        <time>2019-06-09T09:33:48Z</time>
      </trkpt>
      <trkpt lat="46.56251" lon="6.02182">
        <ele>926</ele>
        <time>2019-06-09T09:33:49Z</time>
      </trkpt>
      <trkpt lat="46.56244" lon="6.02165">
        <ele>926.07</ele>
        <time>2019-06-09T09:33:58Z</time>
      </trkpt>
      <trkpt lat="46.56243" lon="6.02163">
        <ele>926.08</ele>
        <time>2019-06-09T09:33:59Z</time>
      </trkpt>
      <trkpt lat="46.56236" lon="6.02151">
        <ele>926.14</ele>
        <time>2019-06-09T09:34:08Z</time>
      </trkpt>
      <trkpt lat="46.56236" lon="6.02148">
        <ele>926.14</ele>
        <time>2019-06-09T09:34:09Z</time>
      </trkpt>
      <trkpt lat="46.56237" lon="6.02146">
        <ele>926.15</ele>
        <time>2019-06-09T09:34:10Z</time>
      </trkpt>
      <trkpt lat="46.56237" lon="6.02143">
        <ele>926.16</ele>
        <time>2019-06-09T09:34:11Z</time>
      </trkpt>
      <trkpt lat="46.56237" lon="6.02141">
        <ele>926.18</ele>
        <time>2019-06-09T09:34:12Z</time>
      </trkpt>
      <trkpt lat="46.56236" lon="6.02139">
        <ele>926.17</ele>
        <time>2019-06-09T09:34:13Z</time>
      </trkpt>
      <trkpt lat="46.56231" lon="6.02111">
        <ele>926.23</ele>
        <time>2019-06-09T09:34:27Z</time>
      </trkpt>
      <trkpt lat="46.56228" lon="6.02077">
        <ele>926.35</ele>
        <time>2019-06-09T09:34:42Z</time>
      </trkpt>
      <trkpt lat="46.56226" lon="6.0205">
        <ele>926.43</ele>
        <time>2019-06-09T09:34:55Z</time>
      </trkpt>
      <trkpt lat="46.56225" lon="6.02039">
        <ele>924.11</ele>
        <time>2019-06-09T09:35:00Z</time>
      </trkpt>
      <trkpt lat="46.56221" lon="6.02009">
        <ele>924.22</ele>
        <time>2019-06-09T09:35:15Z</time>
      </trkpt>
      <trkpt lat="46.56221" lon="6.01981">
        <ele>923.46</ele>
        <time>2019-06-09T09:35:29Z</time>
      </trkpt>
      <trkpt lat="46.56226" lon="6.01972">
        <ele>923.55</ele>
        <time>2019-06-09T09:35:40Z</time>
      </trkpt>
      <trkpt lat="46.56232" lon="6.01982">
        <ele>923.61</ele>
        <time>2019-06-09T09:35:49Z</time>
      </trkpt>
      <trkpt lat="46.56233" lon="6.01983">
        <ele>923.62</ele>
        <time>2019-06-09T09:35:50Z</time>
      </trkpt>
      <trkpt lat="46.56248" lon="6.0199">
        <ele>923.71</ele>
        <time>2019-06-09T09:36:02Z</time>
      </trkpt>
      <trkpt lat="46.56257" lon="6.01989">
        <ele>926.02</ele>
        <time>2019-06-09T09:36:09Z</time>
      </trkpt>
      <trkpt lat="46.56272" lon="6.01978">
        <ele>926.91</ele>
        <time>2019-06-09T09:36:20Z</time>
      </trkpt>
      <trkpt lat="46.56279" lon="6.01965">
        <ele>927.74</ele>
        <time>2019-06-09T09:36:31Z</time>
      </trkpt>
      <trkpt lat="46.5628" lon="6.01964">
        <ele>927.74</ele>
        <time>2019-06-09T09:36:32Z</time>
      </trkpt>
      <trkpt lat="46.5628" lon="6.01961">
        <ele>927.72</ele>
        <time>2019-06-09T09:36:33Z</time>
      </trkpt>
      <trkpt lat="46.5628" lon="6.0196">
        <ele>927.73</ele>
        <time>2019-06-09T09:36:34Z</time>
      </trkpt>
      <trkpt lat="46.56281" lon="6.01958">
        <ele>927.73</ele>
        <time>2019-06-09T09:36:35Z</time>
      </trkpt>
      <trkpt lat="46.56281" lon="6.01956">
        <ele>927.73</ele>
        <time>2019-06-09T09:36:36Z</time>
      </trkpt>
      <trkpt lat="46.56282" lon="6.01955">
        <ele>928.5</ele>
        <time>2019-06-09T09:36:37Z</time>
      </trkpt>
      <trkpt lat="46.56282" lon="6.01953">
        <ele>928.51</ele>
        <time>2019-06-09T09:36:38Z</time>
      </trkpt>
      <trkpt lat="46.56283" lon="6.01951">
        <ele>928.53</ele>
        <time>2019-06-09T09:36:39Z</time>
      </trkpt>
      <trkpt lat="46.56283" lon="6.01949">
        <ele>928.53</ele>
        <time>2019-06-09T09:36:40Z</time>
      </trkpt>
      <trkpt lat="46.56293" lon="6.01929">
        <ele>930.19</ele>
        <time>2019-06-09T09:36:53Z</time>
      </trkpt>
      <trkpt lat="46.56302" lon="6.01906">
        <ele>931.97</ele>
        <time>2019-06-09T09:37:07Z</time>
      </trkpt>
      <trkpt lat="46.56308" lon="6.01892">
        <ele>933.86</ele>
        <time>2019-06-09T09:37:17Z</time>
      </trkpt>
      <trkpt lat="46.56308" lon="6.0189">
        <ele>933.86</ele>
        <time>2019-06-09T09:37:18Z</time>
      </trkpt>
      <trkpt lat="46.56308" lon="6.01888">
        <ele>933.89</ele>
        <time>2019-06-09T09:37:19Z</time>
      </trkpt>
      <trkpt lat="46.56309" lon="6.01887">
        <ele>934.72</ele>
        <time>2019-06-09T09:37:20Z</time>
      </trkpt>
      <trkpt lat="46.56309" lon="6.01886">
        <ele>934.72</ele>
        <time>2019-06-09T09:37:21Z</time>
      </trkpt>
      <trkpt lat="46.5631" lon="6.01883">
        <ele>934.71</ele>
        <time>2019-06-09T09:37:23Z</time>
      </trkpt>
      <trkpt lat="46.56313" lon="6.01869">
        <ele>935.57</ele>
        <time>2019-06-09T09:37:32Z</time>
      </trkpt>
      <trkpt lat="46.56314" lon="6.01867">
        <ele>935.58</ele>
        <time>2019-06-09T09:37:33Z</time>
      </trkpt>
      <trkpt lat="46.56318" lon="6.01852">
        <ele>936.41</ele>
        <time>2019-06-09T09:37:43Z</time>
      </trkpt>
      <trkpt lat="46.56319" lon="6.0185">
        <ele>937.25</ele>
        <time>2019-06-09T09:37:44Z</time>
      </trkpt>
      <trkpt lat="46.56322" lon="6.01845">
        <ele>937.26</ele>
        <time>2019-06-09T09:37:48Z</time>
      </trkpt>
      <trkpt lat="46.56326" lon="6.0184">
        <ele>937.27</ele>
        <time>2019-06-09T09:37:52Z</time>
      </trkpt>
      <trkpt lat="46.56335" lon="6.01819">
        <ele>938.9</ele>
        <time>2019-06-09T09:38:06Z</time>
      </trkpt>
      <trkpt lat="46.56335" lon="6.01818">
        <ele>938.92</ele>
        <time>2019-06-09T09:38:07Z</time>
      </trkpt>
      <trkpt lat="46.56336" lon="6.01816">
        <ele>939.69</ele>
        <time>2019-06-09T09:38:08Z</time>
      </trkpt>
      <trkpt lat="46.56344" lon="6.01793">
        <ele>941.48</ele>
        <time>2019-06-09T09:38:23Z</time>
      </trkpt>
      <trkpt lat="46.56352" lon="6.01781">
        <ele>942.36</ele>
        <time>2019-06-09T09:38:32Z</time>
      </trkpt>
      <trkpt lat="46.56353" lon="6.0178">
        <ele>942.36</ele>
        <time>2019-06-09T09:38:33Z</time>
      </trkpt>
      <trkpt lat="46.56354" lon="6.01779">
        <ele>942.37</ele>
        <time>2019-06-09T09:38:34Z</time>
      </trkpt>
      <trkpt lat="46.56355" lon="6.01778">
        <ele>942.37</ele>
        <time>2019-06-09T09:38:35Z</time>
      </trkpt>
      <trkpt lat="46.56356" lon="6.01778">
        <ele>942.38</ele>
        <time>2019-06-09T09:38:36Z</time>
      </trkpt>
      <trkpt lat="46.5636" lon="6.01777">
        <ele>944.21</ele>
        <time>2019-06-09T09:38:47Z</time>
      </trkpt>
      <trkpt lat="46.56355" lon="6.0178">
        <ele>944.22</ele>
        <time>2019-06-09T09:38:52Z</time>
      </trkpt>
      <trkpt lat="46.56351" lon="6.01787">
        <ele>944.21</ele>
        <time>2019-06-09T09:38:56Z</time>
      </trkpt>
      <trkpt lat="46.5635" lon="6.01788">
        <ele>944.19</ele>
        <time>2019-06-09T09:38:57Z</time>
      </trkpt>
      <trkpt lat="46.56349" lon="6.01789">
        <ele>944.18</ele>
        <time>2019-06-09T09:38:58Z</time>
      </trkpt>
      <trkpt lat="46.56348" lon="6.01791">
        <ele>944.19</ele>
        <time>2019-06-09T09:38:59Z</time>
      </trkpt>
      <trkpt lat="46.56347" lon="6.01792">
        <ele>944.18</ele>
        <time>2019-06-09T09:39:00Z</time>
      </trkpt>
      <trkpt lat="46.56344" lon="6.01798">
        <ele>941.83</ele>
        <time>2019-06-09T09:39:04Z</time>
      </trkpt>
      <trkpt lat="46.56337" lon="6.01811">
        <ele>941.03</ele>
        <time>2019-06-09T09:39:12Z</time>
      </trkpt>
      <trkpt lat="46.56336" lon="6.01813">
        <ele>940.04</ele>
        <time>2019-06-09T09:39:13Z</time>
      </trkpt>
      <trkpt lat="46.56335" lon="6.01814">
        <ele>940.03</ele>
        <time>2019-06-09T09:39:14Z</time>
      </trkpt>
      <trkpt lat="46.56335" lon="6.01816">
        <ele>940.04</ele>
        <time>2019-06-09T09:39:15Z</time>
      </trkpt>
      <trkpt lat="46.56335" lon="6.01818">
        <ele>940.05</ele>
        <time>2019-06-09T09:39:16Z</time>
      </trkpt>
      <trkpt lat="46.56334" lon="6.01819">
        <ele>939.22</ele>
        <time>2019-06-09T09:39:17Z</time>
      </trkpt>
      <trkpt lat="46.56325" lon="6.01841">
        <ele>937.58</ele>
        <time>2019-06-09T09:39:30Z</time>
      </trkpt>
      <trkpt lat="46.56322" lon="6.01844">
        <ele>937.58</ele>
        <time>2019-06-09T09:39:33Z</time>
      </trkpt>
      <trkpt lat="46.5632" lon="6.01844">
        <ele>937.58</ele>
        <time>2019-06-09T09:39:34Z</time>
      </trkpt>
      <trkpt lat="46.56319" lon="6.01844">
        <ele>936.73</ele>
        <time>2019-06-09T09:39:35Z</time>
      </trkpt>
      <trkpt lat="46.56319" lon="6.01843">
        <ele>936.73</ele>
        <time>2019-06-09T09:39:36Z</time>
      </trkpt>
      <trkpt lat="46.56318" lon="6.01841">
        <ele>936.74</ele>
        <time>2019-06-09T09:39:37Z</time>
      </trkpt>
      <trkpt lat="46.56317" lon="6.0184">
        <ele>936.74</ele>
        <time>2019-06-09T09:39:38Z</time>
      </trkpt>
      <trkpt lat="46.56316" lon="6.01837">
        <ele>936.74</ele>
        <time>2019-06-09T09:39:39Z</time>
      </trkpt>
      <trkpt lat="46.56316" lon="6.01837">
        <ele>936.74</ele>
        <time>2019-06-09T09:39:40Z</time>
      </trkpt>
      <trkpt lat="46.56313" lon="6.0182">
        <ele>935.86</ele>
        <time>2019-06-09T09:39:49Z</time>
      </trkpt>
      <trkpt lat="46.56308" lon="6.01804">
        <ele>935.1</ele>
        <time>2019-06-09T09:39:57Z</time>
      </trkpt>
      <trkpt lat="46.56308" lon="6.01802">
        <ele>935.13</ele>
        <time>2019-06-09T09:39:58Z</time>
      </trkpt>
      <trkpt lat="46.56295" lon="6.0178">
        <ele>935.19</ele>
        <time>2019-06-09T09:40:11Z</time>
      </trkpt>
      <trkpt lat="46.56293" lon="6.01778">
        <ele>935.2</ele>
        <time>2019-06-09T09:40:12Z</time>
      </trkpt>
      <trkpt lat="46.56285" lon="6.01766">
        <ele>935.21</ele>
        <time>2019-06-09T09:40:19Z</time>
      </trkpt>
      <trkpt lat="46.56284" lon="6.01764">
        <ele>935.22</ele>
        <time>2019-06-09T09:40:20Z</time>
      </trkpt>
      <trkpt lat="46.56267" lon="6.01745">
        <ele>935.26</ele>
        <time>2019-06-09T09:40:33Z</time>
      </trkpt>
      <trkpt lat="46.56254" lon="6.01723">
        <ele>935.36</ele>
        <time>2019-06-09T09:40:46Z</time>
      </trkpt>
      <trkpt lat="46.56245" lon="6.01695">
        <ele>935.46</ele>
        <time>2019-06-09T09:41:00Z</time>
      </trkpt>
      <trkpt lat="46.56243" lon="6.0167">
        <ele>938.1</ele>
        <time>2019-06-09T09:41:12Z</time>
      </trkpt>
      <trkpt lat="46.56243" lon="6.01666">
        <ele>938.1</ele>
        <time>2019-06-09T09:41:14Z</time>
      </trkpt>
      <trkpt lat="46.56243" lon="6.01663">
        <ele>938.1</ele>
        <time>2019-06-09T09:41:15Z</time>
      </trkpt>
      <trkpt lat="46.56242" lon="6.01661">
        <ele>938.1</ele>
        <time>2019-06-09T09:41:16Z</time>
      </trkpt>
      <trkpt lat="46.56242" lon="6.01659">
        <ele>938.11</ele>
        <time>2019-06-09T09:41:17Z</time>
      </trkpt>
      <trkpt lat="46.56242" lon="6.01656">
        <ele>938.11</ele>
        <time>2019-06-09T09:41:18Z</time>
      </trkpt>
      <trkpt lat="46.56242" lon="6.01654">
        <ele>938.12</ele>
        <time>2019-06-09T09:41:19Z</time>
      </trkpt>
      <trkpt lat="46.56241" lon="6.01652">
        <ele>938.12</ele>
        <time>2019-06-09T09:41:20Z</time>
      </trkpt>
      <trkpt lat="46.56241" lon="6.0165">
        <ele>938.12</ele>
        <time>2019-06-09T09:41:21Z</time>
      </trkpt>
      <trkpt lat="46.56241" lon="6.01647">
        <ele>938.12</ele>
        <time>2019-06-09T09:41:22Z</time>
      </trkpt>
      <trkpt lat="46.56242" lon="6.01645">
        <ele>938.13</ele>
        <time>2019-06-09T09:41:23Z</time>
      </trkpt>
      <trkpt lat="46.56242" lon="6.01623">
        <ele>938.95</ele>
        <time>2019-06-09T09:41:35Z</time>
      </trkpt>
      <trkpt lat="46.56243" lon="6.01601">
        <ele>941.8</ele>
        <time>2019-06-09T09:41:46Z</time>
      </trkpt>
      <trkpt lat="46.56244" lon="6.016">
        <ele>941.81</ele>
        <time>2019-06-09T09:41:47Z</time>
      </trkpt>
      <trkpt lat="46.56244" lon="6.01598">
        <ele>941.81</ele>
        <time>2019-06-09T09:41:48Z</time>
      </trkpt>
      <trkpt lat="46.56245" lon="6.01597">
        <ele>941.81</ele>
        <time>2019-06-09T09:41:49Z</time>
      </trkpt>
      <trkpt lat="46.56246" lon="6.01595">
        <ele>941.79</ele>
        <time>2019-06-09T09:41:50Z</time>
      </trkpt>
      <trkpt lat="46.56246" lon="6.01593">
        <ele>942.7</ele>
        <time>2019-06-09T09:41:51Z</time>
      </trkpt>
      <trkpt lat="46.56247" lon="6.01592">
        <ele>942.7</ele>
        <time>2019-06-09T09:41:52Z</time>
      </trkpt>
      <trkpt lat="46.56247" lon="6.0159">
        <ele>942.7</ele>
        <time>2019-06-09T09:41:53Z</time>
      </trkpt>
      <trkpt lat="46.56248" lon="6.01588">
        <ele>942.71</ele>
        <time>2019-06-09T09:41:54Z</time>
      </trkpt>
      <trkpt lat="46.56248" lon="6.01573">
        <ele>944.54</ele>
        <time>2019-06-09T09:42:02Z</time>
      </trkpt>
      <trkpt lat="46.56247" lon="6.01567">
        <ele>945.49</ele>
        <time>2019-06-09T09:42:05Z</time>
      </trkpt>
      <trkpt lat="46.56247" lon="6.01566">
        <ele>945.51</ele>
        <time>2019-06-09T09:42:06Z</time>
      </trkpt>
      <trkpt lat="46.56248" lon="6.01564">
        <ele>945.52</ele>
        <time>2019-06-09T09:42:07Z</time>
      </trkpt>
      <trkpt lat="46.56251" lon="6.01553">
        <ele>946.36</ele>
        <time>2019-06-09T09:42:15Z</time>
      </trkpt>
      <trkpt lat="46.56253" lon="6.01533">
        <ele>948.07</ele>
        <time>2019-06-09T09:42:26Z</time>
      </trkpt>
      <trkpt lat="46.56253" lon="6.01531">
        <ele>948.06</ele>
        <time>2019-06-09T09:42:27Z</time>
      </trkpt>
      <trkpt lat="46.56254" lon="6.01529">
        <ele>948.83</ele>
        <time>2019-06-09T09:42:28Z</time>
      </trkpt>
      <trkpt lat="46.56256" lon="6.01503">
        <ele>950.68</ele>
        <time>2019-06-09T09:42:42Z</time>
      </trkpt>
      <trkpt lat="46.56252" lon="6.01484">
        <ele>951.49</ele>
        <time>2019-06-09T09:42:52Z</time>
      </trkpt>
      <trkpt lat="46.56251" lon="6.01482">
        <ele>952.35</ele>
        <time>2019-06-09T09:42:53Z</time>
      </trkpt>
      <trkpt lat="46.56249" lon="6.01466">
        <ele>953.2</ele>
        <time>2019-06-09T09:43:01Z</time>
      </trkpt>
      <trkpt lat="46.56255" lon="6.01451">
        <ele>955.01</ele>
        <time>2019-06-09T09:43:11Z</time>
      </trkpt>
      <trkpt lat="46.56256" lon="6.0145">
        <ele>955.85</ele>
        <time>2019-06-09T09:43:12Z</time>
      </trkpt>
      <trkpt lat="46.56263" lon="6.01439">
        <ele>957.68</ele>
        <time>2019-06-09T09:43:24Z</time>
      </trkpt>
      <trkpt lat="46.56269" lon="6.01424">
        <ele>960.18</ele>
        <time>2019-06-09T09:43:36Z</time>
      </trkpt>
      <trkpt lat="46.56279" lon="6.01391">
        <ele>962.57</ele>
        <time>2019-06-09T09:43:55Z</time>
      </trkpt>
      <trkpt lat="46.5628" lon="6.01365">
        <ele>965.41</ele>
        <time>2019-06-09T09:44:09Z</time>
      </trkpt>
      <trkpt lat="46.56284" lon="6.01357">
        <ele>966.4</ele>
        <time>2019-06-09T09:44:14Z</time>
      </trkpt>
      <trkpt lat="46.56285" lon="6.01354">
        <ele>966.4</ele>
        <time>2019-06-09T09:44:15Z</time>
      </trkpt>
      <trkpt lat="46.56286" lon="6.01352">
        <ele>966.39</ele>
        <time>2019-06-09T09:44:16Z</time>
      </trkpt>
      <trkpt lat="46.56287" lon="6.01346">
        <ele>967.22</ele>
        <time>2019-06-09T09:44:19Z</time>
      </trkpt>
      <trkpt lat="46.56288" lon="6.01344">
        <ele>967.21</ele>
        <time>2019-06-09T09:44:20Z</time>
      </trkpt>
      <trkpt lat="46.56289" lon="6.01342">
        <ele>967.22</ele>
        <time>2019-06-09T09:44:21Z</time>
      </trkpt>
      <trkpt lat="46.56289" lon="6.01341">
        <ele>967.22</ele>
        <time>2019-06-09T09:44:22Z</time>
      </trkpt>
      <trkpt lat="46.5629" lon="6.01339">
        <ele>967.22</ele>
        <time>2019-06-09T09:44:23Z</time>
      </trkpt>
      <trkpt lat="46.56291" lon="6.01337">
        <ele>967.21</ele>
        <time>2019-06-09T09:44:24Z</time>
      </trkpt>
      <trkpt lat="46.563" lon="6.01313">
        <ele>969.88</ele>
        <time>2019-06-09T09:44:39Z</time>
      </trkpt>
      <trkpt lat="46.56301" lon="6.01312">
        <ele>970.69</ele>
        <time>2019-06-09T09:44:40Z</time>
      </trkpt>
      <trkpt lat="46.56303" lon="6.01308">
        <ele>970.68</ele>
        <time>2019-06-09T09:44:42Z</time>
      </trkpt>
      <trkpt lat="46.56304" lon="6.01307">
        <ele>970.7</ele>
        <time>2019-06-09T09:44:43Z</time>
      </trkpt>
      <trkpt lat="46.56309" lon="6.013">
        <ele>972.35</ele>
        <time>2019-06-09T09:44:49Z</time>
      </trkpt>
      <trkpt lat="46.56313" lon="6.01282">
        <ele>975.82</ele>
        <time>2019-06-09T09:45:02Z</time>
      </trkpt>
      <trkpt lat="46.56312" lon="6.01261">
        <ele>979.28</ele>
        <time>2019-06-09T09:45:17Z</time>
      </trkpt>
      <trkpt lat="46.56318" lon="6.01233">
        <ele>981.68</ele>
        <time>2019-06-09T09:45:33Z</time>
      </trkpt>
      <trkpt lat="46.56327" lon="6.0121">
        <ele>983.28</ele>
        <time>2019-06-09T09:45:48Z</time>
      </trkpt>
      <trkpt lat="46.56329" lon="6.01208">
        <ele>983.27</ele>
        <time>2019-06-09T09:45:51Z</time>
      </trkpt>
      <trkpt lat="46.56339" lon="6.01187">
        <ele>983.22</ele>
        <time>2019-06-09T09:46:03Z</time>
      </trkpt>
      <trkpt lat="46.5634" lon="6.01185">
        <ele>983.2</ele>
        <time>2019-06-09T09:46:04Z</time>
      </trkpt>
      <trkpt lat="46.56341" lon="6.01182">
        <ele>983.2</ele>
        <time>2019-06-09T09:46:05Z</time>
      </trkpt>
      <trkpt lat="46.56343" lon="6.0118">
        <ele>983.19</ele>
        <time>2019-06-09T09:46:06Z</time>
      </trkpt>
      <trkpt lat="46.56345" lon="6.01178">
        <ele>983.18</ele>
        <time>2019-06-09T09:46:07Z</time>
      </trkpt>
      <trkpt lat="46.56347" lon="6.01175">
        <ele>983.17</ele>
        <time>2019-06-09T09:46:08Z</time>
      </trkpt>
      <trkpt lat="46.56348" lon="6.01174">
        <ele>983.17</ele>
        <time>2019-06-09T09:46:09Z</time>
      </trkpt>
      <trkpt lat="46.5635" lon="6.0117">
        <ele>983.15</ele>
        <time>2019-06-09T09:46:12Z</time>
      </trkpt>
      <trkpt lat="46.56353" lon="6.01159">
        <ele>983.1</ele>
        <time>2019-06-09T09:46:19Z</time>
      </trkpt>
      <trkpt lat="46.56354" lon="6.01157">
        <ele>983.11</ele>
        <time>2019-06-09T09:46:20Z</time>
      </trkpt>
      <trkpt lat="46.56355" lon="6.01155">
        <ele>983.1</ele>
        <time>2019-06-09T09:46:21Z</time>
      </trkpt>
      <trkpt lat="46.56357" lon="6.0115">
        <ele>983.08</ele>
        <time>2019-06-09T09:46:24Z</time>
      </trkpt>
      <trkpt lat="46.56358" lon="6.01147">
        <ele>983.07</ele>
        <time>2019-06-09T09:46:26Z</time>
      </trkpt>
      <trkpt lat="46.56359" lon="6.01144">
        <ele>983.06</ele>
        <time>2019-06-09T09:46:27Z</time>
      </trkpt>
      <trkpt lat="46.5636" lon="6.01141">
        <ele>983.06</ele>
        <time>2019-06-09T09:46:28Z</time>
      </trkpt>
      <trkpt lat="46.56361" lon="6.01137">
        <ele>983.04</ele>
        <time>2019-06-09T09:46:30Z</time>
      </trkpt>
      <trkpt lat="46.56364" lon="6.0113">
        <ele>983.01</ele>
        <time>2019-06-09T09:46:34Z</time>
      </trkpt>
      <trkpt lat="46.56364" lon="6.01128">
        <ele>983.01</ele>
        <time>2019-06-09T09:46:35Z</time>
      </trkpt>
      <trkpt lat="46.56365" lon="6.01126">
        <ele>983</ele>
        <time>2019-06-09T09:46:36Z</time>
      </trkpt>
      <trkpt lat="46.56366" lon="6.01124">
        <ele>982.99</ele>
        <time>2019-06-09T09:46:37Z</time>
      </trkpt>
      <trkpt lat="46.56366" lon="6.01121">
        <ele>982.98</ele>
        <time>2019-06-09T09:46:38Z</time>
      </trkpt>
      <trkpt lat="46.56371" lon="6.01108">
        <ele>980.45</ele>
        <time>2019-06-09T09:46:46Z</time>
      </trkpt>
      <trkpt lat="46.56373" lon="6.01107">
        <ele>980.44</ele>
        <time>2019-06-09T09:46:47Z</time>
      </trkpt>
      <trkpt lat="46.56373" lon="6.01106">
        <ele>980.43</ele>
        <time>2019-06-09T09:46:48Z</time>
      </trkpt>
      <trkpt lat="46.56375" lon="6.01104">
        <ele>980.41</ele>
        <time>2019-06-09T09:46:49Z</time>
      </trkpt>
      <trkpt lat="46.56378" lon="6.01096">
        <ele>980.37</ele>
        <time>2019-06-09T09:46:53Z</time>
      </trkpt>
      <trkpt lat="46.56379" lon="6.01094">
        <ele>980.36</ele>
        <time>2019-06-09T09:46:54Z</time>
      </trkpt>
      <trkpt lat="46.5638" lon="6.0109">
        <ele>980.35</ele>
        <time>2019-06-09T09:46:55Z</time>
      </trkpt>
      <trkpt lat="46.5638" lon="6.01088">
        <ele>980.34</ele>
        <time>2019-06-09T09:46:56Z</time>
      </trkpt>
      <trkpt lat="46.56381" lon="6.01086">
        <ele>979.53</ele>
        <time>2019-06-09T09:46:57Z</time>
      </trkpt>
      <trkpt lat="46.56382" lon="6.01085">
        <ele>979.52</ele>
        <time>2019-06-09T09:46:58Z</time>
      </trkpt>
      <trkpt lat="46.56382" lon="6.01083">
        <ele>979.51</ele>
        <time>2019-06-09T09:46:59Z</time>
      </trkpt>
      <trkpt lat="46.56383" lon="6.01082">
        <ele>979.5</ele>
        <time>2019-06-09T09:47:00Z</time>
      </trkpt>
      <trkpt lat="46.5639" lon="6.01058">
        <ele>979.36</ele>
        <time>2019-06-09T09:47:15Z</time>
      </trkpt>
      <trkpt lat="46.56398" lon="6.01034">
        <ele>977.92</ele>
        <time>2019-06-09T09:47:28Z</time>
      </trkpt>
      <trkpt lat="46.56401" lon="6.01031">
        <ele>977.89</ele>
        <time>2019-06-09T09:47:31Z</time>
      </trkpt>
      <trkpt lat="46.56409" lon="6.01008">
        <ele>977.72</ele>
        <time>2019-06-09T09:47:45Z</time>
      </trkpt>
      <trkpt lat="46.56412" lon="6.00995">
        <ele>980.09</ele>
        <time>2019-06-09T09:47:50Z</time>
      </trkpt>
      <trkpt lat="46.5642" lon="6.00971">
        <ele>980.68</ele>
        <time>2019-06-09T09:48:03Z</time>
      </trkpt>
      <trkpt lat="46.56423" lon="6.00948">
        <ele>980.49</ele>
        <time>2019-06-09T09:48:14Z</time>
      </trkpt>
      <trkpt lat="46.56422" lon="6.0092">
        <ele>980.22</ele>
        <time>2019-06-09T09:48:30Z</time>
      </trkpt>
      <trkpt lat="46.56423" lon="6.00916">
        <ele>980.21</ele>
        <time>2019-06-09T09:48:31Z</time>
      </trkpt>
      <trkpt lat="46.5643" lon="6.00896">
        <ele>980.01</ele>
        <time>2019-06-09T09:48:42Z</time>
      </trkpt>
      <trkpt lat="46.56434" lon="6.00877">
        <ele>979.82</ele>
        <time>2019-06-09T09:48:52Z</time>
      </trkpt>
      <trkpt lat="46.56434" lon="6.00872">
        <ele>979.78</ele>
        <time>2019-06-09T09:48:54Z</time>
      </trkpt>
      <trkpt lat="46.56444" lon="6.0084">
        <ele>979.52</ele>
        <time>2019-06-09T09:49:07Z</time>
      </trkpt>
      <trkpt lat="46.56446" lon="6.00837">
        <ele>979.49</ele>
        <time>2019-06-09T09:49:09Z</time>
      </trkpt>
      <trkpt lat="46.56447" lon="6.00834">
        <ele>979.48</ele>
        <time>2019-06-09T09:49:10Z</time>
      </trkpt>
      <trkpt lat="46.56447" lon="6.00831">
        <ele>979.46</ele>
        <time>2019-06-09T09:49:11Z</time>
      </trkpt>
      <trkpt lat="46.56446" lon="6.00809">
        <ele>979.29</ele>
        <time>2019-06-09T09:49:20Z</time>
      </trkpt>
      <trkpt lat="46.56444" lon="6.00806">
        <ele>979.27</ele>
        <time>2019-06-09T09:49:21Z</time>
      </trkpt>
      <trkpt lat="46.56443" lon="6.00803">
        <ele>979.25</ele>
        <time>2019-06-09T09:49:22Z</time>
      </trkpt>
      <trkpt lat="46.56442" lon="6.008">
        <ele>979.23</ele>
        <time>2019-06-09T09:49:23Z</time>
      </trkpt>
      <trkpt lat="46.56441" lon="6.00798">
        <ele>979.21</ele>
        <time>2019-06-09T09:49:24Z</time>
      </trkpt>
      <trkpt lat="46.56439" lon="6.00796">
        <ele>979.19</ele>
        <time>2019-06-09T09:49:25Z</time>
      </trkpt>
      <trkpt lat="46.56437" lon="6.00794">
        <ele>979.17</ele>
        <time>2019-06-09T09:49:26Z</time>
      </trkpt>
      <trkpt lat="46.56436" lon="6.00793">
        <ele>979.15</ele>
        <time>2019-06-09T09:49:27Z</time>
      </trkpt>
      <trkpt lat="46.56428" lon="6.00786">
        <ele>979.05</ele>
        <time>2019-06-09T09:49:33Z</time>
      </trkpt>
      <trkpt lat="46.56427" lon="6.00785">
        <ele>979.03</ele>
        <time>2019-06-09T09:49:34Z</time>
      </trkpt>
      <trkpt lat="46.56419" lon="6.00778">
        <ele>978.96</ele>
        <time>2019-06-09T09:49:39Z</time>
      </trkpt>
      <trkpt lat="46.56418" lon="6.00777">
        <ele>978.94</ele>
        <time>2019-06-09T09:49:40Z</time>
      </trkpt>
      <trkpt lat="46.56417" lon="6.00776">
        <ele>978.93</ele>
        <time>2019-06-09T09:49:41Z</time>
      </trkpt>
      <trkpt lat="46.56415" lon="6.00776">
        <ele>978.91</ele>
        <time>2019-06-09T09:49:42Z</time>
      </trkpt>
      <trkpt lat="46.56414" lon="6.00775">
        <ele>978.9</ele>
        <time>2019-06-09T09:49:43Z</time>
      </trkpt>
      <trkpt lat="46.56412" lon="6.00773">
        <ele>978.88</ele>
        <time>2019-06-09T09:49:44Z</time>
      </trkpt>
      <trkpt lat="46.56411" lon="6.00772">
        <ele>978.87</ele>
        <time>2019-06-09T09:49:45Z</time>
      </trkpt>
      <trkpt lat="46.56409" lon="6.00769">
        <ele>978.86</ele>
        <time>2019-06-09T09:49:46Z</time>
      </trkpt>
      <trkpt lat="46.56408" lon="6.00768">
        <ele>978.84</ele>
        <time>2019-06-09T09:49:47Z</time>
      </trkpt>
      <trkpt lat="46.56406" lon="6.00766">
        <ele>978.83</ele>
        <time>2019-06-09T09:49:48Z</time>
      </trkpt>
      <trkpt lat="46.56405" lon="6.00763">
        <ele>978.82</ele>
        <time>2019-06-09T09:49:49Z</time>
      </trkpt>
      <trkpt lat="46.56405" lon="6.00759">
        <ele>978.8</ele>
        <time>2019-06-09T09:49:51Z</time>
      </trkpt>
      <trkpt lat="46.56404" lon="6.00757">
        <ele>978.79</ele>
        <time>2019-06-09T09:49:52Z</time>
      </trkpt>
      <trkpt lat="46.56404" lon="6.00756">
        <ele>978.78</ele>
        <time>2019-06-09T09:49:53Z</time>
      </trkpt>
      <trkpt lat="46.56403" lon="6.00754">
        <ele>978.77</ele>
        <time>2019-06-09T09:49:54Z</time>
      </trkpt>
      <trkpt lat="46.56402" lon="6.00751">
        <ele>978.76</ele>
        <time>2019-06-09T09:49:55Z</time>
      </trkpt>
      <trkpt lat="46.56401" lon="6.00749">
        <ele>978.75</ele>
        <time>2019-06-09T09:49:56Z</time>
      </trkpt>
      <trkpt lat="46.56398" lon="6.00736">
        <ele>978.69</ele>
        <time>2019-06-09T09:50:01Z</time>
      </trkpt>
      <trkpt lat="46.56398" lon="6.00733">
        <ele>978.69</ele>
        <time>2019-06-09T09:50:02Z</time>
      </trkpt>
      <trkpt lat="46.56398" lon="6.00731">
        <ele>978.68</ele>
        <time>2019-06-09T09:50:03Z</time>
      </trkpt>
      <trkpt lat="46.56397" lon="6.00728">
        <ele>978.67</ele>
        <time>2019-06-09T09:50:04Z</time>
      </trkpt>
      <trkpt lat="46.56396" lon="6.00726">
        <ele>978.66</ele>
        <time>2019-06-09T09:50:05Z</time>
      </trkpt>
      <trkpt lat="46.56396" lon="6.00724">
        <ele>978.65</ele>
        <time>2019-06-09T09:50:06Z</time>
      </trkpt>
      <trkpt lat="46.56396" lon="6.0072">
        <ele>978.64</ele>
        <time>2019-06-09T09:50:07Z</time>
      </trkpt>
      <trkpt lat="46.56395" lon="6.00717">
        <ele>978.63</ele>
        <time>2019-06-09T09:50:08Z</time>
      </trkpt>
      <trkpt lat="46.56395" lon="6.00711">
        <ele>978.62</ele>
        <time>2019-06-09T09:50:10Z</time>
      </trkpt>
      <trkpt lat="46.56395" lon="6.00709">
        <ele>978.61</ele>
        <time>2019-06-09T09:50:11Z</time>
      </trkpt>
      <trkpt lat="46.56394" lon="6.00707">
        <ele>978.6</ele>
        <time>2019-06-09T09:50:12Z</time>
      </trkpt>
      <trkpt lat="46.56394" lon="6.00705">
        <ele>978.59</ele>
        <time>2019-06-09T09:50:13Z</time>
      </trkpt>
      <trkpt lat="46.56393" lon="6.00703">
        <ele>978.58</ele>
        <time>2019-06-09T09:50:14Z</time>
      </trkpt>
      <trkpt lat="46.5639" lon="6.00697">
        <ele>978.56</ele>
        <time>2019-06-09T09:50:17Z</time>
      </trkpt>
      <trkpt lat="46.56389" lon="6.00695">
        <ele>978.55</ele>
        <time>2019-06-09T09:50:18Z</time>
      </trkpt>
      <trkpt lat="46.56387" lon="6.00689">
        <ele>976.1</ele>
        <time>2019-06-09T09:50:22Z</time>
      </trkpt>
      <trkpt lat="46.56386" lon="6.00686">
        <ele>976.09</ele>
        <time>2019-06-09T09:50:23Z</time>
      </trkpt>
      <trkpt lat="46.56384" lon="6.00684">
        <ele>976.09</ele>
        <time>2019-06-09T09:50:24Z</time>
      </trkpt>
      <trkpt lat="46.56383" lon="6.00683">
        <ele>975.16</ele>
        <time>2019-06-09T09:50:25Z</time>
      </trkpt>
      <trkpt lat="46.56381" lon="6.00682">
        <ele>975.14</ele>
        <time>2019-06-09T09:50:26Z</time>
      </trkpt>
      <trkpt lat="46.5638" lon="6.00681">
        <ele>975.14</ele>
        <time>2019-06-09T09:50:27Z</time>
      </trkpt>
      <trkpt lat="46.56379" lon="6.00679">
        <ele>974.1</ele>
        <time>2019-06-09T09:50:29Z</time>
      </trkpt>
      <trkpt lat="46.56378" lon="6.00676">
        <ele>974.09</ele>
        <time>2019-06-09T09:50:31Z</time>
      </trkpt>
      <trkpt lat="46.56377" lon="6.00675">
        <ele>974.09</ele>
        <time>2019-06-09T09:50:32Z</time>
      </trkpt>
      <trkpt lat="46.56368" lon="6.00662">
        <ele>972.48</ele>
        <time>2019-06-09T09:50:41Z</time>
      </trkpt>
      <trkpt lat="46.56367" lon="6.00656">
        <ele>972.48</ele>
        <time>2019-06-09T09:50:44Z</time>
      </trkpt>
      <trkpt lat="46.56365" lon="6.00652">
        <ele>971.7</ele>
        <time>2019-06-09T09:50:47Z</time>
      </trkpt>
      <trkpt lat="46.56361" lon="6.00645">
        <ele>971.68</ele>
        <time>2019-06-09T09:50:51Z</time>
      </trkpt>
      <trkpt lat="46.5636" lon="6.00628">
        <ele>971.63</ele>
        <time>2019-06-09T09:50:59Z</time>
      </trkpt>
      <trkpt lat="46.5636" lon="6.00626">
        <ele>971.58</ele>
        <time>2019-06-09T09:51:00Z</time>
      </trkpt>
      <trkpt lat="46.56361" lon="6.00617">
        <ele>971.61</ele>
        <time>2019-06-09T09:51:03Z</time>
      </trkpt>
      <trkpt lat="46.56362" lon="6.00614">
        <ele>971.6</ele>
        <time>2019-06-09T09:51:04Z</time>
      </trkpt>
      <trkpt lat="46.56363" lon="6.00611">
        <ele>971.59</ele>
        <time>2019-06-09T09:51:05Z</time>
      </trkpt>
      <trkpt lat="46.56364" lon="6.00609">
        <ele>971.59</ele>
        <time>2019-06-09T09:51:06Z</time>
      </trkpt>
      <trkpt lat="46.56365" lon="6.00601">
        <ele>971.56</ele>
        <time>2019-06-09T09:51:10Z</time>
      </trkpt>
      <trkpt lat="46.56366" lon="6.00598">
        <ele>971.55</ele>
        <time>2019-06-09T09:51:11Z</time>
      </trkpt>
      <trkpt lat="46.56379" lon="6.0058">
        <ele>971.49</ele>
        <time>2019-06-09T09:51:21Z</time>
      </trkpt>
      <trkpt lat="46.56382" lon="6.00576">
        <ele>971.48</ele>
        <time>2019-06-09T09:51:23Z</time>
      </trkpt>
      <trkpt lat="46.56394" lon="6.00568">
        <ele>971.45</ele>
        <time>2019-06-09T09:51:30Z</time>
      </trkpt>
      <trkpt lat="46.56421" lon="6.00559">
        <ele>971.43</ele>
        <time>2019-06-09T09:51:44Z</time>
      </trkpt>
      <trkpt lat="46.56435" lon="6.00542">
        <ele>969.89</ele>
        <time>2019-06-09T09:51:55Z</time>
      </trkpt>
      <trkpt lat="46.56438" lon="6.00533">
        <ele>969.9</ele>
        <time>2019-06-09T09:51:59Z</time>
      </trkpt>
      <trkpt lat="46.56439" lon="6.00531">
        <ele>969.07</ele>
        <time>2019-06-09T09:52:00Z</time>
      </trkpt>
      <trkpt lat="46.5644" lon="6.00529">
        <ele>969.07</ele>
        <time>2019-06-09T09:52:01Z</time>
      </trkpt>
      <trkpt lat="46.56442" lon="6.00527">
        <ele>969.08</ele>
        <time>2019-06-09T09:52:02Z</time>
      </trkpt>
      <trkpt lat="46.56443" lon="6.00525">
        <ele>968.2</ele>
        <time>2019-06-09T09:52:03Z</time>
      </trkpt>
      <trkpt lat="46.56454" lon="6.00503">
        <ele>967.26</ele>
        <time>2019-06-09T09:52:13Z</time>
      </trkpt>
      <trkpt lat="46.56457" lon="6.00497">
        <ele>966.27</ele>
        <time>2019-06-09T09:52:17Z</time>
      </trkpt>
      <trkpt lat="46.56459" lon="6.00495">
        <ele>966.43</ele>
        <time>2019-06-09T09:52:18Z</time>
      </trkpt>
      <trkpt lat="46.5646" lon="6.00493">
        <ele>966.44</ele>
        <time>2019-06-09T09:52:19Z</time>
      </trkpt>
      <trkpt lat="46.56462" lon="6.0049">
        <ele>966.45</ele>
        <time>2019-06-09T09:52:20Z</time>
      </trkpt>
      <trkpt lat="46.56462" lon="6.00488">
        <ele>966.46</ele>
        <time>2019-06-09T09:52:21Z</time>
      </trkpt>
      <trkpt lat="46.56462" lon="6.00486">
        <ele>965.6</ele>
        <time>2019-06-09T09:52:22Z</time>
      </trkpt>
      <trkpt lat="46.56462" lon="6.00485">
        <ele>965.6</ele>
        <time>2019-06-09T09:52:23Z</time>
      </trkpt>
      <trkpt lat="46.56463" lon="6.00483">
        <ele>965.63</ele>
        <time>2019-06-09T09:52:24Z</time>
      </trkpt>
      <trkpt lat="46.56476" lon="6.00467">
        <ele>964.02</ele>
        <time>2019-06-09T09:52:35Z</time>
      </trkpt>
      <trkpt lat="46.56494" lon="6.00451">
        <ele>962.47</ele>
        <time>2019-06-09T09:52:46Z</time>
      </trkpt>
      <trkpt lat="46.56501" lon="6.00446">
        <ele>962.56</ele>
        <time>2019-06-09T09:52:57Z</time>
      </trkpt>
      <trkpt lat="46.56494" lon="6.00446">
        <ele>961.98</ele>
        <time>2019-06-09T09:53:33Z</time>
      </trkpt>
      <trkpt lat="46.56494" lon="6.00444">
        <ele>962.22</ele>
        <time>2019-06-09T09:53:57Z</time>
      </trkpt>
      <trkpt lat="46.56495" lon="6.00444">
        <ele>962.59</ele>
        <time>2019-06-09T09:54:25Z</time>
      </trkpt>
      <trkpt lat="46.56495" lon="6.0044">
        <ele>962.16</ele>
        <time>2019-06-09T09:54:55Z</time>
      </trkpt>
      <trkpt lat="46.56498" lon="6.0044">
        <ele>962.59</ele>
        <time>2019-06-09T09:55:27Z</time>
      </trkpt>
      <trkpt lat="46.56498" lon="6.00439">
        <ele>963.13</ele>
        <time>2019-06-09T09:56:05Z</time>
      </trkpt>
      <trkpt lat="46.56496" lon="6.00435">
        <ele>963.66</ele>
        <time>2019-06-09T09:56:37Z</time>
      </trkpt>
      <trkpt lat="46.56496" lon="6.0044">
        <ele>964.29</ele>
        <time>2019-06-09T09:57:13Z</time>
      </trkpt>
      <trkpt lat="46.56493" lon="6.00441">
        <ele>965.06</ele>
        <time>2019-06-09T09:58:03Z</time>
      </trkpt>
      <trkpt lat="46.56495" lon="6.00435">
        <ele>964.7</ele>
        <time>2019-06-09T09:58:38Z</time>
      </trkpt>
      <trkpt lat="46.56496" lon="6.00435">
        <ele>965.11</ele>
        <time>2019-06-09T09:59:06Z</time>
      </trkpt>
      <trkpt lat="46.56498" lon="6.00439">
        <ele>965.68</ele>
        <time>2019-06-09T09:59:44Z</time>
      </trkpt>
      <trkpt lat="46.56496" lon="6.00438">
        <ele>966.21</ele>
        <time>2019-06-09T10:00:21Z</time>
      </trkpt>
      <trkpt lat="46.56492" lon="6.00436">
        <ele>965.79</ele>
        <time>2019-06-09T10:00:53Z</time>
      </trkpt>
      <trkpt lat="46.565" lon="6.00422">
        <ele>965.9</ele>
        <time>2019-06-09T10:01:01Z</time>
      </trkpt>
      <trkpt lat="46.56502" lon="6.00421">
        <ele>965.9</ele>
        <time>2019-06-09T10:01:02Z</time>
      </trkpt>
      <trkpt lat="46.56504" lon="6.00419">
        <ele>965.9</ele>
        <time>2019-06-09T10:01:03Z</time>
      </trkpt>
      <trkpt lat="46.56506" lon="6.00418">
        <ele>965.91</ele>
        <time>2019-06-09T10:01:04Z</time>
      </trkpt>
      <trkpt lat="46.56507" lon="6.00416">
        <ele>965.08</ele>
        <time>2019-06-09T10:01:05Z</time>
      </trkpt>
      <trkpt lat="46.56508" lon="6.00415">
        <ele>965.08</ele>
        <time>2019-06-09T10:01:06Z</time>
      </trkpt>
      <trkpt lat="46.56509" lon="6.00413">
        <ele>965.09</ele>
        <time>2019-06-09T10:01:07Z</time>
      </trkpt>
      <trkpt lat="46.56526" lon="6.00392">
        <ele>963.5</ele>
        <time>2019-06-09T10:01:20Z</time>
      </trkpt>
      <trkpt lat="46.56529" lon="6.00389">
        <ele>963.53</ele>
        <time>2019-06-09T10:01:22Z</time>
      </trkpt>
      <trkpt lat="46.5653" lon="6.00388">
        <ele>962.74</ele>
        <time>2019-06-09T10:01:23Z</time>
      </trkpt>
      <trkpt lat="46.56539" lon="6.00369">
        <ele>962.92</ele>
        <time>2019-06-09T10:01:33Z</time>
      </trkpt>
      <trkpt lat="46.5654" lon="6.00368">
        <ele>962.97</ele>
        <time>2019-06-09T10:01:34Z</time>
      </trkpt>
      <trkpt lat="46.56541" lon="6.00366">
        <ele>962.15</ele>
        <time>2019-06-09T10:01:35Z</time>
      </trkpt>
      <trkpt lat="46.56557" lon="6.00348">
        <ele>962.49</ele>
        <time>2019-06-09T10:01:50Z</time>
      </trkpt>
      <trkpt lat="46.56574" lon="6.00336">
        <ele>962.66</ele>
        <time>2019-06-09T10:02:04Z</time>
      </trkpt>
      <trkpt lat="46.56584" lon="6.00328">
        <ele>962.78</ele>
        <time>2019-06-09T10:02:12Z</time>
      </trkpt>
      <trkpt lat="46.56585" lon="6.00327">
        <ele>962.8</ele>
        <time>2019-06-09T10:02:13Z</time>
      </trkpt>
      <trkpt lat="46.56586" lon="6.00326">
        <ele>962.81</ele>
        <time>2019-06-09T10:02:14Z</time>
      </trkpt>
      <trkpt lat="46.56587" lon="6.00324">
        <ele>962.8</ele>
        <time>2019-06-09T10:02:15Z</time>
      </trkpt>
      <trkpt lat="46.56589" lon="6.00323">
        <ele>962.81</ele>
        <time>2019-06-09T10:02:16Z</time>
      </trkpt>
      <trkpt lat="46.56607" lon="6.00295">
        <ele>962.99</ele>
        <time>2019-06-09T10:02:35Z</time>
      </trkpt>
      <trkpt lat="46.56614" lon="6.00277">
        <ele>963.12</ele>
        <time>2019-06-09T10:02:50Z</time>
      </trkpt>
      <trkpt lat="46.56618" lon="6.00261">
        <ele>965.81</ele>
        <time>2019-06-09T10:03:01Z</time>
      </trkpt>
      <trkpt lat="46.56619" lon="6.00259">
        <ele>965.83</ele>
        <time>2019-06-09T10:03:03Z</time>
      </trkpt>
      <trkpt lat="46.5662" lon="6.00257">
        <ele>966.73</ele>
        <time>2019-06-09T10:03:04Z</time>
      </trkpt>
      <trkpt lat="46.56628" lon="6.00239">
        <ele>969.38</ele>
        <time>2019-06-09T10:03:19Z</time>
      </trkpt>
      <trkpt lat="46.56629" lon="6.00221">
        <ele>972.14</ele>
        <time>2019-06-09T10:03:32Z</time>
      </trkpt>
      <trkpt lat="46.56636" lon="6.00186">
        <ele>974.77</ele>
        <time>2019-06-09T10:03:49Z</time>
      </trkpt>
      <trkpt lat="46.56639" lon="6.00164">
        <ele>974.7</ele>
        <time>2019-06-09T10:04:00Z</time>
      </trkpt>
      <trkpt lat="46.56647" lon="6.0014">
        <ele>974.64</ele>
        <time>2019-06-09T10:04:14Z</time>
      </trkpt>
      <trkpt lat="46.56649" lon="6.0012">
        <ele>974.64</ele>
        <time>2019-06-09T10:04:22Z</time>
      </trkpt>
      <trkpt lat="46.56645" lon="6.00097">
        <ele>975.48</ele>
        <time>2019-06-09T10:04:32Z</time>
      </trkpt>
      <trkpt lat="46.56644" lon="6.00095">
        <ele>975.49</ele>
        <time>2019-06-09T10:04:33Z</time>
      </trkpt>
      <trkpt lat="46.56645" lon="6.00067">
        <ele>977.42</ele>
        <time>2019-06-09T10:04:47Z</time>
      </trkpt>
      <trkpt lat="46.56644" lon="6.00059">
        <ele>977.38</ele>
        <time>2019-06-09T10:04:51Z</time>
      </trkpt>
      <trkpt lat="46.56644" lon="6.00057">
        <ele>978.15</ele>
        <time>2019-06-09T10:04:52Z</time>
      </trkpt>
      <trkpt lat="46.56644" lon="6.00055">
        <ele>978.16</ele>
        <time>2019-06-09T10:04:53Z</time>
      </trkpt>
      <trkpt lat="46.56644" lon="6.00053">
        <ele>978.15</ele>
        <time>2019-06-09T10:04:54Z</time>
      </trkpt>
      <trkpt lat="46.56644" lon="6.00051">
        <ele>978.18</ele>
        <time>2019-06-09T10:04:55Z</time>
      </trkpt>
      <trkpt lat="46.56644" lon="6.00049">
        <ele>978.18</ele>
        <time>2019-06-09T10:04:56Z</time>
      </trkpt>
      <trkpt lat="46.56645" lon="6.00032">
        <ele>979.84</ele>
        <time>2019-06-09T10:05:05Z</time>
      </trkpt>
      <trkpt lat="46.56646" lon="6.0003">
        <ele>979.86</ele>
        <time>2019-06-09T10:05:06Z</time>
      </trkpt>
      <trkpt lat="46.56646" lon="6.00029">
        <ele>979.85</ele>
        <time>2019-06-09T10:05:07Z</time>
      </trkpt>
      <trkpt lat="46.56648" lon="6.00019">
        <ele>980.71</ele>
        <time>2019-06-09T10:05:12Z</time>
      </trkpt>
      <trkpt lat="46.56648" lon="6.00017">
        <ele>980.72</ele>
        <time>2019-06-09T10:05:13Z</time>
      </trkpt>
      <trkpt lat="46.56648" lon="6.00014">
        <ele>980.72</ele>
        <time>2019-06-09T10:05:14Z</time>
      </trkpt>
      <trkpt lat="46.56649" lon="6.00012">
        <ele>980.71</ele>
        <time>2019-06-09T10:05:15Z</time>
      </trkpt>
      <trkpt lat="46.56649" lon="6.0001">
        <ele>980.72</ele>
        <time>2019-06-09T10:05:16Z</time>
      </trkpt>
      <trkpt lat="46.56649" lon="6.00008">
        <ele>980.71</ele>
        <time>2019-06-09T10:05:17Z</time>
      </trkpt>
      <trkpt lat="46.5665" lon="6.00006">
        <ele>980.71</ele>
        <time>2019-06-09T10:05:18Z</time>
      </trkpt>
      <trkpt lat="46.5665" lon="6.00003">
        <ele>980.72</ele>
        <time>2019-06-09T10:05:19Z</time>
      </trkpt>
      <trkpt lat="46.56651" lon="6.00001">
        <ele>980.71</ele>
        <time>2019-06-09T10:05:20Z</time>
      </trkpt>
      <trkpt lat="46.56651" lon="5.99999">
        <ele>980.7</ele>
        <time>2019-06-09T10:05:21Z</time>
      </trkpt>
      <trkpt lat="46.56652" lon="5.99996">
        <ele>980.71</ele>
        <time>2019-06-09T10:05:22Z</time>
      </trkpt>
      <trkpt lat="46.56652" lon="5.99994">
        <ele>980.71</ele>
        <time>2019-06-09T10:05:23Z</time>
      </trkpt>
      <trkpt lat="46.56652" lon="5.99992">
        <ele>980.71</ele>
        <time>2019-06-09T10:05:24Z</time>
      </trkpt>
      <trkpt lat="46.56652" lon="5.99989">
        <ele>980.71</ele>
        <time>2019-06-09T10:05:25Z</time>
      </trkpt>
      <trkpt lat="46.56651" lon="5.99987">
        <ele>980.69</ele>
        <time>2019-06-09T10:05:26Z</time>
      </trkpt>
      <trkpt lat="46.56651" lon="5.99986">
        <ele>980.69</ele>
        <time>2019-06-09T10:05:27Z</time>
      </trkpt>
      <trkpt lat="46.56651" lon="5.99984">
        <ele>980.67</ele>
        <time>2019-06-09T10:05:28Z</time>
      </trkpt>
      <trkpt lat="46.56652" lon="5.99982">
        <ele>980.66</ele>
        <time>2019-06-09T10:05:29Z</time>
      </trkpt>
      <trkpt lat="46.56653" lon="5.99961">
        <ele>980.68</ele>
        <time>2019-06-09T10:05:39Z</time>
      </trkpt>
      <trkpt lat="46.56653" lon="5.99958">
        <ele>980.68</ele>
        <time>2019-06-09T10:05:40Z</time>
      </trkpt>
      <trkpt lat="46.56654" lon="5.99956">
        <ele>980.68</ele>
        <time>2019-06-09T10:05:41Z</time>
      </trkpt>
      <trkpt lat="46.56655" lon="5.99954">
        <ele>980.68</ele>
        <time>2019-06-09T10:05:42Z</time>
      </trkpt>
      <trkpt lat="46.56655" lon="5.99952">
        <ele>980.68</ele>
        <time>2019-06-09T10:05:43Z</time>
      </trkpt>
      <trkpt lat="46.56656" lon="5.9995">
        <ele>981.5</ele>
        <time>2019-06-09T10:05:44Z</time>
      </trkpt>
      <trkpt lat="46.56657" lon="5.99947">
        <ele>981.52</ele>
        <time>2019-06-09T10:05:45Z</time>
      </trkpt>
      <trkpt lat="46.56658" lon="5.99945">
        <ele>981.55</ele>
        <time>2019-06-09T10:05:46Z</time>
      </trkpt>
      <trkpt lat="46.56659" lon="5.99943">
        <ele>981.57</ele>
        <time>2019-06-09T10:05:47Z</time>
      </trkpt>
      <trkpt lat="46.56661" lon="5.99937">
        <ele>982.35</ele>
        <time>2019-06-09T10:05:50Z</time>
      </trkpt>
      <trkpt lat="46.5666" lon="5.9993">
        <ele>982.34</ele>
        <time>2019-06-09T10:05:54Z</time>
      </trkpt>
      <trkpt lat="46.56664" lon="5.99919">
        <ele>983.1</ele>
        <time>2019-06-09T10:05:59Z</time>
      </trkpt>
      <trkpt lat="46.56664" lon="5.99907">
        <ele>983.84</ele>
        <time>2019-06-09T10:06:05Z</time>
      </trkpt>
      <trkpt lat="46.56663" lon="5.99908">
        <ele>983.83</ele>
        <time>2019-06-09T10:06:06Z</time>
      </trkpt>
      <trkpt lat="46.5666" lon="5.999">
        <ele>984.78</ele>
        <time>2019-06-09T10:06:11Z</time>
      </trkpt>
      <trkpt lat="46.56659" lon="5.9988">
        <ele>985.61</ele>
        <time>2019-06-09T10:06:20Z</time>
      </trkpt>
      <trkpt lat="46.56658" lon="5.99877">
        <ele>985.59</ele>
        <time>2019-06-09T10:06:21Z</time>
      </trkpt>
      <trkpt lat="46.56658" lon="5.99875">
        <ele>985.62</ele>
        <time>2019-06-09T10:06:22Z</time>
      </trkpt>
      <trkpt lat="46.56657" lon="5.99852">
        <ele>987.29</ele>
        <time>2019-06-09T10:06:33Z</time>
      </trkpt>
      <trkpt lat="46.56657" lon="5.99833">
        <ele>988.14</ele>
        <time>2019-06-09T10:06:42Z</time>
      </trkpt>
      <trkpt lat="46.56657" lon="5.9983">
        <ele>988.15</ele>
        <time>2019-06-09T10:06:43Z</time>
      </trkpt>
      <trkpt lat="46.56658" lon="5.99828">
        <ele>988.15</ele>
        <time>2019-06-09T10:06:44Z</time>
      </trkpt>
      <trkpt lat="46.56658" lon="5.99826">
        <ele>989.06</ele>
        <time>2019-06-09T10:06:45Z</time>
      </trkpt>
      <trkpt lat="46.56659" lon="5.99825">
        <ele>989.07</ele>
        <time>2019-06-09T10:06:46Z</time>
      </trkpt>
      <trkpt lat="46.5666" lon="5.99822">
        <ele>989.08</ele>
        <time>2019-06-09T10:06:47Z</time>
      </trkpt>
      <trkpt lat="46.5666" lon="5.9982">
        <ele>989.08</ele>
        <time>2019-06-09T10:06:48Z</time>
      </trkpt>
      <trkpt lat="46.5666" lon="5.99818">
        <ele>990</ele>
        <time>2019-06-09T10:06:49Z</time>
      </trkpt>
      <trkpt lat="46.56663" lon="5.9981">
        <ele>990.96</ele>
        <time>2019-06-09T10:06:54Z</time>
      </trkpt>
      <trkpt lat="46.56663" lon="5.99808">
        <ele>991</ele>
        <time>2019-06-09T10:06:55Z</time>
      </trkpt>
      <trkpt lat="46.56664" lon="5.99806">
        <ele>990.99</ele>
        <time>2019-06-09T10:06:56Z</time>
      </trkpt>
      <trkpt lat="46.56665" lon="5.99804">
        <ele>990.99</ele>
        <time>2019-06-09T10:06:57Z</time>
      </trkpt>
      <trkpt lat="46.56675" lon="5.99785">
        <ele>991.82</ele>
        <time>2019-06-09T10:07:10Z</time>
      </trkpt>
      <trkpt lat="46.56676" lon="5.99784">
        <ele>992.62</ele>
        <time>2019-06-09T10:07:11Z</time>
      </trkpt>
      <trkpt lat="46.56677" lon="5.99782">
        <ele>992.62</ele>
        <time>2019-06-09T10:07:12Z</time>
      </trkpt>
      <trkpt lat="46.56677" lon="5.9978">
        <ele>992.64</ele>
        <time>2019-06-09T10:07:13Z</time>
      </trkpt>
      <trkpt lat="46.56678" lon="5.99778">
        <ele>992.63</ele>
        <time>2019-06-09T10:07:14Z</time>
      </trkpt>
      <trkpt lat="46.5668" lon="5.99768">
        <ele>992.66</ele>
        <time>2019-06-09T10:07:19Z</time>
      </trkpt>
      <trkpt lat="46.56684" lon="5.99761">
        <ele>992.68</ele>
        <time>2019-06-09T10:07:24Z</time>
      </trkpt>
      <trkpt lat="46.56685" lon="5.99759">
        <ele>992.68</ele>
        <time>2019-06-09T10:07:25Z</time>
      </trkpt>
      <trkpt lat="46.56686" lon="5.99758">
        <ele>992.69</ele>
        <time>2019-06-09T10:07:26Z</time>
      </trkpt>
      <trkpt lat="46.56687" lon="5.99756">
        <ele>992.7</ele>
        <time>2019-06-09T10:07:27Z</time>
      </trkpt>
      <trkpt lat="46.56692" lon="5.9975">
        <ele>992.74</ele>
        <time>2019-06-09T10:07:32Z</time>
      </trkpt>
      <trkpt lat="46.56694" lon="5.99749">
        <ele>992.75</ele>
        <time>2019-06-09T10:07:33Z</time>
      </trkpt>
      <trkpt lat="46.567" lon="5.99738">
        <ele>993.73</ele>
        <time>2019-06-09T10:07:41Z</time>
      </trkpt>
      <trkpt lat="46.56707" lon="5.99724">
        <ele>994.77</ele>
        <time>2019-06-09T10:07:49Z</time>
      </trkpt>
      <trkpt lat="46.56708" lon="5.99723">
        <ele>994.79</ele>
        <time>2019-06-09T10:07:50Z</time>
      </trkpt>
      <trkpt lat="46.56709" lon="5.99721">
        <ele>994.79</ele>
        <time>2019-06-09T10:07:51Z</time>
      </trkpt>
      <trkpt lat="46.56718" lon="5.99706">
        <ele>997.43</ele>
        <time>2019-06-09T10:08:00Z</time>
      </trkpt>
      <trkpt lat="46.56731" lon="5.99684">
        <ele>998.27</ele>
        <time>2019-06-09T10:08:13Z</time>
      </trkpt>
      <trkpt lat="46.5674" lon="5.99664">
        <ele>998.21</ele>
        <time>2019-06-09T10:08:26Z</time>
      </trkpt>
      <trkpt lat="46.56741" lon="5.99662">
        <ele>998.19</ele>
        <time>2019-06-09T10:08:27Z</time>
      </trkpt>
      <trkpt lat="46.56741" lon="5.9966">
        <ele>998.19</ele>
        <time>2019-06-09T10:08:28Z</time>
      </trkpt>
      <trkpt lat="46.56741" lon="5.99658">
        <ele>998.18</ele>
        <time>2019-06-09T10:08:29Z</time>
      </trkpt>
      <trkpt lat="46.56741" lon="5.99656">
        <ele>998.18</ele>
        <time>2019-06-09T10:08:30Z</time>
      </trkpt>
      <trkpt lat="46.56742" lon="5.99654">
        <ele>998.17</ele>
        <time>2019-06-09T10:08:31Z</time>
      </trkpt>
      <trkpt lat="46.56742" lon="5.99652">
        <ele>998.18</ele>
        <time>2019-06-09T10:08:32Z</time>
      </trkpt>
      <trkpt lat="46.56743" lon="5.99649">
        <ele>995.9</ele>
        <time>2019-06-09T10:08:33Z</time>
      </trkpt>
      <trkpt lat="46.56743" lon="5.99647">
        <ele>995.91</ele>
        <time>2019-06-09T10:08:34Z</time>
      </trkpt>
      <trkpt lat="46.56754" lon="5.99624">
        <ele>996.04</ele>
        <time>2019-06-09T10:08:48Z</time>
      </trkpt>
      <trkpt lat="46.56768" lon="5.99606">
        <ele>998.46</ele>
        <time>2019-06-09T10:09:01Z</time>
      </trkpt>
      <trkpt lat="46.56769" lon="5.99605">
        <ele>998.46</ele>
        <time>2019-06-09T10:09:02Z</time>
      </trkpt>
      <trkpt lat="46.56773" lon="5.99594">
        <ele>999.47</ele>
        <time>2019-06-09T10:09:08Z</time>
      </trkpt>
      <trkpt lat="46.56774" lon="5.99592">
        <ele>999.49</ele>
        <time>2019-06-09T10:09:09Z</time>
      </trkpt>
      <trkpt lat="46.56775" lon="5.9959">
        <ele>1000.27</ele>
        <time>2019-06-09T10:09:10Z</time>
      </trkpt>
      <trkpt lat="46.56776" lon="5.99588">
        <ele>1000.27</ele>
        <time>2019-06-09T10:09:11Z</time>
      </trkpt>
      <trkpt lat="46.56777" lon="5.99586">
        <ele>1001.04</ele>
        <time>2019-06-09T10:09:12Z</time>
      </trkpt>
      <trkpt lat="46.56778" lon="5.99585">
        <ele>1001.06</ele>
        <time>2019-06-09T10:09:13Z</time>
      </trkpt>
      <trkpt lat="46.56779" lon="5.99583">
        <ele>1001.05</ele>
        <time>2019-06-09T10:09:14Z</time>
      </trkpt>
      <trkpt lat="46.56783" lon="5.99561">
        <ele>1001.88</ele>
        <time>2019-06-09T10:09:27Z</time>
      </trkpt>
      <trkpt lat="46.56785" lon="5.99555">
        <ele>1001.86</ele>
        <time>2019-06-09T10:09:30Z</time>
      </trkpt>
      <trkpt lat="46.56788" lon="5.99551">
        <ele>1002.65</ele>
        <time>2019-06-09T10:09:34Z</time>
      </trkpt>
      <trkpt lat="46.56793" lon="5.99526">
        <ele>1002.64</ele>
        <time>2019-06-09T10:09:46Z</time>
      </trkpt>
      <trkpt lat="46.56801" lon="5.99508">
        <ele>1000.3</ele>
        <time>2019-06-09T10:09:56Z</time>
      </trkpt>
      <trkpt lat="46.56804" lon="5.99501">
        <ele>999.35</ele>
        <time>2019-06-09T10:10:00Z</time>
      </trkpt>
      <trkpt lat="46.56806" lon="5.99485">
        <ele>998.56</ele>
        <time>2019-06-09T10:10:09Z</time>
      </trkpt>
      <trkpt lat="46.56813" lon="5.99463">
        <ele>996.68</ele>
        <time>2019-06-09T10:10:20Z</time>
      </trkpt>
      <trkpt lat="46.56818" lon="5.99443">
        <ele>994.76</ele>
        <time>2019-06-09T10:10:31Z</time>
      </trkpt>
      <trkpt lat="46.56829" lon="5.99422">
        <ele>993.97</ele>
        <time>2019-06-09T10:10:43Z</time>
      </trkpt>
      <trkpt lat="46.56836" lon="5.99409">
        <ele>993.98</ele>
        <time>2019-06-09T10:10:50Z</time>
      </trkpt>
      <trkpt lat="46.56845" lon="5.99397">
        <ele>993.97</ele>
        <time>2019-06-09T10:10:57Z</time>
      </trkpt>
      <trkpt lat="46.56858" lon="5.99377">
        <ele>993.92</ele>
        <time>2019-06-09T10:11:11Z</time>
      </trkpt>
      <trkpt lat="46.56869" lon="5.99356">
        <ele>993.92</ele>
        <time>2019-06-09T10:11:23Z</time>
      </trkpt>
      <trkpt lat="46.56882" lon="5.99331">
        <ele>993.92</ele>
        <time>2019-06-09T10:11:36Z</time>
      </trkpt>
      <trkpt lat="46.56891" lon="5.99312">
        <ele>993.94</ele>
        <time>2019-06-09T10:11:48Z</time>
      </trkpt>
      <trkpt lat="46.56901" lon="5.99296">
        <ele>993.21</ele>
        <time>2019-06-09T10:11:56Z</time>
      </trkpt>
      <trkpt lat="46.5691" lon="5.99284">
        <ele>993.25</ele>
        <time>2019-06-09T10:12:04Z</time>
      </trkpt>
      <trkpt lat="46.56913" lon="5.99282">
        <ele>992.36</ele>
        <time>2019-06-09T10:12:07Z</time>
      </trkpt>
      <trkpt lat="46.56918" lon="5.99278">
        <ele>991.54</ele>
        <time>2019-06-09T10:12:11Z</time>
      </trkpt>
      <trkpt lat="46.56937" lon="5.99258">
        <ele>991.66</ele>
        <time>2019-06-09T10:12:26Z</time>
      </trkpt>
      <trkpt lat="46.5695" lon="5.99246">
        <ele>990.98</ele>
        <time>2019-06-09T10:12:37Z</time>
      </trkpt>
      <trkpt lat="46.56957" lon="5.99238">
        <ele>990.18</ele>
        <time>2019-06-09T10:12:43Z</time>
      </trkpt>
      <trkpt lat="46.56972" lon="5.99233">
        <ele>990.33</ele>
        <time>2019-06-09T10:12:55Z</time>
      </trkpt>
      <trkpt lat="46.56982" lon="5.99215">
        <ele>990.5</ele>
        <time>2019-06-09T10:13:07Z</time>
      </trkpt>
      <trkpt lat="46.56986" lon="5.9921">
        <ele>990.55</ele>
        <time>2019-06-09T10:13:11Z</time>
      </trkpt>
      <trkpt lat="46.5699" lon="5.99198">
        <ele>990.6</ele>
        <time>2019-06-09T10:13:16Z</time>
      </trkpt>
      <trkpt lat="46.56996" lon="5.99186">
        <ele>989.63</ele>
        <time>2019-06-09T10:13:23Z</time>
      </trkpt>
      <trkpt lat="46.57003" lon="5.99173">
        <ele>989</ele>
        <time>2019-06-09T10:13:31Z</time>
      </trkpt>
      <trkpt lat="46.57008" lon="5.99169">
        <ele>989.03</ele>
        <time>2019-06-09T10:13:35Z</time>
      </trkpt>
      <trkpt lat="46.57023" lon="5.99159">
        <ele>988.44</ele>
        <time>2019-06-09T10:13:48Z</time>
      </trkpt>
      <trkpt lat="46.5704" lon="5.99142">
        <ele>986.9</ele>
        <time>2019-06-09T10:14:01Z</time>
      </trkpt>
      <trkpt lat="46.57056" lon="5.99128">
        <ele>986.22</ele>
        <time>2019-06-09T10:14:11Z</time>
      </trkpt>
      <trkpt lat="46.57067" lon="5.99119">
        <ele>985.57</ele>
        <time>2019-06-09T10:14:19Z</time>
      </trkpt>
      <trkpt lat="46.57082" lon="5.99108">
        <ele>984.93</ele>
        <time>2019-06-09T10:14:30Z</time>
      </trkpt>
      <trkpt lat="46.5709" lon="5.99098">
        <ele>984.18</ele>
        <time>2019-06-09T10:14:37Z</time>
      </trkpt>
      <trkpt lat="46.57093" lon="5.9909">
        <ele>983.44</ele>
        <time>2019-06-09T10:14:41Z</time>
      </trkpt>
      <trkpt lat="46.57109" lon="5.99075">
        <ele>982.77</ele>
        <time>2019-06-09T10:14:54Z</time>
      </trkpt>
      <trkpt lat="46.57115" lon="5.99069">
        <ele>982.87</ele>
        <time>2019-06-09T10:14:59Z</time>
      </trkpt>
      <trkpt lat="46.5713" lon="5.99058">
        <ele>982.27</ele>
        <time>2019-06-09T10:15:11Z</time>
      </trkpt>
      <trkpt lat="46.57135" lon="5.99053">
        <ele>981.45</ele>
        <time>2019-06-09T10:15:15Z</time>
      </trkpt>
      <trkpt lat="46.57147" lon="5.99037">
        <ele>980.52</ele>
        <time>2019-06-09T10:15:25Z</time>
      </trkpt>
      <trkpt lat="46.57163" lon="5.99019">
        <ele>979.8</ele>
        <time>2019-06-09T10:15:38Z</time>
      </trkpt>
      <trkpt lat="46.57171" lon="5.99012">
        <ele>979.03</ele>
        <time>2019-06-09T10:15:44Z</time>
      </trkpt>
      <trkpt lat="46.57185" lon="5.98998">
        <ele>977.41</ele>
        <time>2019-06-09T10:15:55Z</time>
      </trkpt>
      <trkpt lat="46.57202" lon="5.98989">
        <ele>975.63</ele>
        <time>2019-06-09T10:16:07Z</time>
      </trkpt>
      <trkpt lat="46.5722" lon="5.98986">
        <ele>973.91</ele>
        <time>2019-06-09T10:16:20Z</time>
      </trkpt>
      <trkpt lat="46.57234" lon="5.98976">
        <ele>972.3</ele>
        <time>2019-06-09T10:16:32Z</time>
      </trkpt>
      <trkpt lat="46.57241" lon="5.98964">
        <ele>972.35</ele>
        <time>2019-06-09T10:16:38Z</time>
      </trkpt>
      <trkpt lat="46.57247" lon="5.98949">
        <ele>971.49</ele>
        <time>2019-06-09T10:16:46Z</time>
      </trkpt>
      <trkpt lat="46.57255" lon="5.98939">
        <ele>969.74</ele>
        <time>2019-06-09T10:16:53Z</time>
      </trkpt>
      <trkpt lat="46.57269" lon="5.98918">
        <ele>968.01</ele>
        <time>2019-06-09T10:17:07Z</time>
      </trkpt>
      <trkpt lat="46.57273" lon="5.98913">
        <ele>968.06</ele>
        <time>2019-06-09T10:17:10Z</time>
      </trkpt>
      <trkpt lat="46.57278" lon="5.98904">
        <ele>966.42</ele>
        <time>2019-06-09T10:17:16Z</time>
      </trkpt>
      <trkpt lat="46.57288" lon="5.98891">
        <ele>965.49</ele>
        <time>2019-06-09T10:17:27Z</time>
      </trkpt>
      <trkpt lat="46.57301" lon="5.98878">
        <ele>962.97</ele>
        <time>2019-06-09T10:17:37Z</time>
      </trkpt>
      <trkpt lat="46.57312" lon="5.98869">
        <ele>961.24</ele>
        <time>2019-06-09T10:17:50Z</time>
      </trkpt>
      <trkpt lat="46.57315" lon="5.98862">
        <ele>960.39</ele>
        <time>2019-06-09T10:17:54Z</time>
      </trkpt>
      <trkpt lat="46.57317" lon="5.98859">
        <ele>959.58</ele>
        <time>2019-06-09T10:17:56Z</time>
      </trkpt>
      <trkpt lat="46.57323" lon="5.98853">
        <ele>958.63</ele>
        <time>2019-06-09T10:18:02Z</time>
      </trkpt>
      <trkpt lat="46.57324" lon="5.98851">
        <ele>958.62</ele>
        <time>2019-06-09T10:18:03Z</time>
      </trkpt>
      <trkpt lat="46.57326" lon="5.98849">
        <ele>958.63</ele>
        <time>2019-06-09T10:18:04Z</time>
      </trkpt>
      <trkpt lat="46.57329" lon="5.98845">
        <ele>956.75</ele>
        <time>2019-06-09T10:18:08Z</time>
      </trkpt>
      <trkpt lat="46.57333" lon="5.98839">
        <ele>955.11</ele>
        <time>2019-06-09T10:18:13Z</time>
      </trkpt>
      <trkpt lat="46.57335" lon="5.98838">
        <ele>955.13</ele>
        <time>2019-06-09T10:18:14Z</time>
      </trkpt>
      <trkpt lat="46.57337" lon="5.98836">
        <ele>955.13</ele>
        <time>2019-06-09T10:18:16Z</time>
      </trkpt>
      <trkpt lat="46.57339" lon="5.98836">
        <ele>955.14</ele>
        <time>2019-06-09T10:18:17Z</time>
      </trkpt>
      <trkpt lat="46.57341" lon="5.98835">
        <ele>955.14</ele>
        <time>2019-06-09T10:18:18Z</time>
      </trkpt>
      <trkpt lat="46.5735" lon="5.98827">
        <ele>952.7</ele>
        <time>2019-06-09T10:18:29Z</time>
      </trkpt>
      <trkpt lat="46.57366" lon="5.98814">
        <ele>950.35</ele>
        <time>2019-06-09T10:18:41Z</time>
      </trkpt>
      <trkpt lat="46.5738" lon="5.98798">
        <ele>948.71</ele>
        <time>2019-06-09T10:18:52Z</time>
      </trkpt>
      <trkpt lat="46.57382" lon="5.98797">
        <ele>947.73</ele>
        <time>2019-06-09T10:18:53Z</time>
      </trkpt>
      <trkpt lat="46.57384" lon="5.98796">
        <ele>947.73</ele>
        <time>2019-06-09T10:18:54Z</time>
      </trkpt>
      <trkpt lat="46.57405" lon="5.98788">
        <ele>945.18</ele>
        <time>2019-06-09T10:19:08Z</time>
      </trkpt>
      <trkpt lat="46.57419" lon="5.98784">
        <ele>943.71</ele>
        <time>2019-06-09T10:19:20Z</time>
      </trkpt>
      <trkpt lat="46.57429" lon="5.98775">
        <ele>943.76</ele>
        <time>2019-06-09T10:19:30Z</time>
      </trkpt>
      <trkpt lat="46.5743" lon="5.98773">
        <ele>943.77</ele>
        <time>2019-06-09T10:19:31Z</time>
      </trkpt>
      <trkpt lat="46.57433" lon="5.98771">
        <ele>943.79</ele>
        <time>2019-06-09T10:19:34Z</time>
      </trkpt>
      <trkpt lat="46.57434" lon="5.9877">
        <ele>943.8</ele>
        <time>2019-06-09T10:19:35Z</time>
      </trkpt>
      <trkpt lat="46.57436" lon="5.98769">
        <ele>943.8</ele>
        <time>2019-06-09T10:19:36Z</time>
      </trkpt>
      <trkpt lat="46.57437" lon="5.98768">
        <ele>943.8</ele>
        <time>2019-06-09T10:19:37Z</time>
      </trkpt>
      <trkpt lat="46.57439" lon="5.98768">
        <ele>943.81</ele>
        <time>2019-06-09T10:19:38Z</time>
      </trkpt>
      <trkpt lat="46.57452" lon="5.98755">
        <ele>943.85</ele>
        <time>2019-06-09T10:19:50Z</time>
      </trkpt>
      <trkpt lat="46.57457" lon="5.98746">
        <ele>943.85</ele>
        <time>2019-06-09T10:19:55Z</time>
      </trkpt>
      <trkpt lat="46.57458" lon="5.98744">
        <ele>943.83</ele>
        <time>2019-06-09T10:19:56Z</time>
      </trkpt>
      <trkpt lat="46.57467" lon="5.98722">
        <ele>943.82</ele>
        <time>2019-06-09T10:20:10Z</time>
      </trkpt>
      <trkpt lat="46.57478" lon="5.98697">
        <ele>943.04</ele>
        <time>2019-06-09T10:20:21Z</time>
      </trkpt>
      <trkpt lat="46.57479" lon="5.9869">
        <ele>942.25</ele>
        <time>2019-06-09T10:20:24Z</time>
      </trkpt>
      <trkpt lat="46.5748" lon="5.98688">
        <ele>942.25</ele>
        <time>2019-06-09T10:20:25Z</time>
      </trkpt>
      <trkpt lat="46.57481" lon="5.98686">
        <ele>942.26</ele>
        <time>2019-06-09T10:20:26Z</time>
      </trkpt>
      <trkpt lat="46.57481" lon="5.98684">
        <ele>941.36</ele>
        <time>2019-06-09T10:20:27Z</time>
      </trkpt>
      <trkpt lat="46.57482" lon="5.98682">
        <ele>941.37</ele>
        <time>2019-06-09T10:20:28Z</time>
      </trkpt>
      <trkpt lat="46.57483" lon="5.98679">
        <ele>941.37</ele>
        <time>2019-06-09T10:20:29Z</time>
      </trkpt>
      <trkpt lat="46.57484" lon="5.98677">
        <ele>941.37</ele>
        <time>2019-06-09T10:20:30Z</time>
      </trkpt>
      <trkpt lat="46.57485" lon="5.98675">
        <ele>941.36</ele>
        <time>2019-06-09T10:20:31Z</time>
      </trkpt>
      <trkpt lat="46.57486" lon="5.98674">
        <ele>941.38</ele>
        <time>2019-06-09T10:20:32Z</time>
      </trkpt>
      <trkpt lat="46.57503" lon="5.98657">
        <ele>938.79</ele>
        <time>2019-06-09T10:20:45Z</time>
      </trkpt>
      <trkpt lat="46.57515" lon="5.98654">
        <ele>937.83</ele>
        <time>2019-06-09T10:20:53Z</time>
      </trkpt>
      <trkpt lat="46.57516" lon="5.98653">
        <ele>936.98</ele>
        <time>2019-06-09T10:20:54Z</time>
      </trkpt>
      <trkpt lat="46.57525" lon="5.98649">
        <ele>936.21</ele>
        <time>2019-06-09T10:21:02Z</time>
      </trkpt>
      <trkpt lat="46.57533" lon="5.98639">
        <ele>934.3</ele>
        <time>2019-06-09T10:21:09Z</time>
      </trkpt>
      <trkpt lat="46.57534" lon="5.98638">
        <ele>933.29</ele>
        <time>2019-06-09T10:21:10Z</time>
      </trkpt>
      <trkpt lat="46.57547" lon="5.98623">
        <ele>930.9</ele>
        <time>2019-06-09T10:21:23Z</time>
      </trkpt>
      <trkpt lat="46.57553" lon="5.98612">
        <ele>929.32</ele>
        <time>2019-06-09T10:21:30Z</time>
      </trkpt>
      <trkpt lat="46.57559" lon="5.98606">
        <ele>928.49</ele>
        <time>2019-06-09T10:21:35Z</time>
      </trkpt>
      <trkpt lat="46.57573" lon="5.98593">
        <ele>926.7</ele>
        <time>2019-06-09T10:21:45Z</time>
      </trkpt>
      <trkpt lat="46.57574" lon="5.98591">
        <ele>926.7</ele>
        <time>2019-06-09T10:21:46Z</time>
      </trkpt>
      <trkpt lat="46.57588" lon="5.98577">
        <ele>924.24</ele>
        <time>2019-06-09T10:21:58Z</time>
      </trkpt>
      <trkpt lat="46.57606" lon="5.98552">
        <ele>921.38</ele>
        <time>2019-06-09T10:22:14Z</time>
      </trkpt>
      <trkpt lat="46.57617" lon="5.98531">
        <ele>918.52</ele>
        <time>2019-06-09T10:22:25Z</time>
      </trkpt>
      <trkpt lat="46.57617" lon="5.98525">
        <ele>918.73</ele>
        <time>2019-06-09T10:22:52Z</time>
      </trkpt>
      <trkpt lat="46.57622" lon="5.98512">
        <ele>918.77</ele>
        <time>2019-06-09T10:23:06Z</time>
      </trkpt>
      <trkpt lat="46.57622" lon="5.98507">
        <ele>917.67</ele>
        <time>2019-06-09T10:23:09Z</time>
      </trkpt>
      <trkpt lat="46.57623" lon="5.98505">
        <ele>917.68</ele>
        <time>2019-06-09T10:23:10Z</time>
      </trkpt>
      <trkpt lat="46.57625" lon="5.98504">
        <ele>917.68</ele>
        <time>2019-06-09T10:23:11Z</time>
      </trkpt>
      <trkpt lat="46.57626" lon="5.98503">
        <ele>917.68</ele>
        <time>2019-06-09T10:23:12Z</time>
      </trkpt>
      <trkpt lat="46.57631" lon="5.98499">
        <ele>915.96</ele>
        <time>2019-06-09T10:23:16Z</time>
      </trkpt>
      <trkpt lat="46.5764" lon="5.98483">
        <ele>914.37</ele>
        <time>2019-06-09T10:23:26Z</time>
      </trkpt>
      <trkpt lat="46.57657" lon="5.98458">
        <ele>912.47</ele>
        <time>2019-06-09T10:23:41Z</time>
      </trkpt>
      <trkpt lat="46.57664" lon="5.98443">
        <ele>910.49</ele>
        <time>2019-06-09T10:23:51Z</time>
      </trkpt>
      <trkpt lat="46.57665" lon="5.98437">
        <ele>909.56</ele>
        <time>2019-06-09T10:23:55Z</time>
      </trkpt>
      <trkpt lat="46.57665" lon="5.98435">
        <ele>909.56</ele>
        <time>2019-06-09T10:23:56Z</time>
      </trkpt>
      <trkpt lat="46.57663" lon="5.98432">
        <ele>909.57</ele>
        <time>2019-06-09T10:23:58Z</time>
      </trkpt>
      <trkpt lat="46.57661" lon="5.9843">
        <ele>908.58</ele>
        <time>2019-06-09T10:24:00Z</time>
      </trkpt>
      <trkpt lat="46.5766" lon="5.9843">
        <ele>908.57</ele>
        <time>2019-06-09T10:24:01Z</time>
      </trkpt>
      <trkpt lat="46.57658" lon="5.98429">
        <ele>908.58</ele>
        <time>2019-06-09T10:24:02Z</time>
      </trkpt>
      <trkpt lat="46.57649" lon="5.98428">
        <ele>906.89</ele>
        <time>2019-06-09T10:24:10Z</time>
      </trkpt>
      <trkpt lat="46.57649" lon="5.98427">
        <ele>905.87</ele>
        <time>2019-06-09T10:24:12Z</time>
      </trkpt>
      <trkpt lat="46.57649" lon="5.98425">
        <ele>905.84</ele>
        <time>2019-06-09T10:24:13Z</time>
      </trkpt>
      <trkpt lat="46.5765" lon="5.98424">
        <ele>905.86</ele>
        <time>2019-06-09T10:24:14Z</time>
      </trkpt>
      <trkpt lat="46.5765" lon="5.98422">
        <ele>904.94</ele>
        <time>2019-06-09T10:24:15Z</time>
      </trkpt>
      <trkpt lat="46.57651" lon="5.9842">
        <ele>904.94</ele>
        <time>2019-06-09T10:24:16Z</time>
      </trkpt>
      <trkpt lat="46.57652" lon="5.98418">
        <ele>904.02</ele>
        <time>2019-06-09T10:24:17Z</time>
      </trkpt>
      <trkpt lat="46.57652" lon="5.98417">
        <ele>904.02</ele>
        <time>2019-06-09T10:24:18Z</time>
      </trkpt>
      <trkpt lat="46.57653" lon="5.98415">
        <ele>904</ele>
        <time>2019-06-09T10:24:19Z</time>
      </trkpt>
      <trkpt lat="46.57659" lon="5.98406">
        <ele>900.94</ele>
        <time>2019-06-09T10:24:26Z</time>
      </trkpt>
      <trkpt lat="46.57663" lon="5.98402">
        <ele>899.74</ele>
        <time>2019-06-09T10:24:30Z</time>
      </trkpt>
      <trkpt lat="46.57664" lon="5.98401">
        <ele>899.77</ele>
        <time>2019-06-09T10:24:31Z</time>
      </trkpt>
      <trkpt lat="46.5767" lon="5.98393">
        <ele>897.96</ele>
        <time>2019-06-09T10:24:38Z</time>
      </trkpt>
      <trkpt lat="46.57671" lon="5.98391">
        <ele>897.95</ele>
        <time>2019-06-09T10:24:39Z</time>
      </trkpt>
      <trkpt lat="46.57672" lon="5.98389">
        <ele>897.98</ele>
        <time>2019-06-09T10:24:40Z</time>
      </trkpt>
      <trkpt lat="46.57675" lon="5.98372">
        <ele>895.05</ele>
        <time>2019-06-09T10:24:52Z</time>
      </trkpt>
      <trkpt lat="46.57683" lon="5.9835">
        <ele>892.48</ele>
        <time>2019-06-09T10:25:09Z</time>
      </trkpt>
      <trkpt lat="46.57695" lon="5.98332">
        <ele>890.5</ele>
        <time>2019-06-09T10:25:22Z</time>
      </trkpt>
      <trkpt lat="46.57698" lon="5.98326">
        <ele>889.55</ele>
        <time>2019-06-09T10:25:25Z</time>
      </trkpt>
      <trkpt lat="46.57701" lon="5.98323">
        <ele>888.7</ele>
        <time>2019-06-09T10:25:30Z</time>
      </trkpt>
      <trkpt lat="46.57714" lon="5.98308">
        <ele>886.15</ele>
        <time>2019-06-09T10:25:40Z</time>
      </trkpt>
      <trkpt lat="46.57716" lon="5.98296">
        <ele>885.3</ele>
        <time>2019-06-09T10:25:45Z</time>
      </trkpt>
      <trkpt lat="46.57721" lon="5.98277">
        <ele>885.2</ele>
        <time>2019-06-09T10:25:54Z</time>
      </trkpt>
      <trkpt lat="46.57722" lon="5.98264">
        <ele>884.28</ele>
        <time>2019-06-09T10:26:00Z</time>
      </trkpt>
      <trkpt lat="46.5773" lon="5.98247">
        <ele>884.2</ele>
        <time>2019-06-09T10:26:08Z</time>
      </trkpt>
      <trkpt lat="46.57731" lon="5.98235">
        <ele>884.13</ele>
        <time>2019-06-09T10:26:16Z</time>
      </trkpt>
      <trkpt lat="46.57728" lon="5.98221">
        <ele>884.08</ele>
        <time>2019-06-09T10:26:28Z</time>
      </trkpt>
      <trkpt lat="46.57727" lon="5.9822">
        <ele>884.08</ele>
        <time>2019-06-09T10:26:30Z</time>
      </trkpt>
      <trkpt lat="46.57725" lon="5.98217">
        <ele>884.07</ele>
        <time>2019-06-09T10:26:33Z</time>
      </trkpt>
      <trkpt lat="46.5772" lon="5.98208">
        <ele>884.04</ele>
        <time>2019-06-09T10:26:39Z</time>
      </trkpt>
      <trkpt lat="46.57705" lon="5.98195">
        <ele>884.01</ele>
        <time>2019-06-09T10:26:51Z</time>
      </trkpt>
      <trkpt lat="46.57698" lon="5.98187">
        <ele>883.22</ele>
        <time>2019-06-09T10:26:58Z</time>
      </trkpt>
      <trkpt lat="46.57687" lon="5.98179">
        <ele>883.21</ele>
        <time>2019-06-09T10:27:07Z</time>
      </trkpt>
      <trkpt lat="46.57671" lon="5.98172">
        <ele>882.28</ele>
        <time>2019-06-09T10:27:20Z</time>
      </trkpt>
      <trkpt lat="46.57665" lon="5.98167">
        <ele>882.28</ele>
        <time>2019-06-09T10:27:25Z</time>
      </trkpt>
      <trkpt lat="46.57655" lon="5.98164">
        <ele>882.29</ele>
        <time>2019-06-09T10:27:30Z</time>
      </trkpt>
      <trkpt lat="46.57638" lon="5.98155">
        <ele>882.29</ele>
        <time>2019-06-09T10:27:44Z</time>
      </trkpt>
      <trkpt lat="46.57614" lon="5.98143">
        <ele>882.28</ele>
        <time>2019-06-09T10:28:00Z</time>
      </trkpt>
      <trkpt lat="46.57593" lon="5.98132">
        <ele>882.25</ele>
        <time>2019-06-09T10:28:15Z</time>
      </trkpt>
      <trkpt lat="46.57575" lon="5.98118">
        <ele>882.2</ele>
        <time>2019-06-09T10:28:27Z</time>
      </trkpt>
      <trkpt lat="46.57559" lon="5.98092">
        <ele>882.15</ele>
        <time>2019-06-09T10:28:40Z</time>
      </trkpt>
      <trkpt lat="46.57552" lon="5.9806">
        <ele>882.15</ele>
        <time>2019-06-09T10:28:54Z</time>
      </trkpt>
      <trkpt lat="46.57553" lon="5.98025">
        <ele>882.18</ele>
        <time>2019-06-09T10:29:11Z</time>
      </trkpt>
      <trkpt lat="46.57556" lon="5.97993">
        <ele>881.38</ele>
        <time>2019-06-09T10:29:26Z</time>
      </trkpt>
      <trkpt lat="46.57558" lon="5.97964">
        <ele>881.41</ele>
        <time>2019-06-09T10:29:39Z</time>
      </trkpt>
      <trkpt lat="46.57559" lon="5.9794">
        <ele>880.48</ele>
        <time>2019-06-09T10:29:51Z</time>
      </trkpt>
      <trkpt lat="46.5756" lon="5.97938">
        <ele>880.48</ele>
        <time>2019-06-09T10:29:52Z</time>
      </trkpt>
      <trkpt lat="46.5756" lon="5.97936">
        <ele>880.48</ele>
        <time>2019-06-09T10:29:53Z</time>
      </trkpt>
      <trkpt lat="46.57562" lon="5.97925">
        <ele>879.55</ele>
        <time>2019-06-09T10:29:57Z</time>
      </trkpt>
      <trkpt lat="46.57562" lon="5.97922">
        <ele>879.55</ele>
        <time>2019-06-09T10:29:58Z</time>
      </trkpt>
      <trkpt lat="46.57561" lon="5.97921">
        <ele>879.55</ele>
        <time>2019-06-09T10:29:59Z</time>
      </trkpt>
      <trkpt lat="46.57559" lon="5.97915">
        <ele>878.68</ele>
        <time>2019-06-09T10:30:02Z</time>
      </trkpt>
      <trkpt lat="46.57559" lon="5.97912">
        <ele>878.67</ele>
        <time>2019-06-09T10:30:03Z</time>
      </trkpt>
      <trkpt lat="46.5756" lon="5.9791">
        <ele>878.67</ele>
        <time>2019-06-09T10:30:04Z</time>
      </trkpt>
      <trkpt lat="46.57561" lon="5.97908">
        <ele>878.67</ele>
        <time>2019-06-09T10:30:05Z</time>
      </trkpt>
      <trkpt lat="46.57561" lon="5.97905">
        <ele>877.85</ele>
        <time>2019-06-09T10:30:06Z</time>
      </trkpt>
      <trkpt lat="46.57562" lon="5.97903">
        <ele>877.85</ele>
        <time>2019-06-09T10:30:07Z</time>
      </trkpt>
      <trkpt lat="46.57562" lon="5.97901">
        <ele>877.85</ele>
        <time>2019-06-09T10:30:08Z</time>
      </trkpt>
      <trkpt lat="46.57562" lon="5.97899">
        <ele>877.86</ele>
        <time>2019-06-09T10:30:09Z</time>
      </trkpt>
      <trkpt lat="46.57562" lon="5.97897">
        <ele>877.09</ele>
        <time>2019-06-09T10:30:10Z</time>
      </trkpt>
      <trkpt lat="46.57562" lon="5.97895">
        <ele>877.09</ele>
        <time>2019-06-09T10:30:11Z</time>
      </trkpt>
      <trkpt lat="46.57562" lon="5.97892">
        <ele>877.09</ele>
        <time>2019-06-09T10:30:12Z</time>
      </trkpt>
      <trkpt lat="46.57563" lon="5.9789">
        <ele>877.1</ele>
        <time>2019-06-09T10:30:13Z</time>
      </trkpt>
      <trkpt lat="46.57563" lon="5.97887">
        <ele>877.1</ele>
        <time>2019-06-09T10:30:14Z</time>
      </trkpt>
      <trkpt lat="46.57562" lon="5.97876">
        <ele>877.12</ele>
        <time>2019-06-09T10:30:19Z</time>
      </trkpt>
      <trkpt lat="46.57562" lon="5.97874">
        <ele>876.37</ele>
        <time>2019-06-09T10:30:20Z</time>
      </trkpt>
      <trkpt lat="46.57564" lon="5.97861">
        <ele>876.39</ele>
        <time>2019-06-09T10:30:25Z</time>
      </trkpt>
      <trkpt lat="46.57564" lon="5.97859">
        <ele>876.4</ele>
        <time>2019-06-09T10:30:26Z</time>
      </trkpt>
      <trkpt lat="46.57563" lon="5.97857">
        <ele>875.53</ele>
        <time>2019-06-09T10:30:27Z</time>
      </trkpt>
      <trkpt lat="46.57563" lon="5.97855">
        <ele>875.54</ele>
        <time>2019-06-09T10:30:28Z</time>
      </trkpt>
      <trkpt lat="46.57562" lon="5.97853">
        <ele>875.54</ele>
        <time>2019-06-09T10:30:29Z</time>
      </trkpt>
      <trkpt lat="46.57562" lon="5.9785">
        <ele>875.55</ele>
        <time>2019-06-09T10:30:30Z</time>
      </trkpt>
      <trkpt lat="46.57562" lon="5.97848">
        <ele>875.55</ele>
        <time>2019-06-09T10:30:31Z</time>
      </trkpt>
      <trkpt lat="46.57562" lon="5.97842">
        <ele>875.57</ele>
        <time>2019-06-09T10:30:34Z</time>
      </trkpt>
      <trkpt lat="46.57556" lon="5.9782">
        <ele>872.75</ele>
        <time>2019-06-09T10:30:44Z</time>
      </trkpt>
      <trkpt lat="46.57547" lon="5.97794">
        <ele>876.11</ele>
        <time>2019-06-09T10:30:58Z</time>
      </trkpt>
      <trkpt lat="46.57546" lon="5.97792">
        <ele>876.12</ele>
        <time>2019-06-09T10:30:59Z</time>
      </trkpt>
      <trkpt lat="46.57543" lon="5.97786">
        <ele>873.41</ele>
        <time>2019-06-09T10:31:03Z</time>
      </trkpt>
      <trkpt lat="46.57533" lon="5.97757">
        <ele>873.49</ele>
        <time>2019-06-09T10:31:20Z</time>
      </trkpt>
      <trkpt lat="46.57522" lon="5.97724">
        <ele>873.53</ele>
        <time>2019-06-09T10:31:37Z</time>
      </trkpt>
      <trkpt lat="46.57511" lon="5.97693">
        <ele>873.56</ele>
        <time>2019-06-09T10:31:52Z</time>
      </trkpt>
      <trkpt lat="46.57497" lon="5.97656">
        <ele>873.58</ele>
        <time>2019-06-09T10:32:11Z</time>
      </trkpt>
      <trkpt lat="46.57485" lon="5.97625">
        <ele>873.59</ele>
        <time>2019-06-09T10:32:27Z</time>
      </trkpt>
      <trkpt lat="46.5748" lon="5.97592">
        <ele>873.62</ele>
        <time>2019-06-09T10:32:43Z</time>
      </trkpt>
      <trkpt lat="46.57476" lon="5.97555">
        <ele>873.65</ele>
        <time>2019-06-09T10:33:00Z</time>
      </trkpt>
      <trkpt lat="46.57474" lon="5.9754">
        <ele>876.07</ele>
        <time>2019-06-09T10:33:07Z</time>
      </trkpt>
      <trkpt lat="46.57466" lon="5.97516">
        <ele>877.01</ele>
        <time>2019-06-09T10:33:20Z</time>
      </trkpt>
      <trkpt lat="46.57466" lon="5.97514">
        <ele>877.01</ele>
        <time>2019-06-09T10:33:21Z</time>
      </trkpt>
      <trkpt lat="46.57475" lon="5.97483">
        <ele>877.07</ele>
        <time>2019-06-09T10:33:36Z</time>
      </trkpt>
      <trkpt lat="46.57479" lon="5.97464">
        <ele>877.12</ele>
        <time>2019-06-09T10:33:46Z</time>
      </trkpt>
      <trkpt lat="46.57479" lon="5.97461">
        <ele>877.13</ele>
        <time>2019-06-09T10:33:47Z</time>
      </trkpt>
      <trkpt lat="46.57479" lon="5.97459">
        <ele>877.13</ele>
        <time>2019-06-09T10:33:48Z</time>
      </trkpt>
      <trkpt lat="46.57478" lon="5.97457">
        <ele>874.87</ele>
        <time>2019-06-09T10:33:49Z</time>
      </trkpt>
      <trkpt lat="46.57478" lon="5.97456">
        <ele>874.88</ele>
        <time>2019-06-09T10:33:50Z</time>
      </trkpt>
      <trkpt lat="46.57476" lon="5.97453">
        <ele>874.88</ele>
        <time>2019-06-09T10:33:52Z</time>
      </trkpt>
      <trkpt lat="46.57475" lon="5.97452">
        <ele>874.89</ele>
        <time>2019-06-09T10:33:53Z</time>
      </trkpt>
      <trkpt lat="46.57472" lon="5.97449">
        <ele>874.89</ele>
        <time>2019-06-09T10:33:56Z</time>
      </trkpt>
      <trkpt lat="46.5747" lon="5.97447">
        <ele>874.79</ele>
        <time>2019-06-09T10:33:59Z</time>
      </trkpt>
      <trkpt lat="46.57467" lon="5.97448">
        <ele>874.91</ele>
        <time>2019-06-09T10:34:00Z</time>
      </trkpt>
      <trkpt lat="46.57464" lon="5.97447">
        <ele>874.92</ele>
        <time>2019-06-09T10:34:03Z</time>
      </trkpt>
      <trkpt lat="46.57455" lon="5.97455">
        <ele>874.94</ele>
        <time>2019-06-09T10:34:13Z</time>
      </trkpt>
      <trkpt lat="46.57454" lon="5.97457">
        <ele>874.94</ele>
        <time>2019-06-09T10:34:14Z</time>
      </trkpt>
      <trkpt lat="46.57453" lon="5.97459">
        <ele>874.94</ele>
        <time>2019-06-09T10:34:15Z</time>
      </trkpt>
      <trkpt lat="46.57452" lon="5.97462">
        <ele>874.94</ele>
        <time>2019-06-09T10:34:16Z</time>
      </trkpt>
      <trkpt lat="46.5745" lon="5.97464">
        <ele>874.94</ele>
        <time>2019-06-09T10:34:17Z</time>
      </trkpt>
      <trkpt lat="46.57449" lon="5.97466">
        <ele>874.95</ele>
        <time>2019-06-09T10:34:18Z</time>
      </trkpt>
      <trkpt lat="46.57448" lon="5.97468">
        <ele>877.22</ele>
        <time>2019-06-09T10:34:19Z</time>
      </trkpt>
      <trkpt lat="46.57447" lon="5.9747">
        <ele>877.22</ele>
        <time>2019-06-09T10:34:20Z</time>
      </trkpt>
      <trkpt lat="46.57446" lon="5.97472">
        <ele>877.22</ele>
        <time>2019-06-09T10:34:21Z</time>
      </trkpt>
      <trkpt lat="46.57446" lon="5.97474">
        <ele>877.34</ele>
        <time>2019-06-09T10:34:22Z</time>
      </trkpt>
      <trkpt lat="46.57446" lon="5.97476">
        <ele>877.35</ele>
        <time>2019-06-09T10:34:23Z</time>
      </trkpt>
      <trkpt lat="46.57446" lon="5.97477">
        <ele>877.34</ele>
        <time>2019-06-09T10:34:24Z</time>
      </trkpt>
      <trkpt lat="46.57445" lon="5.97479">
        <ele>877.98</ele>
        <time>2019-06-09T10:34:25Z</time>
      </trkpt>
      <trkpt lat="46.57439" lon="5.97487">
        <ele>877.98</ele>
        <time>2019-06-09T10:34:31Z</time>
      </trkpt>
      <trkpt lat="46.57437" lon="5.97487">
        <ele>878.09</ele>
        <time>2019-06-09T10:34:32Z</time>
      </trkpt>
      <trkpt lat="46.57435" lon="5.97487">
        <ele>878.81</ele>
        <time>2019-06-09T10:34:33Z</time>
      </trkpt>
      <trkpt lat="46.57433" lon="5.97486">
        <ele>878.81</ele>
        <time>2019-06-09T10:34:34Z</time>
      </trkpt>
      <trkpt lat="46.57431" lon="5.97485">
        <ele>878.81</ele>
        <time>2019-06-09T10:34:35Z</time>
      </trkpt>
      <trkpt lat="46.5743" lon="5.97485">
        <ele>878.81</ele>
        <time>2019-06-09T10:34:36Z</time>
      </trkpt>
      <trkpt lat="46.57429" lon="5.97485">
        <ele>878.81</ele>
        <time>2019-06-09T10:34:37Z</time>
      </trkpt>
      <trkpt lat="46.57427" lon="5.97484">
        <ele>878.81</ele>
        <time>2019-06-09T10:34:38Z</time>
      </trkpt>
      <trkpt lat="46.57426" lon="5.97484">
        <ele>878.81</ele>
        <time>2019-06-09T10:34:39Z</time>
      </trkpt>
      <trkpt lat="46.57401" lon="5.97467">
        <ele>879.62</ele>
        <time>2019-06-09T10:34:56Z</time>
      </trkpt>
      <trkpt lat="46.57378" lon="5.97459">
        <ele>880.41</ele>
        <time>2019-06-09T10:35:12Z</time>
      </trkpt>
      <trkpt lat="46.57377" lon="5.97459">
        <ele>880.41</ele>
        <time>2019-06-09T10:35:13Z</time>
      </trkpt>
      <trkpt lat="46.57376" lon="5.97459">
        <ele>880.42</ele>
        <time>2019-06-09T10:35:14Z</time>
      </trkpt>
      <trkpt lat="46.57374" lon="5.97458">
        <ele>880.41</ele>
        <time>2019-06-09T10:35:15Z</time>
      </trkpt>
      <trkpt lat="46.57373" lon="5.97458">
        <ele>880.44</ele>
        <time>2019-06-09T10:35:16Z</time>
      </trkpt>
      <trkpt lat="46.57371" lon="5.97457">
        <ele>880.46</ele>
        <time>2019-06-09T10:35:17Z</time>
      </trkpt>
      <trkpt lat="46.5737" lon="5.97457">
        <ele>880.46</ele>
        <time>2019-06-09T10:35:18Z</time>
      </trkpt>
      <trkpt lat="46.57368" lon="5.97457">
        <ele>881.3</ele>
        <time>2019-06-09T10:35:19Z</time>
      </trkpt>
      <trkpt lat="46.57367" lon="5.97456">
        <ele>881.3</ele>
        <time>2019-06-09T10:35:20Z</time>
      </trkpt>
      <trkpt lat="46.57365" lon="5.97456">
        <ele>881.35</ele>
        <time>2019-06-09T10:35:21Z</time>
      </trkpt>
      <trkpt lat="46.57353" lon="5.97455">
        <ele>881.29</ele>
        <time>2019-06-09T10:35:34Z</time>
      </trkpt>
      <trkpt lat="46.57331" lon="5.97449">
        <ele>881.26</ele>
        <time>2019-06-09T10:35:48Z</time>
      </trkpt>
      <trkpt lat="46.57314" lon="5.97442">
        <ele>881.24</ele>
        <time>2019-06-09T10:36:01Z</time>
      </trkpt>
      <trkpt lat="46.5729" lon="5.97436">
        <ele>881.14</ele>
        <time>2019-06-09T10:36:17Z</time>
      </trkpt>
      <trkpt lat="46.57285" lon="5.97435">
        <ele>881.11</ele>
        <time>2019-06-09T10:36:20Z</time>
      </trkpt>
      <trkpt lat="46.57272" lon="5.97433">
        <ele>881.97</ele>
        <time>2019-06-09T10:36:34Z</time>
      </trkpt>
      <trkpt lat="46.57245" lon="5.97427">
        <ele>882.62</ele>
        <time>2019-06-09T10:36:51Z</time>
      </trkpt>
      <trkpt lat="46.5724" lon="5.97423">
        <ele>883.36</ele>
        <time>2019-06-09T10:36:55Z</time>
      </trkpt>
      <trkpt lat="46.57239" lon="5.97422">
        <ele>883.35</ele>
        <time>2019-06-09T10:36:56Z</time>
      </trkpt>
      <trkpt lat="46.57238" lon="5.97421">
        <ele>883.32</ele>
        <time>2019-06-09T10:36:57Z</time>
      </trkpt>
      <trkpt lat="46.57237" lon="5.9742">
        <ele>883.32</ele>
        <time>2019-06-09T10:36:58Z</time>
      </trkpt>
      <trkpt lat="46.57235" lon="5.97418">
        <ele>883.31</ele>
        <time>2019-06-09T10:36:59Z</time>
      </trkpt>
      <trkpt lat="46.57234" lon="5.97417">
        <ele>883.3</ele>
        <time>2019-06-09T10:37:00Z</time>
      </trkpt>
      <trkpt lat="46.57232" lon="5.97416">
        <ele>883.31</ele>
        <time>2019-06-09T10:37:01Z</time>
      </trkpt>
      <trkpt lat="46.57229" lon="5.97414">
        <ele>883.28</ele>
        <time>2019-06-09T10:37:04Z</time>
      </trkpt>
      <trkpt lat="46.57228" lon="5.97413">
        <ele>883.28</ele>
        <time>2019-06-09T10:37:05Z</time>
      </trkpt>
      <trkpt lat="46.57227" lon="5.97411">
        <ele>883.28</ele>
        <time>2019-06-09T10:37:06Z</time>
      </trkpt>
      <trkpt lat="46.57226" lon="5.9741">
        <ele>883.28</ele>
        <time>2019-06-09T10:37:07Z</time>
      </trkpt>
      <trkpt lat="46.57225" lon="5.97408">
        <ele>883.27</ele>
        <time>2019-06-09T10:37:08Z</time>
      </trkpt>
      <trkpt lat="46.57223" lon="5.97406">
        <ele>884.4</ele>
        <time>2019-06-09T10:37:09Z</time>
      </trkpt>
      <trkpt lat="46.57215" lon="5.97391">
        <ele>884.37</ele>
        <time>2019-06-09T10:37:16Z</time>
      </trkpt>
      <trkpt lat="46.57214" lon="5.97388">
        <ele>884.38</ele>
        <time>2019-06-09T10:37:17Z</time>
      </trkpt>
      <trkpt lat="46.57213" lon="5.97386">
        <ele>884.36</ele>
        <time>2019-06-09T10:37:18Z</time>
      </trkpt>
      <trkpt lat="46.57212" lon="5.97384">
        <ele>884.34</ele>
        <time>2019-06-09T10:37:19Z</time>
      </trkpt>
      <trkpt lat="46.5721" lon="5.97382">
        <ele>884.33</ele>
        <time>2019-06-09T10:37:20Z</time>
      </trkpt>
      <trkpt lat="46.57209" lon="5.97381">
        <ele>884.35</ele>
        <time>2019-06-09T10:37:21Z</time>
      </trkpt>
      <trkpt lat="46.57199" lon="5.9736">
        <ele>885.06</ele>
        <time>2019-06-09T10:37:31Z</time>
      </trkpt>
      <trkpt lat="46.57198" lon="5.97358">
        <ele>885.02</ele>
        <time>2019-06-09T10:37:32Z</time>
      </trkpt>
      <trkpt lat="46.57198" lon="5.97355">
        <ele>885.02</ele>
        <time>2019-06-09T10:37:33Z</time>
      </trkpt>
      <trkpt lat="46.57197" lon="5.97352">
        <ele>884.98</ele>
        <time>2019-06-09T10:37:34Z</time>
      </trkpt>
      <trkpt lat="46.57197" lon="5.9735">
        <ele>885.01</ele>
        <time>2019-06-09T10:37:35Z</time>
      </trkpt>
      <trkpt lat="46.57193" lon="5.97335">
        <ele>885.74</ele>
        <time>2019-06-09T10:37:41Z</time>
      </trkpt>
      <trkpt lat="46.57193" lon="5.97332">
        <ele>885.75</ele>
        <time>2019-06-09T10:37:42Z</time>
      </trkpt>
      <trkpt lat="46.57193" lon="5.97329">
        <ele>885.77</ele>
        <time>2019-06-09T10:37:43Z</time>
      </trkpt>
      <trkpt lat="46.57192" lon="5.97326">
        <ele>885.75</ele>
        <time>2019-06-09T10:37:44Z</time>
      </trkpt>
      <trkpt lat="46.57192" lon="5.97323">
        <ele>885.75</ele>
        <time>2019-06-09T10:37:45Z</time>
      </trkpt>
      <trkpt lat="46.57192" lon="5.97316">
        <ele>886.56</ele>
        <time>2019-06-09T10:37:48Z</time>
      </trkpt>
      <trkpt lat="46.57193" lon="5.97314">
        <ele>886.55</ele>
        <time>2019-06-09T10:37:49Z</time>
      </trkpt>
      <trkpt lat="46.57194" lon="5.97311">
        <ele>886.56</ele>
        <time>2019-06-09T10:37:50Z</time>
      </trkpt>
      <trkpt lat="46.57194" lon="5.97308">
        <ele>886.54</ele>
        <time>2019-06-09T10:37:51Z</time>
      </trkpt>
      <trkpt lat="46.57194" lon="5.97305">
        <ele>886.56</ele>
        <time>2019-06-09T10:37:52Z</time>
      </trkpt>
      <trkpt lat="46.57194" lon="5.97302">
        <ele>886.56</ele>
        <time>2019-06-09T10:37:53Z</time>
      </trkpt>
      <trkpt lat="46.57193" lon="5.973">
        <ele>886.55</ele>
        <time>2019-06-09T10:37:54Z</time>
      </trkpt>
      <trkpt lat="46.57193" lon="5.97298">
        <ele>886.56</ele>
        <time>2019-06-09T10:37:55Z</time>
      </trkpt>
      <trkpt lat="46.57193" lon="5.97295">
        <ele>886.56</ele>
        <time>2019-06-09T10:37:56Z</time>
      </trkpt>
      <trkpt lat="46.57193" lon="5.97293">
        <ele>886.55</ele>
        <time>2019-06-09T10:37:57Z</time>
      </trkpt>
      <trkpt lat="46.57193" lon="5.97291">
        <ele>886.55</ele>
        <time>2019-06-09T10:37:58Z</time>
      </trkpt>
      <trkpt lat="46.57192" lon="5.97289">
        <ele>886.56</ele>
        <time>2019-06-09T10:37:59Z</time>
      </trkpt>
      <trkpt lat="46.57192" lon="5.97286">
        <ele>886.55</ele>
        <time>2019-06-09T10:38:00Z</time>
      </trkpt>
      <trkpt lat="46.57188" lon="5.97265">
        <ele>887.34</ele>
        <time>2019-06-09T10:38:10Z</time>
      </trkpt>
      <trkpt lat="46.57184" lon="5.97238">
        <ele>888.21</ele>
        <time>2019-06-09T10:38:22Z</time>
      </trkpt>
      <trkpt lat="46.57178" lon="5.97207">
        <ele>889.02</ele>
        <time>2019-06-09T10:38:33Z</time>
      </trkpt>
      <trkpt lat="46.57168" lon="5.97183">
        <ele>889.79</ele>
        <time>2019-06-09T10:38:45Z</time>
      </trkpt>
      <trkpt lat="46.57167" lon="5.97181">
        <ele>889.79</ele>
        <time>2019-06-09T10:38:46Z</time>
      </trkpt>
      <trkpt lat="46.57166" lon="5.97179">
        <ele>889.79</ele>
        <time>2019-06-09T10:38:47Z</time>
      </trkpt>
      <trkpt lat="46.57165" lon="5.97178">
        <ele>889.79</ele>
        <time>2019-06-09T10:38:48Z</time>
      </trkpt>
      <trkpt lat="46.57162" lon="5.97171">
        <ele>889.79</ele>
        <time>2019-06-09T10:38:52Z</time>
      </trkpt>
      <trkpt lat="46.5716" lon="5.97169">
        <ele>889.78</ele>
        <time>2019-06-09T10:38:53Z</time>
      </trkpt>
      <trkpt lat="46.57159" lon="5.97167">
        <ele>889.79</ele>
        <time>2019-06-09T10:38:54Z</time>
      </trkpt>
      <trkpt lat="46.57158" lon="5.97165">
        <ele>889.8</ele>
        <time>2019-06-09T10:38:55Z</time>
      </trkpt>
      <trkpt lat="46.57157" lon="5.97163">
        <ele>889.8</ele>
        <time>2019-06-09T10:38:56Z</time>
      </trkpt>
      <trkpt lat="46.57156" lon="5.97161">
        <ele>889.79</ele>
        <time>2019-06-09T10:38:57Z</time>
      </trkpt>
      <trkpt lat="46.57155" lon="5.97158">
        <ele>889.81</ele>
        <time>2019-06-09T10:38:58Z</time>
      </trkpt>
      <trkpt lat="46.5714" lon="5.97129">
        <ele>890.61</ele>
        <time>2019-06-09T10:39:13Z</time>
      </trkpt>
      <trkpt lat="46.57126" lon="5.97097">
        <ele>892.22</ele>
        <time>2019-06-09T10:39:29Z</time>
      </trkpt>
      <trkpt lat="46.57123" lon="5.97091">
        <ele>892.21</ele>
        <time>2019-06-09T10:39:32Z</time>
      </trkpt>
      <trkpt lat="46.57121" lon="5.9709">
        <ele>892.22</ele>
        <time>2019-06-09T10:39:33Z</time>
      </trkpt>
      <trkpt lat="46.5712" lon="5.97088">
        <ele>893</ele>
        <time>2019-06-09T10:39:34Z</time>
      </trkpt>
      <trkpt lat="46.5712" lon="5.97086">
        <ele>893</ele>
        <time>2019-06-09T10:39:35Z</time>
      </trkpt>
      <trkpt lat="46.57119" lon="5.97083">
        <ele>893</ele>
        <time>2019-06-09T10:39:36Z</time>
      </trkpt>
      <trkpt lat="46.57118" lon="5.97081">
        <ele>893</ele>
        <time>2019-06-09T10:39:37Z</time>
      </trkpt>
      <trkpt lat="46.57118" lon="5.97079">
        <ele>892.99</ele>
        <time>2019-06-09T10:39:38Z</time>
      </trkpt>
      <trkpt lat="46.57117" lon="5.97077">
        <ele>893</ele>
        <time>2019-06-09T10:39:39Z</time>
      </trkpt>
      <trkpt lat="46.57116" lon="5.97075">
        <ele>893</ele>
        <time>2019-06-09T10:39:40Z</time>
      </trkpt>
      <trkpt lat="46.57115" lon="5.97073">
        <ele>893</ele>
        <time>2019-06-09T10:39:41Z</time>
      </trkpt>
      <trkpt lat="46.57114" lon="5.97072">
        <ele>893</ele>
        <time>2019-06-09T10:39:42Z</time>
      </trkpt>
      <trkpt lat="46.57113" lon="5.9707">
        <ele>893.01</ele>
        <time>2019-06-09T10:39:43Z</time>
      </trkpt>
      <trkpt lat="46.57113" lon="5.97068">
        <ele>893</ele>
        <time>2019-06-09T10:39:44Z</time>
      </trkpt>
      <trkpt lat="46.57112" lon="5.97065">
        <ele>893</ele>
        <time>2019-06-09T10:39:45Z</time>
      </trkpt>
      <trkpt lat="46.57107" lon="5.97033">
        <ele>893.9</ele>
        <time>2019-06-09T10:40:00Z</time>
      </trkpt>
      <trkpt lat="46.57106" lon="5.97019">
        <ele>893.88</ele>
        <time>2019-06-09T10:40:06Z</time>
      </trkpt>
      <trkpt lat="46.57105" lon="5.97016">
        <ele>893.89</ele>
        <time>2019-06-09T10:40:08Z</time>
      </trkpt>
      <trkpt lat="46.57105" lon="5.97014">
        <ele>893.89</ele>
        <time>2019-06-09T10:40:09Z</time>
      </trkpt>
      <trkpt lat="46.57105" lon="5.97011">
        <ele>893.87</ele>
        <time>2019-06-09T10:40:10Z</time>
      </trkpt>
      <trkpt lat="46.57105" lon="5.97009">
        <ele>893.86</ele>
        <time>2019-06-09T10:40:11Z</time>
      </trkpt>
      <trkpt lat="46.57105" lon="5.97006">
        <ele>893.87</ele>
        <time>2019-06-09T10:40:12Z</time>
      </trkpt>
      <trkpt lat="46.57106" lon="5.97004">
        <ele>894.86</ele>
        <time>2019-06-09T10:40:13Z</time>
      </trkpt>
      <trkpt lat="46.57107" lon="5.97001">
        <ele>894.87</ele>
        <time>2019-06-09T10:40:14Z</time>
      </trkpt>
      <trkpt lat="46.57108" lon="5.96996">
        <ele>894.88</ele>
        <time>2019-06-09T10:40:17Z</time>
      </trkpt>
      <trkpt lat="46.57108" lon="5.96994">
        <ele>894.88</ele>
        <time>2019-06-09T10:40:18Z</time>
      </trkpt>
      <trkpt lat="46.57108" lon="5.96992">
        <ele>894.87</ele>
        <time>2019-06-09T10:40:19Z</time>
      </trkpt>
      <trkpt lat="46.57109" lon="5.9699">
        <ele>894.88</ele>
        <time>2019-06-09T10:40:20Z</time>
      </trkpt>
      <trkpt lat="46.5711" lon="5.96987">
        <ele>894.87</ele>
        <time>2019-06-09T10:40:21Z</time>
      </trkpt>
      <trkpt lat="46.57111" lon="5.96985">
        <ele>894.86</ele>
        <time>2019-06-09T10:40:22Z</time>
      </trkpt>
      <trkpt lat="46.57111" lon="5.96983">
        <ele>894.85</ele>
        <time>2019-06-09T10:40:23Z</time>
      </trkpt>
      <trkpt lat="46.57112" lon="5.9698">
        <ele>894.86</ele>
        <time>2019-06-09T10:40:24Z</time>
      </trkpt>
      <trkpt lat="46.57112" lon="5.96979">
        <ele>895.66</ele>
        <time>2019-06-09T10:40:25Z</time>
      </trkpt>
      <trkpt lat="46.57113" lon="5.96977">
        <ele>895.66</ele>
        <time>2019-06-09T10:40:26Z</time>
      </trkpt>
      <trkpt lat="46.57113" lon="5.96975">
        <ele>895.67</ele>
        <time>2019-06-09T10:40:27Z</time>
      </trkpt>
      <trkpt lat="46.5712" lon="5.96949">
        <ele>897.45</ele>
        <time>2019-06-09T10:40:40Z</time>
      </trkpt>
      <trkpt lat="46.57129" lon="5.9693">
        <ele>897.44</ele>
        <time>2019-06-09T10:40:50Z</time>
      </trkpt>
      <trkpt lat="46.57135" lon="5.96918">
        <ele>898.6</ele>
        <time>2019-06-09T10:40:56Z</time>
      </trkpt>
      <trkpt lat="46.57137" lon="5.96917">
        <ele>898.58</ele>
        <time>2019-06-09T10:40:57Z</time>
      </trkpt>
      <trkpt lat="46.57138" lon="5.96915">
        <ele>898.55</ele>
        <time>2019-06-09T10:40:58Z</time>
      </trkpt>
      <trkpt lat="46.57144" lon="5.96905">
        <ele>898.54</ele>
        <time>2019-06-09T10:41:03Z</time>
      </trkpt>
      <trkpt lat="46.57145" lon="5.96903">
        <ele>898.54</ele>
        <time>2019-06-09T10:41:04Z</time>
      </trkpt>
      <trkpt lat="46.57153" lon="5.96886">
        <ele>898.56</ele>
        <time>2019-06-09T10:41:13Z</time>
      </trkpt>
      <trkpt lat="46.57167" lon="5.9687">
        <ele>899.36</ele>
        <time>2019-06-09T10:41:24Z</time>
      </trkpt>
      <trkpt lat="46.57177" lon="5.96859">
        <ele>900.16</ele>
        <time>2019-06-09T10:41:31Z</time>
      </trkpt>
      <trkpt lat="46.57178" lon="5.96858">
        <ele>900.16</ele>
        <time>2019-06-09T10:41:32Z</time>
      </trkpt>
      <trkpt lat="46.57179" lon="5.96857">
        <ele>900.16</ele>
        <time>2019-06-09T10:41:33Z</time>
      </trkpt>
      <trkpt lat="46.5718" lon="5.96856">
        <ele>900.16</ele>
        <time>2019-06-09T10:41:34Z</time>
      </trkpt>
      <trkpt lat="46.57181" lon="5.96854">
        <ele>900.16</ele>
        <time>2019-06-09T10:41:35Z</time>
      </trkpt>
      <trkpt lat="46.57182" lon="5.96852">
        <ele>900.17</ele>
        <time>2019-06-09T10:41:36Z</time>
      </trkpt>
      <trkpt lat="46.57186" lon="5.96846">
        <ele>901.08</ele>
        <time>2019-06-09T10:41:40Z</time>
      </trkpt>
      <trkpt lat="46.57187" lon="5.96845">
        <ele>901.07</ele>
        <time>2019-06-09T10:41:41Z</time>
      </trkpt>
      <trkpt lat="46.57189" lon="5.96844">
        <ele>901.07</ele>
        <time>2019-06-09T10:41:42Z</time>
      </trkpt>
      <trkpt lat="46.57191" lon="5.96842">
        <ele>901.09</ele>
        <time>2019-06-09T10:41:43Z</time>
      </trkpt>
      <trkpt lat="46.57193" lon="5.9684">
        <ele>901.07</ele>
        <time>2019-06-09T10:41:44Z</time>
      </trkpt>
      <trkpt lat="46.57198" lon="5.96834">
        <ele>901.09</ele>
        <time>2019-06-09T10:41:49Z</time>
      </trkpt>
      <trkpt lat="46.57199" lon="5.96832">
        <ele>901.09</ele>
        <time>2019-06-09T10:41:50Z</time>
      </trkpt>
      <trkpt lat="46.57213" lon="5.96809">
        <ele>901.86</ele>
        <time>2019-06-09T10:42:03Z</time>
      </trkpt>
      <trkpt lat="46.57223" lon="5.96781">
        <ele>901.87</ele>
        <time>2019-06-09T10:42:14Z</time>
      </trkpt>
      <trkpt lat="46.57223" lon="5.96779">
        <ele>901.87</ele>
        <time>2019-06-09T10:42:15Z</time>
      </trkpt>
      <trkpt lat="46.57224" lon="5.96777">
        <ele>902.8</ele>
        <time>2019-06-09T10:42:16Z</time>
      </trkpt>
      <trkpt lat="46.57228" lon="5.96763">
        <ele>902.82</ele>
        <time>2019-06-09T10:42:22Z</time>
      </trkpt>
      <trkpt lat="46.57228" lon="5.9676">
        <ele>902.82</ele>
        <time>2019-06-09T10:42:23Z</time>
      </trkpt>
      <trkpt lat="46.57228" lon="5.96758">
        <ele>902.83</ele>
        <time>2019-06-09T10:42:24Z</time>
      </trkpt>
      <trkpt lat="46.57229" lon="5.96756">
        <ele>902.83</ele>
        <time>2019-06-09T10:42:25Z</time>
      </trkpt>
      <trkpt lat="46.5723" lon="5.96754">
        <ele>902.83</ele>
        <time>2019-06-09T10:42:26Z</time>
      </trkpt>
      <trkpt lat="46.57231" lon="5.96751">
        <ele>902.84</ele>
        <time>2019-06-09T10:42:27Z</time>
      </trkpt>
      <trkpt lat="46.57231" lon="5.96749">
        <ele>902.84</ele>
        <time>2019-06-09T10:42:28Z</time>
      </trkpt>
      <trkpt lat="46.57231" lon="5.96746">
        <ele>902.84</ele>
        <time>2019-06-09T10:42:29Z</time>
      </trkpt>
      <trkpt lat="46.57232" lon="5.96743">
        <ele>902.84</ele>
        <time>2019-06-09T10:42:30Z</time>
      </trkpt>
      <trkpt lat="46.57238" lon="5.96711">
        <ele>903.62</ele>
        <time>2019-06-09T10:42:43Z</time>
      </trkpt>
      <trkpt lat="46.57238" lon="5.96679">
        <ele>904.44</ele>
        <time>2019-06-09T10:42:56Z</time>
      </trkpt>
      <trkpt lat="46.57238" lon="5.9665">
        <ele>904.47</ele>
        <time>2019-06-09T10:43:07Z</time>
      </trkpt>
      <trkpt lat="46.57238" lon="5.96619">
        <ele>905.55</ele>
        <time>2019-06-09T10:43:20Z</time>
      </trkpt>
      <trkpt lat="46.57237" lon="5.9659">
        <ele>905.58</ele>
        <time>2019-06-09T10:43:32Z</time>
      </trkpt>
      <trkpt lat="46.57237" lon="5.9656">
        <ele>906.52</ele>
        <time>2019-06-09T10:43:45Z</time>
      </trkpt>
      <trkpt lat="46.57237" lon="5.96554">
        <ele>907.3</ele>
        <time>2019-06-09T10:43:48Z</time>
      </trkpt>
      <trkpt lat="46.57237" lon="5.96552">
        <ele>907.29</ele>
        <time>2019-06-09T10:43:49Z</time>
      </trkpt>
      <trkpt lat="46.57237" lon="5.96549">
        <ele>907.28</ele>
        <time>2019-06-09T10:43:50Z</time>
      </trkpt>
      <trkpt lat="46.57237" lon="5.96547">
        <ele>907.29</ele>
        <time>2019-06-09T10:43:51Z</time>
      </trkpt>
      <trkpt lat="46.57237" lon="5.96545">
        <ele>907.3</ele>
        <time>2019-06-09T10:43:52Z</time>
      </trkpt>
      <trkpt lat="46.57237" lon="5.96543">
        <ele>907.3</ele>
        <time>2019-06-09T10:43:53Z</time>
      </trkpt>
      <trkpt lat="46.57237" lon="5.96541">
        <ele>907.3</ele>
        <time>2019-06-09T10:43:54Z</time>
      </trkpt>
      <trkpt lat="46.57237" lon="5.96531">
        <ele>907.3</ele>
        <time>2019-06-09T10:43:58Z</time>
      </trkpt>
      <trkpt lat="46.57237" lon="5.96528">
        <ele>907.31</ele>
        <time>2019-06-09T10:43:59Z</time>
      </trkpt>
      <trkpt lat="46.57237" lon="5.96526">
        <ele>907.31</ele>
        <time>2019-06-09T10:44:00Z</time>
      </trkpt>
      <trkpt lat="46.57238" lon="5.96524">
        <ele>907.31</ele>
        <time>2019-06-09T10:44:01Z</time>
      </trkpt>
      <trkpt lat="46.57238" lon="5.96521">
        <ele>907.3</ele>
        <time>2019-06-09T10:44:02Z</time>
      </trkpt>
      <trkpt lat="46.57239" lon="5.96518">
        <ele>907.31</ele>
        <time>2019-06-09T10:44:03Z</time>
      </trkpt>
      <trkpt lat="46.57238" lon="5.96514">
        <ele>908.11</ele>
        <time>2019-06-09T10:44:05Z</time>
      </trkpt>
      <trkpt lat="46.57238" lon="5.96511">
        <ele>908.08</ele>
        <time>2019-06-09T10:44:06Z</time>
      </trkpt>
      <trkpt lat="46.57238" lon="5.96508">
        <ele>908.09</ele>
        <time>2019-06-09T10:44:07Z</time>
      </trkpt>
      <trkpt lat="46.57238" lon="5.96505">
        <ele>908.1</ele>
        <time>2019-06-09T10:44:08Z</time>
      </trkpt>
      <trkpt lat="46.57238" lon="5.96502">
        <ele>908.1</ele>
        <time>2019-06-09T10:44:09Z</time>
      </trkpt>
      <trkpt lat="46.57238" lon="5.96498">
        <ele>908.11</ele>
        <time>2019-06-09T10:44:10Z</time>
      </trkpt>
      <trkpt lat="46.57238" lon="5.96496">
        <ele>908.12</ele>
        <time>2019-06-09T10:44:11Z</time>
      </trkpt>
      <trkpt lat="46.57237" lon="5.96494">
        <ele>908.1</ele>
        <time>2019-06-09T10:44:12Z</time>
      </trkpt>
      <trkpt lat="46.57238" lon="5.96491">
        <ele>908.11</ele>
        <time>2019-06-09T10:44:13Z</time>
      </trkpt>
      <trkpt lat="46.57238" lon="5.96488">
        <ele>908.13</ele>
        <time>2019-06-09T10:44:14Z</time>
      </trkpt>
      <trkpt lat="46.57238" lon="5.96486">
        <ele>909</ele>
        <time>2019-06-09T10:44:15Z</time>
      </trkpt>
      <trkpt lat="46.57238" lon="5.96483">
        <ele>908.98</ele>
        <time>2019-06-09T10:44:16Z</time>
      </trkpt>
      <trkpt lat="46.57237" lon="5.9648">
        <ele>908.97</ele>
        <time>2019-06-09T10:44:17Z</time>
      </trkpt>
      <trkpt lat="46.57237" lon="5.96478">
        <ele>908.97</ele>
        <time>2019-06-09T10:44:18Z</time>
      </trkpt>
      <trkpt lat="46.57237" lon="5.96475">
        <ele>908.97</ele>
        <time>2019-06-09T10:44:19Z</time>
      </trkpt>
      <trkpt lat="46.57237" lon="5.96472">
        <ele>908.98</ele>
        <time>2019-06-09T10:44:20Z</time>
      </trkpt>
      <trkpt lat="46.57237" lon="5.96469">
        <ele>909.02</ele>
        <time>2019-06-09T10:44:21Z</time>
      </trkpt>
      <trkpt lat="46.57236" lon="5.96439">
        <ele>909.94</ele>
        <time>2019-06-09T10:44:32Z</time>
      </trkpt>
      <trkpt lat="46.57235" lon="5.96432">
        <ele>909.94</ele>
        <time>2019-06-09T10:44:35Z</time>
      </trkpt>
      <trkpt lat="46.57234" lon="5.96423">
        <ele>909.95</ele>
        <time>2019-06-09T10:44:39Z</time>
      </trkpt>
      <trkpt lat="46.57234" lon="5.9642">
        <ele>909.95</ele>
        <time>2019-06-09T10:44:40Z</time>
      </trkpt>
      <trkpt lat="46.57234" lon="5.96418">
        <ele>910.87</ele>
        <time>2019-06-09T10:44:41Z</time>
      </trkpt>
      <trkpt lat="46.57233" lon="5.96415">
        <ele>910.86</ele>
        <time>2019-06-09T10:44:42Z</time>
      </trkpt>
      <trkpt lat="46.57233" lon="5.96412">
        <ele>910.87</ele>
        <time>2019-06-09T10:44:43Z</time>
      </trkpt>
      <trkpt lat="46.57234" lon="5.96403">
        <ele>910.9</ele>
        <time>2019-06-09T10:44:47Z</time>
      </trkpt>
      <trkpt lat="46.57234" lon="5.96401">
        <ele>910.9</ele>
        <time>2019-06-09T10:44:48Z</time>
      </trkpt>
      <trkpt lat="46.57234" lon="5.96398">
        <ele>910.91</ele>
        <time>2019-06-09T10:44:49Z</time>
      </trkpt>
      <trkpt lat="46.57234" lon="5.96396">
        <ele>910.91</ele>
        <time>2019-06-09T10:44:50Z</time>
      </trkpt>
      <trkpt lat="46.57234" lon="5.96394">
        <ele>910.91</ele>
        <time>2019-06-09T10:44:51Z</time>
      </trkpt>
      <trkpt lat="46.57234" lon="5.96391">
        <ele>910.91</ele>
        <time>2019-06-09T10:44:52Z</time>
      </trkpt>
      <trkpt lat="46.57235" lon="5.96367">
        <ele>911.77</ele>
        <time>2019-06-09T10:45:02Z</time>
      </trkpt>
      <trkpt lat="46.57236" lon="5.96364">
        <ele>911.77</ele>
        <time>2019-06-09T10:45:03Z</time>
      </trkpt>
      <trkpt lat="46.57236" lon="5.96361">
        <ele>911.78</ele>
        <time>2019-06-09T10:45:04Z</time>
      </trkpt>
      <trkpt lat="46.57236" lon="5.96359">
        <ele>911.78</ele>
        <time>2019-06-09T10:45:05Z</time>
      </trkpt>
      <trkpt lat="46.57237" lon="5.96357">
        <ele>911.77</ele>
        <time>2019-06-09T10:45:06Z</time>
      </trkpt>
      <trkpt lat="46.57237" lon="5.96355">
        <ele>911.76</ele>
        <time>2019-06-09T10:45:07Z</time>
      </trkpt>
      <trkpt lat="46.57237" lon="5.96352">
        <ele>911.77</ele>
        <time>2019-06-09T10:45:08Z</time>
      </trkpt>
      <trkpt lat="46.57238" lon="5.96349">
        <ele>911.78</ele>
        <time>2019-06-09T10:45:09Z</time>
      </trkpt>
      <trkpt lat="46.57238" lon="5.96345">
        <ele>911.78</ele>
        <time>2019-06-09T10:45:10Z</time>
      </trkpt>
      <trkpt lat="46.57238" lon="5.96343">
        <ele>911.79</ele>
        <time>2019-06-09T10:45:11Z</time>
      </trkpt>
      <trkpt lat="46.57244" lon="5.96322">
        <ele>913.94</ele>
        <time>2019-06-09T10:45:20Z</time>
      </trkpt>
      <trkpt lat="46.57251" lon="5.96303">
        <ele>915.02</ele>
        <time>2019-06-09T10:45:29Z</time>
      </trkpt>
      <trkpt lat="46.57251" lon="5.96301">
        <ele>915.01</ele>
        <time>2019-06-09T10:45:30Z</time>
      </trkpt>
      <trkpt lat="46.57264" lon="5.96278">
        <ele>915.72</ele>
        <time>2019-06-09T10:45:41Z</time>
      </trkpt>
      <trkpt lat="46.57284" lon="5.96254">
        <ele>916.5</ele>
        <time>2019-06-09T10:45:55Z</time>
      </trkpt>
      <trkpt lat="46.57298" lon="5.96238">
        <ele>916.54</ele>
        <time>2019-06-09T10:46:05Z</time>
      </trkpt>
      <trkpt lat="46.57299" lon="5.96236">
        <ele>916.55</ele>
        <time>2019-06-09T10:46:06Z</time>
      </trkpt>
      <trkpt lat="46.573" lon="5.96233">
        <ele>916.55</ele>
        <time>2019-06-09T10:46:07Z</time>
      </trkpt>
      <trkpt lat="46.57306" lon="5.96223">
        <ele>917.3</ele>
        <time>2019-06-09T10:46:13Z</time>
      </trkpt>
      <trkpt lat="46.57307" lon="5.96221">
        <ele>917.3</ele>
        <time>2019-06-09T10:46:14Z</time>
      </trkpt>
      <trkpt lat="46.57308" lon="5.96219">
        <ele>917.3</ele>
        <time>2019-06-09T10:46:15Z</time>
      </trkpt>
      <trkpt lat="46.57311" lon="5.96214">
        <ele>917.3</ele>
        <time>2019-06-09T10:46:17Z</time>
      </trkpt>
      <trkpt lat="46.57311" lon="5.96211">
        <ele>917.3</ele>
        <time>2019-06-09T10:46:18Z</time>
      </trkpt>
      <trkpt lat="46.57311" lon="5.96209">
        <ele>917.3</ele>
        <time>2019-06-09T10:46:19Z</time>
      </trkpt>
      <trkpt lat="46.5731" lon="5.96208">
        <ele>917.29</ele>
        <time>2019-06-09T10:46:20Z</time>
      </trkpt>
      <trkpt lat="46.57309" lon="5.96206">
        <ele>917.28</ele>
        <time>2019-06-09T10:46:21Z</time>
      </trkpt>
      <trkpt lat="46.57307" lon="5.96205">
        <ele>917.27</ele>
        <time>2019-06-09T10:46:22Z</time>
      </trkpt>
      <trkpt lat="46.57306" lon="5.96203">
        <ele>917.26</ele>
        <time>2019-06-09T10:46:23Z</time>
      </trkpt>
      <trkpt lat="46.57305" lon="5.96202">
        <ele>917.27</ele>
        <time>2019-06-09T10:46:24Z</time>
      </trkpt>
      <trkpt lat="46.57303" lon="5.962">
        <ele>917.27</ele>
        <time>2019-06-09T10:46:25Z</time>
      </trkpt>
      <trkpt lat="46.57302" lon="5.96199">
        <ele>917.27</ele>
        <time>2019-06-09T10:46:26Z</time>
      </trkpt>
      <trkpt lat="46.57301" lon="5.96198">
        <ele>917.26</ele>
        <time>2019-06-09T10:46:27Z</time>
      </trkpt>
      <trkpt lat="46.57279" lon="5.96187">
        <ele>918.22</ele>
        <time>2019-06-09T10:46:41Z</time>
      </trkpt>
      <trkpt lat="46.5726" lon="5.96177">
        <ele>919.12</ele>
        <time>2019-06-09T10:46:54Z</time>
      </trkpt>
      <trkpt lat="46.57256" lon="5.96174">
        <ele>919.88</ele>
        <time>2019-06-09T10:46:57Z</time>
      </trkpt>
      <trkpt lat="46.57254" lon="5.96173">
        <ele>919.85</ele>
        <time>2019-06-09T10:46:58Z</time>
      </trkpt>
      <trkpt lat="46.57253" lon="5.96173">
        <ele>919.83</ele>
        <time>2019-06-09T10:46:59Z</time>
      </trkpt>
      <trkpt lat="46.57244" lon="5.96171">
        <ele>919.82</ele>
        <time>2019-06-09T10:47:04Z</time>
      </trkpt>
      <trkpt lat="46.57242" lon="5.96171">
        <ele>919.81</ele>
        <time>2019-06-09T10:47:05Z</time>
      </trkpt>
      <trkpt lat="46.5724" lon="5.96171">
        <ele>919.81</ele>
        <time>2019-06-09T10:47:06Z</time>
      </trkpt>
      <trkpt lat="46.57238" lon="5.96172">
        <ele>920.64</ele>
        <time>2019-06-09T10:47:07Z</time>
      </trkpt>
      <trkpt lat="46.57236" lon="5.96172">
        <ele>920.62</ele>
        <time>2019-06-09T10:47:08Z</time>
      </trkpt>
      <trkpt lat="46.57234" lon="5.96173">
        <ele>920.62</ele>
        <time>2019-06-09T10:47:09Z</time>
      </trkpt>
      <trkpt lat="46.57233" lon="5.96173">
        <ele>920.61</ele>
        <time>2019-06-09T10:47:10Z</time>
      </trkpt>
      <trkpt lat="46.57231" lon="5.96174">
        <ele>920.59</ele>
        <time>2019-06-09T10:47:11Z</time>
      </trkpt>
      <trkpt lat="46.57229" lon="5.96176">
        <ele>920.58</ele>
        <time>2019-06-09T10:47:12Z</time>
      </trkpt>
      <trkpt lat="46.57224" lon="5.9618">
        <ele>920.55</ele>
        <time>2019-06-09T10:47:15Z</time>
      </trkpt>
      <trkpt lat="46.57222" lon="5.96181">
        <ele>920.53</ele>
        <time>2019-06-09T10:47:16Z</time>
      </trkpt>
      <trkpt lat="46.5722" lon="5.96183">
        <ele>920.53</ele>
        <time>2019-06-09T10:47:17Z</time>
      </trkpt>
      <trkpt lat="46.57219" lon="5.96184">
        <ele>920.53</ele>
        <time>2019-06-09T10:47:18Z</time>
      </trkpt>
      <trkpt lat="46.57218" lon="5.96185">
        <ele>920.52</ele>
        <time>2019-06-09T10:47:19Z</time>
      </trkpt>
      <trkpt lat="46.57216" lon="5.96184">
        <ele>920.51</ele>
        <time>2019-06-09T10:47:20Z</time>
      </trkpt>
      <trkpt lat="46.57215" lon="5.96184">
        <ele>920.5</ele>
        <time>2019-06-09T10:47:21Z</time>
      </trkpt>
      <trkpt lat="46.57214" lon="5.96184">
        <ele>920.49</ele>
        <time>2019-06-09T10:47:22Z</time>
      </trkpt>
      <trkpt lat="46.57192" lon="5.96183">
        <ele>920.39</ele>
        <time>2019-06-09T10:47:33Z</time>
      </trkpt>
      <trkpt lat="46.57171" lon="5.96187">
        <ele>920.31</ele>
        <time>2019-06-09T10:47:45Z</time>
      </trkpt>
      <trkpt lat="46.57162" lon="5.96187">
        <ele>917.88</ele>
        <time>2019-06-09T10:47:50Z</time>
      </trkpt>
      <trkpt lat="46.57142" lon="5.96187">
        <ele>916.87</ele>
        <time>2019-06-09T10:48:01Z</time>
      </trkpt>
      <trkpt lat="46.57136" lon="5.96189">
        <ele>916.88</ele>
        <time>2019-06-09T10:48:04Z</time>
      </trkpt>
      <trkpt lat="46.57134" lon="5.96189">
        <ele>916.88</ele>
        <time>2019-06-09T10:48:05Z</time>
      </trkpt>
      <trkpt lat="46.57133" lon="5.96189">
        <ele>916.88</ele>
        <time>2019-06-09T10:48:06Z</time>
      </trkpt>
      <trkpt lat="46.57113" lon="5.96193">
        <ele>915.3</ele>
        <time>2019-06-09T10:48:18Z</time>
      </trkpt>
      <trkpt lat="46.57106" lon="5.96195">
        <ele>914.57</ele>
        <time>2019-06-09T10:48:23Z</time>
      </trkpt>
      <trkpt lat="46.57105" lon="5.96193">
        <ele>914.56</ele>
        <time>2019-06-09T10:48:24Z</time>
      </trkpt>
      <trkpt lat="46.57104" lon="5.96191">
        <ele>914.56</ele>
        <time>2019-06-09T10:48:25Z</time>
      </trkpt>
      <trkpt lat="46.57103" lon="5.96189">
        <ele>914.55</ele>
        <time>2019-06-09T10:48:26Z</time>
      </trkpt>
      <trkpt lat="46.57102" lon="5.96187">
        <ele>914.57</ele>
        <time>2019-06-09T10:48:27Z</time>
      </trkpt>
      <trkpt lat="46.57102" lon="5.96184">
        <ele>914.6</ele>
        <time>2019-06-09T10:48:28Z</time>
      </trkpt>
      <trkpt lat="46.57102" lon="5.96182">
        <ele>914.59</ele>
        <time>2019-06-09T10:48:29Z</time>
      </trkpt>
      <trkpt lat="46.57102" lon="5.96179">
        <ele>914.6</ele>
        <time>2019-06-09T10:48:30Z</time>
      </trkpt>
      <trkpt lat="46.57101" lon="5.96177">
        <ele>914.59</ele>
        <time>2019-06-09T10:48:31Z</time>
      </trkpt>
      <trkpt lat="46.57099" lon="5.96161">
        <ele>913.76</ele>
        <time>2019-06-09T10:48:38Z</time>
      </trkpt>
      <trkpt lat="46.57098" lon="5.96159">
        <ele>913.76</ele>
        <time>2019-06-09T10:48:39Z</time>
      </trkpt>
      <trkpt lat="46.57097" lon="5.96157">
        <ele>913.77</ele>
        <time>2019-06-09T10:48:40Z</time>
      </trkpt>
      <trkpt lat="46.57097" lon="5.96155">
        <ele>913.78</ele>
        <time>2019-06-09T10:48:41Z</time>
      </trkpt>
      <trkpt lat="46.57097" lon="5.96152">
        <ele>913.79</ele>
        <time>2019-06-09T10:48:42Z</time>
      </trkpt>
      <trkpt lat="46.57095" lon="5.96135">
        <ele>913.81</ele>
        <time>2019-06-09T10:48:48Z</time>
      </trkpt>
      <trkpt lat="46.57096" lon="5.96132">
        <ele>913.8</ele>
        <time>2019-06-09T10:48:49Z</time>
      </trkpt>
      <trkpt lat="46.57095" lon="5.96127">
        <ele>913.83</ele>
        <time>2019-06-09T10:48:51Z</time>
      </trkpt>
      <trkpt lat="46.57095" lon="5.96126">
        <ele>913.85</ele>
        <time>2019-06-09T10:48:52Z</time>
      </trkpt>
      <trkpt lat="46.57094" lon="5.96124">
        <ele>913.86</ele>
        <time>2019-06-09T10:48:53Z</time>
      </trkpt>
      <trkpt lat="46.57094" lon="5.96122">
        <ele>913.85</ele>
        <time>2019-06-09T10:48:54Z</time>
      </trkpt>
      <trkpt lat="46.57093" lon="5.96119">
        <ele>913.86</ele>
        <time>2019-06-09T10:48:55Z</time>
      </trkpt>
      <trkpt lat="46.57091" lon="5.96096">
        <ele>916.23</ele>
        <time>2019-06-09T10:49:05Z</time>
      </trkpt>
      <trkpt lat="46.5709" lon="5.96094">
        <ele>916.23</ele>
        <time>2019-06-09T10:49:06Z</time>
      </trkpt>
      <trkpt lat="46.5709" lon="5.96092">
        <ele>916.25</ele>
        <time>2019-06-09T10:49:07Z</time>
      </trkpt>
      <trkpt lat="46.57089" lon="5.96089">
        <ele>916.22</ele>
        <time>2019-06-09T10:49:08Z</time>
      </trkpt>
      <trkpt lat="46.57089" lon="5.96087">
        <ele>916.22</ele>
        <time>2019-06-09T10:49:09Z</time>
      </trkpt>
      <trkpt lat="46.57088" lon="5.96085">
        <ele>916.21</ele>
        <time>2019-06-09T10:49:10Z</time>
      </trkpt>
      <trkpt lat="46.57088" lon="5.96083">
        <ele>916.19</ele>
        <time>2019-06-09T10:49:11Z</time>
      </trkpt>
      <trkpt lat="46.57079" lon="5.96056">
        <ele>916.14</ele>
        <time>2019-06-09T10:49:23Z</time>
      </trkpt>
      <trkpt lat="46.57067" lon="5.96029">
        <ele>916.11</ele>
        <time>2019-06-09T10:49:36Z</time>
      </trkpt>
      <trkpt lat="46.5706" lon="5.96005">
        <ele>916.16</ele>
        <time>2019-06-09T10:49:47Z</time>
      </trkpt>
      <trkpt lat="46.57055" lon="5.95989">
        <ele>916.15</ele>
        <time>2019-06-09T10:49:56Z</time>
      </trkpt>
      <trkpt lat="46.57055" lon="5.95987">
        <ele>916.15</ele>
        <time>2019-06-09T10:49:57Z</time>
      </trkpt>
      <trkpt lat="46.57054" lon="5.95985">
        <ele>916.14</ele>
        <time>2019-06-09T10:49:58Z</time>
      </trkpt>
      <trkpt lat="46.57049" lon="5.95971">
        <ele>916.1</ele>
        <time>2019-06-09T10:50:06Z</time>
      </trkpt>
      <trkpt lat="46.57049" lon="5.95969">
        <ele>916.1</ele>
        <time>2019-06-09T10:50:07Z</time>
      </trkpt>
      <trkpt lat="46.57048" lon="5.95968">
        <ele>916.09</ele>
        <time>2019-06-09T10:50:08Z</time>
      </trkpt>
      <trkpt lat="46.57047" lon="5.95966">
        <ele>916.09</ele>
        <time>2019-06-09T10:50:09Z</time>
      </trkpt>
      <trkpt lat="46.57046" lon="5.95964">
        <ele>916.08</ele>
        <time>2019-06-09T10:50:10Z</time>
      </trkpt>
      <trkpt lat="46.57046" lon="5.95962">
        <ele>916.07</ele>
        <time>2019-06-09T10:50:11Z</time>
      </trkpt>
      <trkpt lat="46.57045" lon="5.9596">
        <ele>916.06</ele>
        <time>2019-06-09T10:50:12Z</time>
      </trkpt>
      <trkpt lat="46.57044" lon="5.95958">
        <ele>916.05</ele>
        <time>2019-06-09T10:50:13Z</time>
      </trkpt>
      <trkpt lat="46.57027" lon="5.95937">
        <ele>915.96</ele>
        <time>2019-06-09T10:50:27Z</time>
      </trkpt>
      <trkpt lat="46.57012" lon="5.95914">
        <ele>915.98</ele>
        <time>2019-06-09T10:50:39Z</time>
      </trkpt>
      <trkpt lat="46.57004" lon="5.95884">
        <ele>917.52</ele>
        <time>2019-06-09T10:50:55Z</time>
      </trkpt>
      <trkpt lat="46.56995" lon="5.95859">
        <ele>918.27</ele>
        <time>2019-06-09T10:51:07Z</time>
      </trkpt>
      <trkpt lat="46.56985" lon="5.95837">
        <ele>919.28</ele>
        <time>2019-06-09T10:51:18Z</time>
      </trkpt>
      <trkpt lat="46.56985" lon="5.95835">
        <ele>919.28</ele>
        <time>2019-06-09T10:51:19Z</time>
      </trkpt>
      <trkpt lat="46.56976" lon="5.95819">
        <ele>919.26</ele>
        <time>2019-06-09T10:51:28Z</time>
      </trkpt>
      <trkpt lat="46.56975" lon="5.95816">
        <ele>919.26</ele>
        <time>2019-06-09T10:51:29Z</time>
      </trkpt>
      <trkpt lat="46.56975" lon="5.95814">
        <ele>919.27</ele>
        <time>2019-06-09T10:51:30Z</time>
      </trkpt>
      <trkpt lat="46.56963" lon="5.95791">
        <ele>919.26</ele>
        <time>2019-06-09T10:51:44Z</time>
      </trkpt>
      <trkpt lat="46.56957" lon="5.95757">
        <ele>919.23</ele>
        <time>2019-06-09T10:51:59Z</time>
      </trkpt>
      <trkpt lat="46.56957" lon="5.95755">
        <ele>919.23</ele>
        <time>2019-06-09T10:52:00Z</time>
      </trkpt>
      <trkpt lat="46.56956" lon="5.95753">
        <ele>919.22</ele>
        <time>2019-06-09T10:52:01Z</time>
      </trkpt>
      <trkpt lat="46.56956" lon="5.95751">
        <ele>919.21</ele>
        <time>2019-06-09T10:52:02Z</time>
      </trkpt>
      <trkpt lat="46.56956" lon="5.95749">
        <ele>919.23</ele>
        <time>2019-06-09T10:52:03Z</time>
      </trkpt>
      <trkpt lat="46.56957" lon="5.95747">
        <ele>919.25</ele>
        <time>2019-06-09T10:52:04Z</time>
      </trkpt>
      <trkpt lat="46.56957" lon="5.95743">
        <ele>919.27</ele>
        <time>2019-06-09T10:52:06Z</time>
      </trkpt>
      <trkpt lat="46.56956" lon="5.9574">
        <ele>919.27</ele>
        <time>2019-06-09T10:52:07Z</time>
      </trkpt>
      <trkpt lat="46.56956" lon="5.95739">
        <ele>919.27</ele>
        <time>2019-06-09T10:52:08Z</time>
      </trkpt>
      <trkpt lat="46.56962" lon="5.95709">
        <ele>919.26</ele>
        <time>2019-06-09T10:52:22Z</time>
      </trkpt>
      <trkpt lat="46.56972" lon="5.95683">
        <ele>919.25</ele>
        <time>2019-06-09T10:52:35Z</time>
      </trkpt>
      <trkpt lat="46.56982" lon="5.95656">
        <ele>919.24</ele>
        <time>2019-06-09T10:52:49Z</time>
      </trkpt>
      <trkpt lat="46.56987" lon="5.95645">
        <ele>919.23</ele>
        <time>2019-06-09T10:52:55Z</time>
      </trkpt>
      <trkpt lat="46.56988" lon="5.95643">
        <ele>919.23</ele>
        <time>2019-06-09T10:52:56Z</time>
      </trkpt>
      <trkpt lat="46.56988" lon="5.95641">
        <ele>919.23</ele>
        <time>2019-06-09T10:52:57Z</time>
      </trkpt>
      <trkpt lat="46.5699" lon="5.9564">
        <ele>919.22</ele>
        <time>2019-06-09T10:52:58Z</time>
      </trkpt>
      <trkpt lat="46.56991" lon="5.95638">
        <ele>919.22</ele>
        <time>2019-06-09T10:52:59Z</time>
      </trkpt>
      <trkpt lat="46.56998" lon="5.95633">
        <ele>919.2</ele>
        <time>2019-06-09T10:53:04Z</time>
      </trkpt>
      <trkpt lat="46.57003" lon="5.95625">
        <ele>919.19</ele>
        <time>2019-06-09T10:53:08Z</time>
      </trkpt>
      <trkpt lat="46.57003" lon="5.95618">
        <ele>919.16</ele>
        <time>2019-06-09T10:53:25Z</time>
      </trkpt>
      <trkpt lat="46.57007" lon="5.95616">
        <ele>919.13</ele>
        <time>2019-06-09T10:53:32Z</time>
      </trkpt>
      <trkpt lat="46.57009" lon="5.95616">
        <ele>919.12</ele>
        <time>2019-06-09T10:53:33Z</time>
      </trkpt>
      <trkpt lat="46.5701" lon="5.95616">
        <ele>919.1</ele>
        <time>2019-06-09T10:53:34Z</time>
      </trkpt>
      <trkpt lat="46.57013" lon="5.95615">
        <ele>916.81</ele>
        <time>2019-06-09T10:53:36Z</time>
      </trkpt>
      <trkpt lat="46.57021" lon="5.95613">
        <ele>916.78</ele>
        <time>2019-06-09T10:53:42Z</time>
      </trkpt>
      <trkpt lat="46.57037" lon="5.95608">
        <ele>915.94</ele>
        <time>2019-06-09T10:53:54Z</time>
      </trkpt>
      <trkpt lat="46.5706" lon="5.95606">
        <ele>915.86</ele>
        <time>2019-06-09T10:54:08Z</time>
      </trkpt>
      <trkpt lat="46.57087" lon="5.95606">
        <ele>914.09</ele>
        <time>2019-06-09T10:54:23Z</time>
      </trkpt>
      <trkpt lat="46.57101" lon="5.95605">
        <ele>914.04</ele>
        <time>2019-06-09T10:54:33Z</time>
      </trkpt>
      <trkpt lat="46.57119" lon="5.95599">
        <ele>913.11</ele>
        <time>2019-06-09T10:54:47Z</time>
      </trkpt>
      <trkpt lat="46.57122" lon="5.95598">
        <ele>912.26</ele>
        <time>2019-06-09T10:54:49Z</time>
      </trkpt>
      <trkpt lat="46.57124" lon="5.95597">
        <ele>912.27</ele>
        <time>2019-06-09T10:54:50Z</time>
      </trkpt>
      <trkpt lat="46.57125" lon="5.95597">
        <ele>912.26</ele>
        <time>2019-06-09T10:54:51Z</time>
      </trkpt>
      <trkpt lat="46.57126" lon="5.95596">
        <ele>912.26</ele>
        <time>2019-06-09T10:54:52Z</time>
      </trkpt>
      <trkpt lat="46.57141" lon="5.95587">
        <ele>912.23</ele>
        <time>2019-06-09T10:55:04Z</time>
      </trkpt>
      <trkpt lat="46.5716" lon="5.95579">
        <ele>912.22</ele>
        <time>2019-06-09T10:55:17Z</time>
      </trkpt>
      <trkpt lat="46.57174" lon="5.95567">
        <ele>912.2</ele>
        <time>2019-06-09T10:55:27Z</time>
      </trkpt>
      <trkpt lat="46.57186" lon="5.9555">
        <ele>912.21</ele>
        <time>2019-06-09T10:55:38Z</time>
      </trkpt>
      <trkpt lat="46.57202" lon="5.95541">
        <ele>912.18</ele>
        <time>2019-06-09T10:55:51Z</time>
      </trkpt>
      <trkpt lat="46.57222" lon="5.95528">
        <ele>910.6</ele>
        <time>2019-06-09T10:56:03Z</time>
      </trkpt>
      <trkpt lat="46.57235" lon="5.95518">
        <ele>910.64</ele>
        <time>2019-06-09T10:56:15Z</time>
      </trkpt>
      <trkpt lat="46.57245" lon="5.95506">
        <ele>910.69</ele>
        <time>2019-06-09T10:56:26Z</time>
      </trkpt>
      <trkpt lat="46.57247" lon="5.95502">
        <ele>922.83</ele>
        <time>2019-06-09T10:56:32Z</time>
      </trkpt>
    </trkseg>
  </trk>
</gpx>